GFSCGP_850_thetae_000.txt.gz
Theta_e
320 318 317 317 317 319 319 319 319 319 318 317 316 315 317 316 316 315 315 314 315 315 316 317 318 316 314 315 317 317 322 323 324 322 322 321 321 321 321 321 321 322 322 321
318 319 317 317 318 318 318 318 318 317 317 316 317 316 315 315 316 316 315 314 315 315 316 317 318 316 317 314 315 318 321 321 324 322 321 324 323 324 324 322 322 322 324 323
319 320 318 319 319 319 318 319 318 318 318 315 316 315 316 315 316 317 316 316 315 315 316 318 318 317 317 317 313 318 319 319 321 324 323 325 325 325 323 321 325 326 324 325
319 319 320 319 320 319 320 318 318 318 318 317 315 316 315 316 316 317 315 315 315 315 316 317 317 317 315 318 314 317 319 317 321 325 325 323 326 324 325 325 326 327 327 325
322 319 319 320 320 318 320 319 318 318 317 316 317 314 315 318 319 316 315 314 315 315 316 317 317 318 316 320 316 318 321 317 323 325 325 325 326 326 327 323 323 325 325 325
320 320 318 319 319 318 319 318 315 314 313 315 315 315 315 316 318 318 316 315 316 315 316 317 317 317 318 322 320 318 320 318 319 323 324 323 322 323 326 327 324 324 324 324
319 318 319 320 320 317 316 314 316 316 316 318 316 316 316 317 316 317 318 315 316 315 316 317 318 317 319 320 320 321 318 318 317 318 323 322 321 321 325 326 327 326 327 327
320 321 319 318 319 318 314 314 315 317 315 315 318 320 319 318 321 321 321 319 316 316 317 317 317 318 318 320 319 322 321 318 318 316 317 319 321 321 324 326 326 327 327 324
319 320 319 318 318 318 317 315 314 315 317 318 317 319 321 324 323 320 317 316 315 316 317 317 317 318 318 320 319 321 322 319 320 318 316 316 319 320 322 323 325 329 327 327
318 320 318 319 318 317 318 315 317 313 318 319 318 321 323 321 324 321 317 315 316 316 317 317 317 318 318 321 320 321 323 321 318 319 317 316 315 318 319 321 324 325 322 323
316 318 320 319 320 319 318 318 317 313 314 316 316 320 318 323 325 325 319 316 317 317 317 317 316 318 317 320 321 320 322 319 312 317 316 316 315 314 318 318 319 320 322 324
316 316 318 323 321 321 318 317 319 318 318 318 317 320 320 323 325 325 322 318 318 317 319 318 316 317 318 320 320 320 321 318 310 309 311 314 315 316 315 317 317 318 318 320
315 315 317 318 326 324 324 323 319 319 319 324 324 321 321 324 325 324 323 319 318 317 318 318 316 317 318 320 319 320 322 318 316 313 312 309 310 315 313 318 318 317 321 319
318 314 317 320 319 325 326 327 323 321 322 322 325 324 324 325 327 323 321 320 318 318 318 318 316 317 318 318 319 319 319 318 317 315 316 312 309 313 313 315 317 318 320 320
315 316 317 317 317 322 322 324 325 323 321 324 323 325 323 324 326 324 323 318 317 317 317 318 316 316 318 319 319 319 318 317 317 316 318 315 310 310 314 315 315 316 320 319
316 317 316 318 318 318 321 321 325 324 323 325 323 324 322 325 327 326 324 319 318 319 319 318 317 316 317 319 319 318 318 318 317 316 318 317 311 309 313 315 317 319 320 320
316 320 319 319 323 322 323 321 325 324 323 322 325 323 322 326 326 326 326 323 322 320 320 318 319 318 315 318 319 318 316 317 316 315 318 318 311 309 310 313 315 315 316 319
317 320 321 327 326 327 323 322 323 325 324 322 323 322 322 323 325 325 326 326 325 322 322 321 319 319 317 316 318 318 317 317 315 313 318 318 312 309 311 314 313 314 315 314
317 320 324 327 322 325 326 325 324 325 325 322 322 321 322 324 325 326 327 327 327 327 327 325 322 320 319 317 316 318 317 317 316 314 315 316 312 308 311 311 312 312 311 310
320 320 322 318 326 330 324 324 324 322 326 322 323 321 322 324 325 325 327 326 326 327 326 326 324 320 320 319 317 318 317 318 317 316 313 313 311 308 309 310 310 309 309 308
321 320 325 318 319 321 321 322 324 327 325 322 323 323 322 323 325 326 325 326 326 327 327 326 324 324 323 320 318 317 317 316 318 317 316 312 311 308 309 310 309 309 309 309
323 321 321 317 322 325 320 323 327 323 323 323 324 324 324 326 326 325 325 326 326 326 326 326 325 323 323 321 319 317 317 316 317 318 317 315 311 310 309 311 311 310 310 311
324 321 322 321 321 318 323 324 326 325 324 323 324 324 325 325 325 325 325 325 325 325 326 327 327 325 322 322 320 318 317 317 317 319 319 317 314 312 310 311 313 313 313 313
321 318 320 321 320 320 323 324 324 323 324 324 324 324 324 324 325 325 325 326 326 326 326 326 326 325 324 323 322 320 318 317 317 318 319 319 318 315 314 312 312 315 315 315
319 319 319 319 319 319 322 324 325 324 323 324 324 324 324 325 326 327 327 326 326 326 326 326 327 326 326 325 324 322 320 318 317 318 319 320 319 319 318 316 315 313 314 314
318 319 322 321 317 321 322 324 324 324 324 323 324 323 325 326 326 326 326 326 326 326 326 326 326 326 327 327 325 323 322 320 318 317 318 319 320 320 319 321 322 320 319 317

GFSCGP_850_thetae_003.txt.gz
Theta_e
321 324 325 325 323 323 323 323 324 322 322 321 322 322 322 321 318 318 317 316 317 316 315 317 317 315 312 312 319 318 321 323 323 318 322 324 324 324 322 320 320 321 322 323
321 325 324 323 322 321 322 323 323 322 321 321 323 322 322 321 320 319 319 317 317 317 316 316 318 316 313 311 319 320 319 321 323 321 324 325 325 324 321 322 323 323 323 322
325 325 321 322 321 322 322 323 323 324 321 320 320 322 322 322 318 318 318 318 317 317 318 316 318 316 313 312 317 319 318 319 324 324 324 325 324 323 322 326 326 326 324 325
324 321 322 322 323 323 325 322 323 323 322 324 321 324 323 323 323 321 319 317 317 317 317 316 318 316 312 315 315 319 317 321 324 325 325 326 326 324 325 326 326 326 326 325
324 322 322 323 323 322 324 322 322 322 324 321 322 322 322 321 323 324 324 319 317 317 316 316 317 316 312 316 316 320 318 319 322 324 322 322 326 327 325 323 325 325 325 326
324 320 323 323 323 322 323 321 320 320 321 323 323 322 321 323 324 324 324 321 318 317 317 317 317 317 315 317 317 319 317 317 318 323 322 321 323 326 327 325 324 323 323 325
323 323 321 322 324 320 322 324 325 326 326 324 320 321 323 324 324 323 323 322 318 317 317 318 317 317 317 317 319 321 318 317 315 317 320 321 324 325 327 326 326 325 323 322
324 324 322 321 324 324 323 325 324 326 323 324 320 323 322 325 323 324 323 323 318 317 318 319 317 317 315 318 319 321 322 316 317 316 315 320 322 322 325 327 327 326 324 324
324 323 320 321 322 323 321 322 323 324 321 322 322 323 324 326 327 326 323 319 318 317 318 318 317 317 315 318 318 321 322 319 318 317 316 317 320 321 320 325 327 326 325 326
322 324 322 322 321 321 323 321 323 321 324 325 323 324 325 325 325 328 325 321 318 318 318 319 317 316 315 318 319 321 322 321 316 316 316 315 317 318 319 323 323 321 322 326
323 323 322 321 323 323 321 322 322 322 322 325 326 325 326 328 330 332 328 322 319 318 318 319 318 316 316 319 320 321 322 321 311 314 314 315 315 317 318 319 320 320 319 322
322 324 325 323 322 323 323 323 324 324 325 323 324 325 325 328 331 331 329 322 320 319 319 319 318 316 317 319 320 320 321 320 310 309 311 313 315 314 317 317 317 317 321 322
323 327 326 323 328 326 323 323 324 325 325 326 325 325 326 329 330 328 327 322 319 319 319 319 318 316 317 318 320 320 321 319 313 311 310 309 314 313 317 317 316 319 318 316
322 326 326 325 324 325 327 325 323 325 325 325 325 325 327 330 330 328 327 322 320 319 319 319 318 317 317 318 319 320 320 319 316 313 312 309 310 313 313 316 317 320 319 317
324 325 324 323 323 325 324 325 327 326 325 326 326 327 327 329 330 330 327 322 320 320 320 319 318 317 316 317 319 319 319 317 316 314 315 312 309 312 312 313 314 319 318 319
320 326 324 323 322 322 323 323 324 326 325 326 325 327 328 327 329 328 324 321 320 320 320 320 319 316 316 317 318 319 319 316 315 315 316 314 309 310 313 313 313 317 319 317
324 326 323 324 322 322 324 323 323 325 326 325 326 327 328 330 331 330 325 323 322 322 320 320 320 318 315 316 317 318 318 317 316 315 316 315 311 308 312 314 316 318 319 319
326 329 326 327 326 327 326 324 322 324 325 326 326 327 328 328 329 330 328 325 324 325 323 321 320 321 317 314 317 318 319 318 316 313 316 315 311 308 309 313 314 314 315 317
317 325 334 336 331 326 328 327 324 325 326 327 327 327 327 327 328 328 327 326 327 327 327 326 324 321 320 316 315 318 319 319 317 313 314 315 312 307 309 310 311 313 314 314
321 323 325 333 333 329 327 329 325 326 329 328 327 329 328 327 329 329 326 326 327 326 326 327 326 322 322 319 316 317 318 318 318 314 312 314 312 307 309 309 311 310 310 310
322 325 323 324 332 329 327 328 325 331 329 329 327 328 327 329 329 328 326 326 326 326 326 326 326 326 325 321 318 316 317 316 316 315 313 312 312 308 309 309 309 308 308 307
319 321 322 326 325 325 324 326 330 332 326 327 327 328 327 326 328 326 325 326 325 326 326 326 326 326 325 323 319 317 316 313 315 316 314 312 311 309 309 309 309 309 309 308
321 319 321 322 321 327 326 328 327 326 328 324 327 327 326 327 327 326 325 325 325 326 326 326 326 326 325 324 321 319 318 315 314 317 316 313 311 310 309 310 309 309 309 310
314 321 323 323 322 325 325 326 326 325 324 324 323 323 324 325 325 325 325 325 325 325 325 326 325 325 325 324 323 321 319 316 315 315 318 316 313 311 309 310 311 310 310 312
313 318 323 324 324 323 323 325 325 324 323 323 324 324 324 324 324 324 325 325 326 326 326 326 326 326 326 326 324 322 320 318 316 316 316 317 317 314 311 310 311 312 311 313
318 317 321 324 323 325 325 323 324 324 324 324 324 324 323 323 324 326 327 327 327 326 326 326 326 325 325 325 324 323 321 319 317 316 316 317 318 317 316 313 313 311 312 313

GFSCGP_850_thetae_006.txt.gz
Theta_e
324 326 327 327 328 328 327 326 327 327 327 325 327 327 325 324 324 324 324 323 322 321 321 322 323 322 320 321 324 325 324 325 323 327 328 328 326 323 323 322 323 324 322 321
326 327 327 327 327 327 327 327 328 327 326 325 326 325 325 325 324 324 325 324 323 322 321 323 324 323 321 320 322 325 325 323 324 327 325 327 325 324 325 324 325 323 323 322
327 326 327 327 327 327 327 327 328 327 327 325 325 325 326 325 324 324 324 324 324 323 322 323 323 323 320 320 322 324 324 323 325 325 327 327 326 326 326 326 325 325 323 322
326 326 327 327 327 327 327 326 326 326 326 326 326 327 325 325 325 325 325 324 324 323 322 323 324 323 320 320 322 323 325 323 326 325 328 328 328 329 326 327 325 326 326 325
326 327 327 327 326 326 326 325 326 326 326 326 326 327 325 324 324 324 324 326 325 323 322 323 324 322 319 321 322 324 326 322 327 323 323 328 330 329 326 325 325 324 327 326
325 325 326 326 324 324 324 325 325 326 326 327 326 325 324 323 324 324 325 327 326 323 322 323 323 321 319 321 321 324 326 322 327 329 325 326 326 326 326 328 324 323 326 327
325 326 326 325 325 325 325 326 328 329 328 327 325 324 324 324 324 325 325 325 326 323 322 323 323 321 320 322 322 324 324 323 323 326 327 326 328 326 327 327 326 323 323 326
325 326 326 325 324 325 325 327 327 328 328 327 325 325 324 324 325 327 328 329 326 323 322 322 323 322 319 321 323 324 323 323 322 324 325 325 325 326 326 326 323 324 326 326
326 326 325 325 324 325 326 326 326 327 327 327 325 325 325 325 326 328 328 327 325 323 322 323 323 322 319 320 323 324 324 321 321 322 324 324 323 321 325 327 326 325 325 326
325 327 324 325 324 324 325 325 326 326 328 329 326 326 325 325 326 332 331 328 325 323 323 323 323 322 319 320 323 325 325 321 322 321 322 322 322 323 323 324 322 322 326 323
325 326 326 324 325 325 325 326 326 326 326 327 328 327 326 325 328 331 333 329 325 324 323 324 324 322 319 321 322 325 325 322 319 320 321 321 320 322 321 323 322 320 324 326
324 325 327 325 324 324 325 325 327 327 328 327 326 327 326 327 330 332 333 329 326 324 323 324 324 321 319 321 322 324 325 322 318 318 320 321 320 321 321 323 322 322 325 327
324 324 325 324 327 326 324 325 325 327 327 328 328 327 327 329 331 333 333 329 326 325 324 324 324 321 319 321 321 322 324 322 318 317 318 320 320 321 319 318 320 321 317 324
325 324 326 327 327 325 326 324 325 327 329 327 327 327 326 327 330 332 332 329 326 325 324 324 324 321 319 320 321 322 323 321 317 317 317 318 321 320 319 322 323 322 320 317
327 327 324 323 323 325 325 324 325 326 327 328 326 326 326 327 328 329 332 330 327 325 324 324 324 321 320 320 321 321 323 320 317 317 317 317 319 319 319 320 322 322 322 320
327 325 324 325 323 323 324 324 325 325 326 326 326 326 327 326 326 330 332 330 327 325 325 325 324 322 320 320 321 322 322 320 319 319 319 317 316 319 319 319 321 318 321 320
325 325 325 325 323 322 325 324 325 326 326 326 327 326 326 327 329 330 331 329 328 327 325 325 325 323 320 320 321 322 322 321 320 319 320 317 315 317 319 319 320 322 320 321
327 326 326 325 324 325 324 324 324 324 325 325 325 326 326 326 327 328 330 330 329 328 326 325 325 324 322 320 321 322 322 321 320 320 320 318 315 315 318 319 321 319 318 319
326 329 325 328 329 324 326 326 324 324 325 325 326 325 325 325 327 328 329 330 330 330 328 326 326 325 323 321 321 321 322 321 319 319 319 319 316 315 317 318 320 317 317 318
322 328 327 327 332 328 326 326 325 326 326 325 326 327 326 326 330 328 330 330 330 330 329 328 327 326 325 322 321 322 322 321 320 319 319 319 317 316 317 318 317 312 313 315
321 324 328 329 333 327 328 327 327 329 327 327 326 327 327 329 329 326 328 330 329 330 330 329 328 327 325 324 322 322 322 322 320 319 318 319 318 316 317 319 312 309 310 317
323 324 324 328 328 328 328 329 329 328 332 329 329 329 329 329 329 330 331 330 330 331 329 329 328 327 327 325 323 322 322 322 321 320 318 319 319 315 316 311 309 309 311 312
321 322 324 324 325 330 328 328 328 328 327 328 330 331 330 331 330 330 330 330 330 330 330 328 328 328 328 326 324 323 322 322 321 321 319 320 319 316 316 310 309 311 307 315
318 319 321 322 323 325 325 327 329 330 328 329 330 330 330 331 331 330 329 330 329 329 331 329 328 328 328 327 325 323 324 322 321 322 321 321 320 318 315 317 315 317 315 316
316 317 318 320 321 321 321 321 326 329 330 329 328 328 328 329 329 329 329 329 329 329 329 329 328 328 328 327 327 326 324 323 321 322 323 322 321 315 314 314 317 316 315 317
317 317 317 318 319 321 321 321 321 328 328 328 328 328 328 328 328 328 329 329 329 329 329 329 328 328 328 327 327 326 325 324 321 321 322 322 320 320 318 316 316 314 316 312

GFSCGP_850_thetae_009.txt.gz
Theta_e
321 326 327 327 328 328 329 330 329 329 329 329 329 329 329 328 327 327 326 325 326 326 324 325 326 326 324 323 327 329 327 328 327 329 330 329 330 329 327 326 324 324 324 324
326 327 327 327 327 328 329 330 329 329 329 330 330 329 329 327 326 326 326 326 327 327 325 325 327 326 324 324 325 328 327 328 329 331 331 329 328 328 327 326 326 324 325 325
326 327 327 327 328 329 329 329 329 329 329 330 329 329 328 328 327 326 325 326 327 327 326 325 327 327 325 323 326 327 328 330 331 331 331 331 328 329 327 327 328 326 324 324
326 327 328 327 328 329 330 328 328 328 329 330 328 329 328 328 327 326 326 326 326 327 326 326 327 327 325 323 326 326 329 331 332 326 331 331 329 329 329 325 327 328 326 325
324 326 327 327 328 329 329 328 327 328 328 329 328 329 328 328 326 326 326 326 327 327 327 327 327 327 324 322 326 327 329 331 332 331 331 331 331 328 327 326 325 328 327 327
323 325 327 327 328 328 328 327 327 327 328 329 328 328 328 327 326 325 326 326 329 328 327 326 327 326 323 322 325 327 328 328 331 331 330 331 330 329 328 327 324 326 327 327
323 325 327 328 328 328 326 327 328 330 331 330 328 328 328 326 325 325 326 327 329 328 327 327 327 325 323 323 324 327 327 326 328 330 330 330 331 329 326 327 324 326 327 328
325 326 327 328 328 327 326 326 328 330 331 330 329 328 328 326 325 325 326 329 330 328 327 327 326 325 323 323 324 326 326 326 327 328 329 329 330 330 329 325 325 326 327 328
325 327 326 327 327 327 327 327 327 328 328 329 329 329 327 325 325 327 329 330 331 328 326 326 326 325 322 323 324 326 326 325 326 326 328 328 329 330 328 326 325 323 328 328
327 328 326 326 327 326 327 327 328 328 330 332 330 329 327 327 327 331 332 332 330 327 326 326 326 326 322 322 325 326 326 324 324 325 326 326 327 330 330 328 328 327 324 328
325 328 328 327 328 327 325 326 328 329 328 330 331 329 329 327 328 330 333 332 328 327 326 326 326 326 321 322 324 326 326 322 323 323 324 324 325 328 328 329 327 326 326 325
326 328 330 328 328 327 327 326 328 329 330 329 330 330 328 327 327 330 332 331 328 327 326 326 326 325 321 322 324 325 326 322 321 322 323 323 324 326 328 329 328 327 328 325
327 328 331 330 328 328 327 326 326 329 330 330 330 329 328 328 328 329 331 331 328 327 326 326 326 324 321 323 323 324 326 323 320 319 322 323 323 325 325 326 321 330 330 328
328 330 330 330 330 327 327 326 327 328 331 329 329 329 329 328 329 330 330 331 329 327 327 327 326 324 321 323 323 323 325 323 319 319 320 323 322 323 326 326 324 326 328 329
330 332 328 328 327 327 327 326 325 327 328 330 329 329 329 328 329 329 331 331 330 328 327 327 327 324 321 323 322 323 324 322 318 319 319 322 322 322 326 326 325 323 322 324
331 331 328 327 326 326 327 327 326 325 327 327 328 329 328 328 327 329 331 331 331 329 327 327 327 324 321 322 322 323 324 322 319 319 319 320 321 320 322 325 326 324 323 322
328 330 330 328 325 325 328 327 327 326 325 327 328 329 328 328 328 328 330 330 331 329 328 327 327 326 322 322 323 323 324 322 320 320 320 318 320 321 321 322 322 323 323 323
332 332 328 329 327 329 325 326 326 327 326 327 327 328 328 327 327 327 327 330 330 330 328 327 328 326 323 322 323 323 324 322 320 320 320 318 318 321 321 321 322 324 325 323
330 333 328 330 330 326 325 325 326 326 326 327 328 328 328 326 326 327 326 330 330 330 330 327 328 328 324 323 323 324 323 323 321 321 321 319 316 319 321 322 324 326 327 326
326 332 332 328 329 328 326 325 325 326 327 327 327 327 327 326 327 328 327 328 330 330 331 329 328 328 326 323 323 324 324 323 321 321 321 320 317 318 320 322 325 326 326 326
327 330 331 326 330 327 326 327 326 327 328 330 325 326 327 328 327 327 327 328 330 330 331 331 329 329 327 324 323 323 324 323 322 321 321 320 318 318 319 320 323 324 324 322
323 329 329 328 326 327 327 327 328 329 328 327 325 326 326 326 326 327 329 331 331 330 331 331 329 329 329 327 324 324 323 324 323 321 320 321 320 318 319 320 322 322 321 321
325 325 327 328 327 329 327 327 327 328 329 329 329 327 327 327 328 328 329 331 330 330 331 331 331 330 330 328 326 325 323 323 323 322 321 321 321 319 321 322 322 320 319 320
323 324 326 328 330 329 328 328 328 327 328 328 328 329 330 329 329 330 331 331 331 331 332 331 331 331 331 330 327 327 326 324 323 322 321 321 322 319 321 322 322 320 319 319
321 321 324 325 325 326 326 327 328 328 328 331 331 329 329 330 330 330 330 330 331 332 332 331 331 331 331 332 330 328 327 325 323 323 322 322 322 320 320 321 320 319 318 318
316 319 321 325 324 324 325 324 325 327 329 329 329 328 329 329 329 329 329 330 331 331 331 332 331 331 331 332 331 330 328 326 324 323 323 322 322 322 319 320 320 318 319 318

GFSCGP_850_thetae_012.txt.gz
Theta_e
318 325 326 326 327 325 327 328 329 331 331 330 331 332 330 330 329 330 330 328 327 327 326 326 326 327 327 325 326 330 329 329 326 331 329 330 327 329 327 327 326 324 323 323
319 324 324 325 327 326 326 328 329 329 329 329 329 330 330 330 330 329 328 328 327 328 326 327 326 328 326 326 326 329 329 330 327 331 329 327 329 328 327 329 328 325 327 325
320 320 322 325 327 326 327 329 330 329 329 329 329 331 331 330 329 328 327 326 327 329 327 327 327 328 327 326 324 329 329 331 330 330 331 330 329 328 328 326 329 327 325 325
319 320 322 326 326 327 329 328 328 329 329 329 329 332 332 330 330 329 326 327 326 329 328 327 327 329 327 326 325 328 330 333 333 326 331 330 329 327 329 327 326 327 326 326
320 321 322 327 327 327 328 328 329 329 329 330 328 329 329 330 331 329 326 326 327 329 328 328 328 329 328 325 327 328 331 333 333 331 328 331 328 328 328 326 326 328 325 327
320 321 324 325 327 327 327 328 329 328 328 331 329 330 330 330 328 326 326 327 328 329 329 328 329 329 327 324 327 329 330 331 333 333 331 330 329 326 327 325 327 327 328 326
321 321 323 325 327 328 328 331 330 331 329 330 328 329 331 331 327 326 326 328 330 329 329 329 328 328 326 324 326 329 329 329 330 332 331 331 329 325 325 326 326 328 328 328
323 322 322 325 327 328 329 331 330 330 331 329 331 330 329 328 327 326 325 328 330 329 329 328 328 328 325 324 325 328 328 328 329 329 331 330 330 327 324 324 326 328 328 328
324 323 324 324 326 328 329 330 328 329 328 329 330 332 330 328 326 326 327 331 332 330 329 329 328 326 325 325 324 327 327 327 327 328 330 329 330 328 329 328 324 328 328 327
326 327 325 325 327 328 330 328 328 328 330 332 329 330 329 329 327 329 333 332 332 330 329 328 328 326 325 324 325 326 327 326 326 327 328 328 331 330 328 327 324 325 328 327
327 330 327 327 328 328 328 329 328 329 328 331 333 331 334 331 331 335 334 333 332 330 328 328 327 327 323 324 326 326 327 325 325 325 326 327 329 329 329 327 326 323 326 327
326 328 330 328 327 328 329 329 330 330 333 330 331 330 332 332 330 330 333 333 330 328 328 328 327 327 323 323 326 326 327 323 324 324 325 325 328 329 329 326 327 324 326 326
326 328 332 331 330 329 329 329 329 333 334 334 330 330 332 330 328 329 332 332 329 328 327 327 327 327 322 323 325 326 327 324 321 322 324 324 326 327 328 324 328 326 326 326
328 328 330 333 331 331 332 329 328 329 333 330 330 330 332 330 329 329 330 331 330 328 328 328 327 326 322 323 325 325 327 324 321 321 323 323 325 326 326 324 329 329 327 327
331 328 330 329 328 329 329 328 328 329 330 330 330 329 330 332 330 330 331 332 330 329 328 328 327 326 322 324 324 324 326 325 321 320 321 323 323 327 327 325 324 328 327 325
332 329 328 327 326 328 328 328 328 327 327 328 329 330 331 330 330 329 332 332 331 329 328 328 328 326 322 324 324 324 325 324 320 320 320 323 323 325 327 326 324 322 323 324
332 331 331 329 328 328 331 330 329 328 328 329 329 330 330 330 330 329 333 332 331 330 329 328 328 327 323 324 324 323 325 324 319 320 320 322 321 322 326 326 325 323 322 323
330 334 331 329 331 332 328 329 328 329 329 328 328 329 330 331 328 327 331 331 331 331 330 329 329 328 324 323 323 323 325 324 320 321 320 320 321 322 323 323 324 324 324 324
329 334 331 331 331 329 327 327 328 330 331 330 328 328 328 328 328 329 328 328 331 331 330 329 329 328 324 323 324 324 325 324 321 321 321 319 320 322 321 322 322 322 323 323
328 332 329 332 331 331 330 327 327 328 330 330 330 330 330 329 329 329 327 327 331 330 331 330 329 328 326 323 323 324 324 324 322 321 322 320 318 321 322 322 324 323 324 324
328 331 329 331 334 329 328 327 327 329 329 330 329 330 331 332 329 328 328 327 332 331 331 330 329 329 327 324 323 324 324 325 323 322 322 321 318 318 321 323 323 324 327 326
327 329 331 331 332 329 327 327 329 334 330 331 329 329 328 328 328 328 329 329 331 331 331 331 330 329 328 325 324 324 325 325 324 322 322 322 320 317 320 321 322 323 323 326
325 328 329 329 330 334 329 332 329 328 331 328 330 328 328 328 327 327 329 330 331 331 331 332 331 331 329 327 324 324 325 325 324 322 321 321 321 319 319 320 321 322 320 324
322 322 326 331 331 329 327 327 329 327 329 328 328 328 327 327 328 327 327 331 333 332 332 332 331 332 331 329 327 325 325 325 324 323 322 321 321 320 320 319 319 319 318 320
319 321 324 325 329 330 327 327 328 329 329 329 329 329 328 328 328 329 329 330 331 331 332 332 332 332 331 330 328 327 326 324 324 323 323 322 321 321 321 320 320 316 319 311
315 318 322 327 321 328 328 328 325 329 329 330 331 330 329 330 330 330 331 331 331 331 332 332 332 333 333 333 331 329 327 326 325 324 324 322 323 322 320 320 323 320 321 317

GFSCGP_850_thetae_015.txt.gz
Theta_e
319 316 317 321 320 323 322 323 325 327 327 327 329 329 329 328 327 328 329 328 328 329 326 325 325 325 326 326 323 321 328 327 327 327 330 327 327 327 327 326 329 324 324 323
315 315 316 322 322 322 325 324 324 325 326 329 329 329 328 328 327 328 328 328 328 328 325 325 325 326 326 326 323 325 328 328 327 330 330 330 329 328 328 327 327 327 325 325
315 316 317 321 323 324 325 326 325 325 326 327 327 326 327 329 328 328 328 328 328 327 326 325 326 326 327 326 325 325 329 328 330 328 329 330 328 327 328 328 326 327 325 324
314 316 318 319 322 323 324 326 325 325 327 327 328 326 327 326 325 326 327 328 328 326 326 326 326 327 328 326 325 327 328 330 333 328 327 329 329 328 328 328 326 326 325 325
316 316 317 318 320 322 323 326 325 326 327 326 326 325 325 327 327 326 325 327 328 327 326 326 327 328 328 327 324 328 328 330 331 331 329 329 325 327 327 326 326 327 326 325
318 318 317 317 319 322 324 325 326 326 327 327 327 326 326 326 327 325 325 328 329 327 327 327 327 328 328 326 324 327 330 331 332 332 329 329 325 325 325 326 327 327 328 326
319 318 318 319 319 320 325 324 325 326 325 325 326 326 325 326 327 324 326 329 329 328 327 328 328 329 328 325 324 328 330 328 330 331 329 328 325 324 324 327 328 328 327 327
318 319 319 319 319 321 322 324 325 328 329 326 326 326 326 326 326 326 329 329 329 329 328 328 329 329 326 324 325 327 329 328 329 329 330 329 327 326 327 325 328 327 327 327
317 319 320 320 320 321 323 325 324 325 327 325 325 329 328 325 324 323 329 330 329 329 328 328 328 328 326 324 324 326 328 327 328 328 328 329 329 327 327 326 327 327 327 326
319 320 320 320 320 321 322 325 327 324 326 326 327 328 330 326 324 328 330 330 329 329 329 328 328 327 325 324 324 327 327 327 327 327 328 329 330 327 328 325 325 327 327 326
318 322 323 321 320 320 321 324 325 322 322 324 327 327 326 324 327 329 330 331 330 329 329 328 328 326 325 324 324 326 327 326 326 326 326 327 329 329 327 326 324 326 328 324
318 321 321 324 322 321 322 324 324 325 327 324 325 328 326 328 330 329 331 331 330 329 329 328 327 326 324 324 325 325 326 324 325 325 325 326 328 328 327 326 325 327 326 327
318 319 323 326 323 322 324 325 325 324 324 327 328 327 326 327 328 332 331 331 330 328 328 328 327 326 324 323 326 325 326 324 322 324 324 325 326 328 326 326 326 326 327 328
322 318 319 325 325 324 324 326 325 325 326 326 329 326 329 327 327 329 331 330 329 328 328 328 327 327 323 323 324 326 326 325 321 322 323 324 325 325 325 328 327 326 326 328
321 319 323 322 324 325 326 327 326 325 327 327 326 328 326 325 325 328 330 329 329 328 328 327 327 326 322 323 324 325 326 325 321 321 321 322 324 326 324 327 328 325 326 329
315 322 320 322 324 324 326 327 326 326 325 326 326 325 325 328 328 329 330 329 328 328 328 327 327 326 322 323 324 324 325 325 321 320 320 320 323 327 326 322 325 323 323 328
315 326 322 321 322 324 324 327 326 326 325 324 324 324 327 328 326 326 330 329 328 328 328 328 327 326 323 323 323 324 325 325 320 320 320 319 323 327 326 323 321 323 324 323
314 319 324 322 321 323 325 325 327 326 326 324 324 324 325 326 329 330 331 330 329 328 328 328 327 327 324 322 323 323 324 325 321 320 319 319 321 323 326 325 323 323 323 322
315 318 326 324 323 325 327 327 327 326 325 325 323 325 325 327 328 328 331 332 331 329 329 328 328 328 325 322 323 323 324 325 322 320 320 319 319 321 325 325 324 324 323 322
319 321 325 326 323 323 325 326 325 325 326 325 324 323 323 325 325 323 332 332 331 330 329 328 328 328 327 323 323 323 324 325 322 320 321 320 319 321 321 322 322 323 323 320
323 325 327 327 326 324 324 327 326 325 323 325 326 326 325 323 325 327 327 331 330 330 330 329 328 328 327 324 322 323 323 325 324 320 322 320 318 321 321 321 322 320 322 324
325 327 327 323 329 324 325 325 324 322 329 328 327 327 327 327 326 328 327 329 330 330 330 329 329 328 327 326 323 323 323 324 324 321 321 321 319 318 321 321 322 322 322 324
326 324 325 326 323 325 327 327 328 327 327 329 328 328 327 327 327 327 327 331 330 330 331 330 329 328 327 327 325 323 323 324 324 322 322 322 321 318 317 319 321 322 320 325
318 315 323 323 323 322 325 326 326 328 327 327 327 329 327 328 327 327 326 331 331 331 332 330 329 329 328 327 327 326 323 323 324 323 322 322 321 320 318 319 319 319 318 323
314 314 321 322 319 320 321 321 324 327 330 329 327 328 327 326 326 326 331 331 331 331 332 331 329 329 329 328 328 327 323 323 325 323 323 322 321 321 320 318 318 318 316 314
314 316 319 321 315 318 316 315 326 326 327 329 329 330 327 326 326 326 329 332 332 331 332 332 331 331 330 329 329 328 325 323 324 324 323 323 321 321 321 319 319 320 317 314

GFSCGP_850_thetae_018.txt.gz
Theta_e
315 318 318 320 318 319 321 321 321 322 323 324 324 324 326 326 326 324 326 327 327 327 327 325 324 325 325 326 325 321 315 319 320 323 328 327 329 329 328 328 327 328 325 323
314 315 316 316 317 317 318 320 322 322 322 322 323 325 326 325 325 325 326 327 326 326 327 326 325 325 326 325 325 319 319 320 323 326 328 329 329 328 327 327 327 326 327 325
314 315 318 318 317 320 320 320 320 324 324 323 323 324 325 326 326 327 327 326 325 327 326 326 326 326 326 326 324 319 322 322 326 328 325 328 328 327 327 328 327 326 326 324
313 315 317 317 316 316 321 322 322 323 325 324 323 325 322 324 324 324 325 325 326 327 326 325 326 326 326 326 324 320 325 324 329 330 327 328 325 326 327 327 326 327 326 324
313 314 315 315 315 316 320 322 322 324 325 323 324 323 322 322 325 324 323 325 327 327 325 325 326 326 326 326 324 323 325 325 330 331 329 328 325 325 325 325 326 326 326 325
315 315 314 314 316 316 318 321 321 322 323 323 324 324 326 323 325 325 322 326 326 325 325 326 326 326 327 326 324 324 324 327 331 331 330 327 324 324 325 326 327 328 328 326
316 315 316 315 315 317 318 318 320 322 324 326 324 325 326 323 323 324 324 326 326 326 326 326 327 327 327 326 324 324 326 327 331 329 328 328 327 326 325 327 327 327 327 326
315 317 317 317 316 315 315 317 321 325 325 325 323 324 325 323 323 325 327 327 326 326 326 327 327 328 327 325 324 324 327 327 329 330 327 327 327 327 326 324 328 327 327 326
315 316 318 318 318 316 316 316 319 322 324 323 323 324 325 324 324 325 326 327 327 327 327 327 328 328 327 325 323 324 329 327 328 328 326 328 329 327 325 324 327 326 326 326
316 316 317 318 317 317 316 319 322 319 325 325 324 325 327 323 326 326 326 325 327 327 327 328 328 328 326 325 323 326 328 327 327 326 327 329 329 328 326 324 327 326 327 326
316 316 319 317 317 317 316 317 321 321 321 324 324 324 321 323 322 327 326 326 327 328 328 328 328 328 326 324 323 326 327 326 326 325 327 328 328 328 326 325 326 327 324 327
316 314 316 318 318 318 317 316 320 324 323 321 322 322 323 321 326 327 326 327 328 328 328 328 328 327 325 324 324 325 326 325 325 324 325 327 327 328 326 325 326 326 325 326
317 316 316 320 319 320 317 318 321 319 320 322 322 322 323 325 326 329 328 327 328 328 328 328 328 326 325 324 324 324 326 325 324 322 324 326 326 327 326 326 326 326 326 326
313 317 316 319 321 320 320 319 322 322 322 322 323 324 325 326 329 327 328 328 328 328 328 328 327 326 325 323 323 325 325 325 322 322 323 323 324 325 327 327 325 328 328 328
310 317 316 317 319 321 322 321 322 324 322 324 323 323 324 323 329 328 329 328 327 328 328 328 327 326 325 323 323 325 324 326 322 321 322 321 324 325 328 327 326 328 328 328
309 314 318 317 318 318 319 321 323 324 323 322 323 324 323 323 329 329 328 327 326 327 328 328 327 326 326 323 322 324 325 326 321 320 320 319 325 324 325 327 323 326 328 328
310 314 317 318 318 318 318 320 323 324 324 324 323 321 321 324 326 329 327 327 327 327 327 327 327 327 326 323 322 324 325 326 321 320 320 319 326 326 323 322 323 323 323 325
310 312 313 319 318 320 321 320 322 324 323 324 321 321 323 324 326 329 329 328 327 327 327 327 327 327 326 323 322 324 325 325 322 320 320 318 325 326 325 321 322 324 323 321
310 311 315 321 319 319 320 323 322 323 323 321 323 320 321 325 325 327 329 329 329 328 328 327 327 327 326 324 322 323 324 325 322 320 319 319 318 326 326 323 322 323 322 320
310 311 318 322 319 321 319 324 322 322 325 321 321 321 320 321 324 321 329 329 329 329 328 327 327 327 326 324 322 323 324 325 323 321 319 319 316 320 325 324 323 323 322 318
316 316 317 320 324 321 320 322 323 325 325 322 322 322 321 321 324 326 330 330 330 330 329 328 328 327 327 324 322 323 323 324 324 323 319 320 318 317 320 323 323 323 322 319
320 324 322 322 324 323 322 323 324 323 322 324 324 323 324 326 326 326 329 330 330 329 328 328 328 327 327 325 323 322 323 322 324 323 319 321 319 318 320 318 321 321 321 321
318 318 318 322 322 318 318 319 317 326 327 326 324 325 325 325 327 326 327 331 331 330 330 329 328 328 327 325 324 323 322 322 324 323 320 321 320 318 318 319 319 320 318 323
312 313 314 319 317 313 316 315 315 317 327 328 326 326 326 325 325 328 327 329 331 330 330 329 328 328 327 326 325 326 323 322 323 323 320 321 321 319 318 318 318 319 319 317
312 312 314 317 314 313 315 314 315 315 320 326 329 327 326 326 326 326 327 327 329 330 330 330 329 328 328 327 325 325 323 322 323 324 321 321 321 320 319 318 317 317 317 315
313 312 315 317 313 312 313 313 314 313 317 325 328 329 326 326 326 326 327 328 329 330 330 330 330 329 328 327 326 326 324 323 322 323 322 322 322 321 320 319 318 318 317 317

GFSCGP_850_thetae_021.txt.gz
Theta_e
312 313 319 318 319 319 318 319 320 320 321 321 320 321 322 322 323 323 324 325 326 325 325 324 322 323 324 325 325 325 321 317 317 322 326 327 326 327 327 328 328 328 327 326
312 313 316 320 319 319 318 317 319 320 321 320 320 321 321 321 322 324 325 326 324 324 325 326 323 324 324 325 325 323 318 318 321 324 323 323 327 327 327 327 328 327 327 326
312 314 315 319 319 319 318 317 318 319 320 322 321 323 322 322 322 324 326 326 326 326 326 325 323 324 325 325 325 322 318 319 324 325 324 325 325 325 327 327 328 326 326 325
310 312 315 316 318 315 316 317 318 319 320 320 321 323 322 321 322 321 323 324 325 325 325 326 324 325 326 325 324 321 320 320 326 326 326 326 325 324 325 326 326 326 326 324
312 312 313 315 316 316 317 318 320 321 321 322 323 322 322 320 323 321 320 324 324 325 326 326 325 326 326 325 324 320 323 322 325 328 328 326 324 324 325 326 326 327 327 325
312 314 313 314 317 317 316 318 318 319 319 322 322 322 322 321 322 323 322 323 325 325 326 326 326 326 326 326 323 323 323 322 327 328 328 326 325 326 324 327 327 327 327 325
313 313 313 314 313 314 314 313 315 318 319 323 321 322 323 321 321 322 322 323 325 325 326 326 326 326 326 325 324 324 322 324 328 328 328 326 326 326 325 325 327 327 327 326
314 314 314 314 313 313 314 315 318 321 323 323 321 324 324 322 322 323 324 323 325 324 325 325 326 326 327 325 324 323 324 325 326 328 327 326 328 326 325 325 327 327 326 326
314 314 316 315 315 314 313 315 316 318 321 321 321 322 322 323 323 322 324 324 325 325 325 326 326 327 327 325 324 322 326 327 326 328 325 328 327 327 325 324 326 326 326 326
314 313 315 315 315 314 312 313 315 315 322 324 323 323 324 324 324 325 324 323 325 326 326 326 326 327 327 325 323 323 327 326 327 326 326 328 328 327 325 325 327 326 326 326
314 314 317 315 315 315 313 314 314 314 317 321 323 323 319 321 323 325 323 324 325 326 326 326 327 328 327 324 323 324 328 326 326 325 326 327 327 327 325 326 326 325 326 326
312 312 315 315 315 316 315 314 314 319 319 319 320 322 321 319 320 323 323 325 326 326 327 327 327 328 326 324 323 324 326 326 325 324 325 327 327 327 326 326 326 325 326 326
312 315 316 314 317 316 315 315 315 314 317 320 323 323 319 321 320 324 323 325 326 326 327 327 328 327 326 324 323 324 326 325 324 322 323 325 325 327 326 326 326 325 326 325
310 314 317 316 317 317 316 316 315 315 317 319 321 322 324 325 325 325 325 325 326 327 327 328 328 327 326 324 323 324 325 325 324 321 323 324 324 325 326 326 327 326 327 325
308 311 316 318 316 316 319 316 316 318 318 320 321 321 322 323 324 325 326 326 326 326 327 328 328 327 325 324 323 324 324 325 323 321 322 322 324 327 327 326 328 328 328 326
307 309 314 319 318 316 316 318 317 318 319 320 320 320 319 321 326 326 326 325 325 326 327 328 328 327 325 324 323 324 324 325 323 321 321 321 324 327 327 323 327 328 328 328
309 310 309 317 318 316 316 316 317 318 320 321 322 320 319 322 327 326 326 326 326 327 327 328 327 327 326 325 322 323 324 324 324 321 320 318 324 323 325 323 325 326 328 328
309 309 310 312 317 316 317 316 316 318 320 320 320 319 321 321 327 328 330 329 327 327 328 328 327 327 326 325 322 322 324 324 325 321 320 318 325 324 321 322 323 322 321 328
308 308 310 316 317 316 318 320 316 317 319 320 321 319 320 323 325 327 329 329 330 329 328 327 327 327 326 326 323 322 324 324 325 321 319 318 321 325 322 321 322 321 321 328
312 308 310 317 318 317 319 319 319 319 321 319 319 318 319 321 324 322 329 329 329 329 328 327 327 327 326 326 323 322 324 324 324 321 319 318 318 325 325 322 321 320 321 328
311 311 312 314 317 321 318 317 321 322 322 323 320 319 317 322 325 327 326 329 330 330 329 328 328 327 327 326 323 322 323 323 324 323 320 319 317 319 324 324 322 321 318 322
314 317 314 315 321 323 317 318 321 318 318 324 324 320 321 325 325 325 327 327 328 329 328 328 328 327 327 326 324 322 322 321 323 323 320 319 318 316 322 324 323 322 319 318
313 312 315 317 323 314 314 313 313 314 314 320 324 327 320 323 324 324 325 327 328 329 330 329 328 327 327 326 325 323 322 322 323 323 320 320 319 316 317 320 321 321 320 317
311 311 314 314 319 316 313 313 312 314 313 314 324 328 325 322 325 325 325 327 328 329 329 329 328 327 327 327 326 325 323 322 322 323 321 320 320 318 318 319 319 320 318 317
309 311 312 313 314 314 314 313 312 313 314 316 321 328 325 324 323 325 325 326 329 329 329 329 329 329 328 327 326 325 323 322 322 322 322 319 321 320 319 318 317 318 317 312
311 311 313 314 314 312 312 312 312 311 313 319 323 328 325 324 324 325 326 326 328 329 329 329 329 329 328 327 327 326 324 323 322 322 323 320 320 321 319 319 319 318 317 317

GFSCGP_850_thetae_027.txt.gz
Theta_e
309 312 316 316 315 317 319 320 321 318 319 318 321 322 323 322 322 322 322 322 322 322 324 324 325 325 324 323 322 322 322 322 324 324 317 319 326 325 326 326 326 327 328 328
310 313 315 316 316 314 315 316 318 318 318 320 322 322 322 322 322 321 322 323 324 325 324 325 325 323 321 322 322 322 322 323 324 319 319 325 324 325 325 325 326 327 327 327
313 314 313 314 316 316 316 317 317 319 321 320 321 322 322 322 322 321 321 324 324 324 324 324 324 322 321 321 322 323 324 324 320 318 324 323 325 324 323 325 326 327 326 326
312 313 313 313 315 317 318 318 318 318 319 323 321 325 323 322 322 323 323 325 325 323 322 323 324 323 321 322 323 325 324 321 319 324 324 324 325 324 323 325 326 325 326 326
311 311 312 313 314 316 317 318 318 318 320 321 322 322 322 323 322 323 322 324 326 322 322 323 324 323 322 324 325 324 322 320 322 325 326 324 325 325 324 323 327 327 327 326
313 311 312 314 314 316 317 319 320 320 321 323 323 322 323 321 322 322 323 325 323 324 324 324 324 323 324 325 325 323 321 320 325 325 326 324 325 325 325 324 327 326 327 326
312 312 312 312 313 316 319 319 321 322 323 326 321 321 322 322 322 323 325 326 324 324 325 325 324 326 325 325 323 322 322 322 323 327 326 324 326 326 325 325 326 326 327 325
314 314 313 313 313 316 319 321 322 323 322 322 320 319 319 322 322 321 324 324 324 325 325 325 326 327 325 324 324 322 321 321 325 326 326 325 326 326 325 325 326 325 326 325
316 316 315 313 314 315 318 319 319 320 321 321 321 322 324 325 325 325 324 324 326 327 326 326 326 325 325 324 323 322 320 323 325 327 325 327 327 326 325 326 326 326 325 325
314 317 316 314 314 316 318 318 317 319 318 318 321 325 323 326 327 327 327 326 326 326 326 326 326 325 325 325 324 321 323 325 326 326 326 327 327 326 325 326 326 326 326 324
313 315 316 315 314 315 316 318 318 318 318 317 319 322 328 328 328 329 330 327 326 326 326 326 326 325 325 325 323 320 324 325 326 326 326 327 327 326 325 326 324 325 326 324
312 317 318 316 315 315 315 317 318 318 319 318 321 321 324 327 326 328 328 326 326 327 326 326 326 325 325 324 323 321 324 325 325 325 326 326 326 326 326 326 325 326 326 325
312 316 318 317 316 316 316 316 318 318 319 318 318 321 323 324 325 324 328 326 326 327 326 326 326 325 326 324 322 322 325 326 325 325 325 326 326 326 326 325 325 326 326 325
310 312 317 318 317 318 316 316 316 317 318 318 318 318 322 323 326 327 326 326 327 327 326 326 326 326 326 324 322 322 324 325 325 323 323 325 325 326 326 325 326 325 325 326
310 312 312 313 313 315 318 316 316 316 317 318 317 318 321 322 325 327 326 326 327 327 327 326 326 326 326 324 322 322 324 325 324 322 323 324 325 326 327 326 328 325 325 325
310 313 312 315 314 315 317 318 316 316 316 317 319 321 320 322 324 326 326 326 327 327 327 327 326 326 327 324 322 322 324 324 324 322 322 324 327 325 327 327 328 327 324 325
311 312 313 316 313 316 318 318 319 317 317 317 318 319 320 322 325 327 327 327 328 328 328 327 326 326 327 323 322 322 324 323 324 322 321 325 326 324 326 328 327 328 328 326
311 311 312 314 317 318 319 320 319 318 318 318 318 319 320 320 321 325 327 327 328 328 328 327 326 326 327 323 322 322 323 322 324 323 321 323 326 324 325 325 325 328 328 328
310 311 314 314 319 319 322 321 320 320 320 320 323 319 319 320 323 324 326 325 328 326 328 327 327 327 327 323 322 323 322 323 323 324 321 320 323 324 323 322 321 327 328 328
310 310 313 314 317 319 321 319 316 319 322 317 318 321 325 325 321 323 324 323 326 326 327 327 327 327 327 324 323 322 322 323 323 324 321 319 324 321 322 321 321 328 328 327
312 312 313 315 316 318 318 317 316 323 321 315 316 317 319 325 323 325 324 328 326 326 327 328 327 327 326 324 324 322 321 323 322 323 322 319 321 323 320 319 321 328 328 327
314 314 313 314 316 320 315 318 319 316 314 314 315 315 317 318 319 321 324 324 328 327 327 328 327 327 326 325 324 322 321 321 322 323 323 320 319 324 321 319 318 327 327 327
315 315 316 316 317 316 314 315 316 314 313 314 314 315 316 318 321 322 325 325 327 327 327 329 328 327 326 325 325 324 320 321 322 323 324 320 318 323 325 320 317 321 323 326
312 311 315 315 315 314 313 313 312 312 313 313 314 314 317 319 325 327 328 326 325 326 327 328 328 327 326 325 325 324 323 320 321 323 324 321 318 319 324 325 321 316 319 319
309 310 313 313 314 313 314 312 311 312 312 313 314 316 318 322 324 326 326 326 324 325 327 328 329 328 326 324 324 325 325 321 320 322 323 322 318 318 319 322 323 320 315 317
310 312 313 314 312 311 311 311 311 312 313 313 313 316 320 323 325 326 326 324 323 325 325 326 329 328 327 325 325 325 325 324 320 321 322 323 319 319 316 317 321 320 318 315

GFSCGP_850_thetae_030.txt.gz
Theta_e
313 314 317 319 320 323 325 327 327 326 327 325 325 326 326 326 326 327 327 326 325 325 327 329 327 324 325 324 323 326 327 327 328 330 330 330 329 330 332 332 332 333 331 330
316 315 318 318 319 320 321 324 326 326 326 326 325 326 328 328 328 327 326 326 325 326 329 330 328 325 324 324 324 325 330 326 326 330 330 330 331 332 332 332 332 330 330 328
317 317 316 317 319 320 320 321 323 324 325 325 325 325 326 328 327 327 326 324 324 324 329 331 330 330 328 326 326 328 331 326 328 331 329 325 327 327 330 332 332 332 329 328
315 317 317 317 317 320 321 320 320 321 322 323 323 329 329 329 329 328 326 326 324 327 329 331 331 331 332 331 330 333 331 324 325 321 330 331 329 329 331 329 331 330 329 328
315 315 317 318 318 318 320 320 321 321 322 323 324 326 328 329 329 328 328 326 324 329 329 331 331 332 331 331 332 332 326 326 326 322 332 329 329 331 331 330 329 330 329 328
315 315 316 318 318 318 318 319 321 322 323 326 325 326 329 330 330 329 329 324 324 331 331 332 331 331 331 331 332 332 330 332 328 331 327 327 331 331 331 331 332 332 329 328
315 315 315 316 317 318 318 321 323 325 326 327 326 328 329 329 328 329 326 325 330 331 332 331 331 331 331 331 332 332 332 332 332 332 331 329 331 330 332 331 331 330 328 327
315 318 316 316 317 318 319 322 324 325 329 329 327 328 329 325 327 325 324 324 331 331 332 332 331 331 331 331 331 331 332 332 332 332 332 331 331 332 332 331 331 331 328 327
316 318 317 316 316 319 320 323 323 326 328 326 328 327 325 324 324 324 324 323 330 331 332 332 331 331 331 331 332 332 331 331 331 331 331 332 332 331 331 331 329 327 328 329
316 319 318 316 317 318 321 322 324 325 329 329 326 325 326 326 326 326 329 328 329 332 332 331 331 331 331 332 332 332 329 330 331 331 331 332 332 332 331 330 330 328 327 329
315 317 320 317 317 318 320 322 323 325 325 328 327 325 324 325 327 330 331 330 332 332 331 331 331 331 331 331 332 329 329 330 331 331 331 331 332 331 331 331 330 329 328 330
314 318 321 319 318 319 319 321 323 323 325 323 324 322 327 328 331 329 331 333 332 331 331 330 330 331 331 331 330 329 329 329 330 330 330 331 332 331 331 331 331 329 329 329
313 318 322 321 319 318 320 320 322 323 325 325 323 321 325 328 330 330 332 331 331 331 330 330 330 330 331 331 329 327 328 327 328 327 329 331 332 331 332 331 330 330 329 330
312 317 320 321 320 319 319 320 321 322 323 323 322 321 326 328 329 331 332 331 331 331 330 330 330 330 330 330 327 326 327 327 327 326 328 330 331 331 331 331 330 330 330 329
314 316 318 318 318 318 321 318 319 321 322 322 321 321 322 328 326 330 331 331 331 331 331 330 330 330 330 329 326 326 327 327 326 326 328 330 331 331 331 332 331 329 331 328
313 318 317 318 317 318 320 320 319 319 320 320 320 320 321 322 321 326 330 331 332 332 331 330 330 330 330 328 325 326 326 326 326 326 327 329 331 331 333 332 331 328 326 328
314 315 318 318 318 318 320 320 320 319 319 320 321 321 321 323 323 326 329 331 332 332 331 330 330 331 331 328 326 326 326 326 326 326 327 329 331 331 332 332 333 328 326 325
312 315 317 319 318 321 323 323 321 320 320 320 320 321 321 322 323 324 326 330 331 332 332 331 331 331 331 328 325 326 326 325 325 325 325 330 330 330 332 332 332 329 328 328
311 313 319 320 321 319 323 324 323 322 323 324 324 322 321 320 321 322 323 326 329 332 332 332 331 331 332 328 325 325 326 324 325 325 324 328 329 329 330 329 330 332 329 329
310 312 315 319 321 321 326 322 321 322 327 322 323 324 325 326 326 328 329 331 329 331 333 332 332 332 332 328 326 326 325 324 324 325 324 326 328 329 329 328 330 332 331 330
312 313 314 317 322 323 321 321 320 326 325 321 321 322 323 326 327 327 326 327 330 331 332 333 332 332 332 328 326 326 325 325 323 324 324 324 328 328 328 327 330 332 332 332
314 314 314 314 320 324 318 321 325 321 319 319 320 322 322 323 324 325 325 326 328 332 332 333 332 332 332 329 327 325 325 325 323 324 324 324 328 326 327 326 331 332 333 332
319 317 318 317 321 317 316 318 317 317 318 319 319 320 321 323 325 326 329 329 329 331 331 332 332 333 332 329 327 325 325 325 324 324 324 324 326 327 326 326 330 332 333 330
314 314 316 318 318 317 314 314 314 315 317 318 319 320 322 325 326 328 330 331 331 328 331 332 332 332 332 329 327 326 326 324 325 325 325 325 325 327 328 325 325 328 330 328
310 310 315 317 316 317 314 313 313 314 315 317 318 319 321 324 328 329 330 330 330 328 330 332 332 332 332 330 328 327 326 324 325 326 326 325 324 325 329 328 323 322 326 326
312 313 315 316 313 314 315 313 313 314 313 315 317 318 320 323 327 329 332 332 330 328 329 331 332 332 331 330 328 328 327 325 325 326 326 325 323 324 325 328 327 324 322 323

GFSCGP_850_thetae_033.txt.gz
Theta_e
316 317 317 318 320 323 325 326 328 329 329 329 330 331 331 328 327 327 327 327 328 329 329 328 329 333 332 334 337 336 336 337 340 339 336 334 334 334 332 333 334 335 334 334
318 318 319 318 319 320 322 324 326 328 329 330 330 330 329 329 328 327 328 329 329 329 329 327 332 335 334 336 336 336 336 338 337 336 334 333 333 332 334 334 335 335 334 333
316 319 318 318 319 320 322 323 325 327 328 329 329 330 330 329 329 327 326 326 328 329 328 327 334 336 336 337 337 337 338 338 336 334 334 335 335 334 333 332 333 334 332 333
316 316 319 319 319 320 321 322 324 325 326 328 328 331 329 328 328 328 328 329 329 328 328 327 336 337 337 337 337 338 338 337 336 336 335 335 332 332 332 333 331 334 333 332
314 317 317 319 320 320 321 322 324 325 325 326 326 326 326 326 327 329 330 330 329 329 326 331 336 336 337 337 337 338 338 337 337 333 335 335 332 330 331 331 332 334 331 331
314 315 318 318 319 320 320 321 323 325 325 327 326 326 327 327 328 329 330 330 329 328 328 333 335 336 336 336 337 337 337 337 336 335 335 333 333 333 332 333 333 331 329 329
311 314 317 318 318 320 321 322 323 325 327 329 325 327 328 327 328 330 330 330 328 326 333 335 336 335 336 336 336 336 336 337 336 336 334 333 334 334 333 333 332 332 330 328
311 312 316 318 318 320 321 322 323 325 327 326 326 328 328 330 330 329 329 328 326 333 334 335 335 335 335 336 336 335 337 336 336 334 333 333 333 333 333 333 330 330 332 330
315 311 315 317 318 319 321 323 323 325 326 326 328 330 331 330 330 329 329 329 327 334 335 335 335 335 335 335 335 336 336 335 334 333 333 332 332 333 334 333 330 330 329 330
317 317 313 317 318 319 320 322 323 326 326 328 330 330 332 328 327 328 327 326 327 334 335 335 335 335 335 335 335 336 335 334 333 332 332 332 332 333 333 332 330 332 331 330
315 319 320 316 320 319 320 322 322 324 325 328 330 332 330 329 328 329 328 327 327 334 335 335 335 335 335 335 335 335 332 332 332 332 331 332 332 332 332 331 332 330 332 329
315 318 323 320 320 319 320 322 324 326 328 327 330 331 326 327 328 330 332 330 330 335 335 335 334 334 335 335 335 332 332 331 331 331 331 331 332 332 331 331 331 331 330 329
315 319 321 325 323 320 320 321 324 326 328 329 329 331 325 329 331 330 333 333 335 334 334 334 334 334 334 335 332 331 330 330 330 330 329 332 332 333 332 332 333 333 330 330
311 316 320 326 324 320 320 321 324 326 328 329 329 326 327 330 332 333 334 335 334 334 334 333 334 334 334 333 330 329 329 329 329 328 330 331 332 333 332 332 333 331 331 330
313 317 315 318 321 322 320 321 322 325 326 328 328 327 326 331 332 333 334 334 334 333 333 333 333 333 334 332 328 328 328 329 328 328 330 332 332 333 332 332 332 332 331 330
313 319 317 316 317 321 321 321 322 323 325 327 326 325 325 327 326 330 332 333 333 333 333 333 333 333 333 331 327 328 328 328 327 329 330 332 332 333 332 332 333 328 332 331
314 318 318 320 318 321 321 322 322 323 325 325 325 322 324 324 325 327 332 333 333 333 333 333 333 333 333 330 327 328 328 328 327 328 331 332 331 333 331 333 332 327 328 328
313 315 318 318 319 328 322 322 322 322 322 323 323 323 324 324 326 327 330 332 332 333 333 333 333 333 333 330 327 327 328 327 327 328 330 332 332 332 332 332 332 329 326 326
311 313 319 321 324 324 324 325 322 322 322 323 323 323 323 323 324 326 331 332 332 334 334 334 333 334 334 330 327 327 327 326 327 327 329 331 330 332 332 332 331 331 332 331
312 314 318 320 327 325 328 324 324 326 329 325 326 327 328 327 325 333 330 331 333 332 334 334 334 334 334 330 327 327 327 325 326 326 326 330 330 330 331 332 332 331 331 330
313 315 317 320 323 326 323 324 323 326 329 325 325 326 326 328 328 328 328 329 330 334 334 335 334 334 335 330 327 327 327 325 326 326 326 328 329 330 331 331 333 331 331 330
314 316 317 318 323 330 321 324 327 325 323 323 324 325 325 326 326 327 328 329 329 332 334 335 335 335 335 330 328 327 327 326 325 327 326 327 329 329 331 331 333 333 331 330
317 318 321 322 323 319 318 319 319 320 322 323 323 324 325 327 328 329 329 331 331 331 334 335 335 335 335 331 328 327 327 326 325 326 326 327 330 328 329 330 333 332 331 330
313 315 319 320 318 318 318 317 317 318 320 320 322 323 324 326 328 331 332 332 333 331 334 334 335 335 335 332 328 327 327 326 325 326 327 327 330 328 328 327 331 331 330 327
312 314 317 317 314 317 317 317 316 317 319 318 320 322 323 325 327 331 332 333 333 333 332 334 335 335 336 333 329 327 327 326 325 326 327 327 328 329 328 325 327 329 330 327
313 314 316 316 314 314 314 315 316 317 317 316 318 321 322 323 325 329 333 334 335 333 331 334 335 335 336 334 330 327 327 326 327 327 327 327 327 328 330 328 324 325 328 327

GFSCGP_850_thetae_036.txt.gz
Theta_e
313 316 317 317 319 321 325 327 327 328 328 329 330 331 331 332 331 331 331 329 328 329 328 328 329 330 332 331 330 332 337 338 339 340 343 343 338 336 334 333 333 334 335 336
314 317 319 317 317 318 320 323 325 327 326 328 329 330 331 332 332 331 331 329 329 328 331 331 330 333 333 332 332 335 336 337 339 340 341 338 336 335 334 333 335 334 335 334
314 316 317 318 318 318 320 321 323 324 325 326 327 329 331 331 331 331 329 329 329 329 327 327 330 333 334 334 334 335 336 338 338 340 337 336 334 335 334 335 335 332 333 332
314 315 315 318 319 319 321 320 320 322 323 326 325 329 332 331 332 332 331 330 329 328 329 330 330 336 336 336 335 337 337 337 337 337 336 335 335 333 333 332 334 334 335 333
310 314 316 316 318 319 320 320 321 322 323 325 325 327 329 330 330 329 330 328 328 328 330 331 336 338 338 338 338 339 338 334 338 335 336 335 334 333 333 333 332 332 331 330
310 310 313 317 316 318 320 320 320 322 324 327 328 327 328 329 330 329 330 328 328 331 330 330 338 339 339 339 339 339 337 338 337 335 336 335 332 334 333 333 333 333 331 328
313 311 311 313 316 317 318 323 324 324 324 326 326 327 328 329 328 329 330 329 329 330 331 337 339 339 338 338 339 339 338 338 335 336 337 334 335 328 328 330 332 330 332 329
316 317 311 312 314 318 319 322 324 324 325 325 324 327 328 329 328 328 330 329 330 330 336 338 338 338 338 339 339 338 338 338 337 337 335 334 334 333 333 333 332 329 330 328
315 316 316 312 314 317 319 319 322 325 324 324 326 327 328 329 330 331 330 330 331 335 337 338 337 337 338 338 338 337 338 337 337 335 334 333 334 334 335 332 330 329 328 327
311 314 315 317 313 315 319 320 321 324 325 327 326 328 330 332 333 331 332 332 330 336 337 337 337 337 338 338 337 338 337 337 335 334 333 333 330 332 331 331 330 330 329 331
312 314 316 318 315 315 319 319 321 325 324 326 328 328 331 334 332 330 331 329 330 337 337 337 337 337 337 337 337 337 337 335 334 333 332 331 330 332 332 330 331 330 329 330
313 316 318 317 318 316 319 320 322 324 327 326 326 328 331 329 329 330 331 328 334 336 337 337 337 337 337 337 337 336 335 333 333 333 332 331 330 333 331 330 330 329 328 329
313 317 318 318 319 320 320 319 322 325 328 327 326 328 330 328 328 330 333 329 335 336 336 336 336 336 337 337 336 334 333 333 332 331 331 330 330 332 331 332 331 330 329 329
311 314 316 320 321 322 323 321 321 324 326 326 328 328 328 328 331 333 335 335 336 336 336 336 336 336 336 336 334 332 331 331 331 330 330 331 331 332 331 331 330 330 329 329
311 315 315 314 315 318 320 323 321 323 326 327 328 328 328 331 333 336 337 337 336 336 336 336 336 336 336 335 331 330 330 330 330 329 332 331 332 331 331 331 331 330 328 329
311 316 317 316 314 315 318 320 322 322 324 327 328 329 331 333 332 335 335 336 336 336 335 335 336 336 336 333 330 329 329 329 328 330 332 332 333 333 331 332 332 330 329 330
312 316 318 318 315 316 319 322 323 324 324 327 329 330 330 329 327 334 334 335 335 335 335 335 335 335 335 332 328 329 330 329 328 330 333 332 331 331 331 331 331 329 329 329
313 314 317 319 317 318 320 323 324 324 324 327 326 325 327 328 327 332 334 334 334 334 334 334 335 335 334 331 328 329 329 328 329 330 333 333 331 331 331 331 331 327 326 328
313 313 318 320 321 318 321 326 326 323 327 328 327 324 324 325 332 333 332 334 334 334 335 334 335 335 334 330 328 328 329 327 329 330 332 333 332 331 332 331 331 328 329 327
312 313 317 319 323 326 328 326 326 326 332 327 329 329 330 329 328 333 330 331 332 335 335 335 335 335 334 330 328 328 328 327 328 329 332 331 332 331 332 332 330 330 330 330
312 315 318 318 322 319 322 323 325 328 329 326 327 327 328 330 329 329 329 330 330 333 335 335 335 336 334 330 328 328 328 326 328 327 331 331 331 332 333 331 330 330 330 330
318 317 319 318 321 322 317 322 328 326 325 325 326 326 327 327 327 328 329 329 331 331 336 335 336 336 335 330 328 328 328 326 328 327 328 330 331 331 332 332 331 331 330 329
319 316 319 322 322 318 318 319 320 321 322 323 324 325 326 328 329 330 330 330 331 332 334 336 336 337 335 331 328 328 328 326 327 327 327 330 330 331 329 333 331 331 329 330
314 314 317 319 314 316 318 318 318 319 320 320 321 324 325 326 328 331 332 332 332 332 332 336 336 337 336 332 329 328 328 326 326 327 327 330 329 331 328 334 330 329 333 332
313 314 316 316 314 314 314 315 317 318 319 319 320 321 324 325 327 330 333 334 334 333 332 335 337 337 337 333 329 328 328 327 325 328 327 329 329 330 327 331 332 332 330 330
312 314 315 315 314 314 314 314 315 317 319 318 318 320 323 324 326 327 331 335 336 334 334 335 336 337 337 334 330 328 328 327 326 327 328 328 331 329 327 327 330 329 330 327

GFSCGP_850_thetae_039.txt.gz
Theta_e
310 310 312 313 313 316 319 323 324 324 324 324 324 325 326 326 327 326 327 328 330 330 329 328 328 328 328 330 331 330 332 334 336 337 340 341 341 341 341 339 334 333 333 334
311 310 312 314 314 315 317 317 318 322 324 324 324 325 326 326 326 326 327 328 329 330 330 328 328 328 330 331 331 331 333 335 338 340 342 340 340 342 340 336 334 333 333 334
312 312 313 314 315 316 315 316 316 317 319 320 320 321 322 323 325 327 329 329 329 329 329 328 327 328 331 332 331 332 334 338 340 341 340 340 338 336 334 334 333 333 334 334
307 310 314 313 314 316 316 316 317 318 318 319 320 320 321 321 323 324 326 327 329 329 329 329 328 330 333 332 332 332 332 336 338 339 338 336 336 336 336 335 335 334 333 334
307 308 310 313 314 315 316 318 317 318 317 317 319 319 321 323 325 325 325 327 328 328 328 327 328 332 334 333 333 331 333 336 339 336 336 337 336 334 334 333 332 332 331 332
308 309 308 308 310 315 315 317 317 317 317 317 318 319 320 320 321 324 324 327 327 327 326 327 333 335 335 336 333 334 334 335 337 337 335 335 334 334 333 332 332 332 332 330
310 310 309 309 309 310 312 313 314 318 318 318 318 320 321 321 322 324 324 325 327 328 329 335 337 337 337 336 336 335 333 336 337 335 335 335 333 333 332 332 332 331 329 328
315 316 314 314 309 309 310 313 314 317 319 318 319 321 320 322 324 324 325 325 328 327 334 337 338 337 337 337 337 334 336 337 336 335 335 335 334 330 327 330 332 331 328 327
314 313 312 310 310 310 310 310 315 315 317 318 319 320 320 320 321 323 324 327 329 335 337 338 338 338 338 338 337 334 336 335 333 334 333 330 327 334 334 332 331 329 328 326
311 312 310 309 311 315 315 312 315 315 317 319 321 320 320 321 323 324 326 325 334 338 339 339 338 338 338 338 337 336 336 335 336 334 333 331 330 332 331 331 330 328 328 330
309 311 312 311 312 315 315 311 311 314 315 318 321 320 320 322 328 324 325 328 337 338 338 338 338 338 338 337 337 337 337 336 335 334 331 331 329 330 331 330 329 328 329 328
312 313 315 314 313 314 315 312 311 314 317 318 320 320 321 323 329 325 325 329 337 337 338 337 338 338 337 337 337 337 337 335 334 333 331 330 329 330 332 330 329 328 329 328
311 312 315 314 314 314 317 319 315 315 316 317 318 321 320 322 325 327 324 334 337 337 337 338 338 337 337 337 337 336 336 333 332 332 331 329 329 331 331 330 330 328 329 329
311 311 313 314 315 315 318 317 318 318 318 318 320 320 321 324 326 327 329 336 336 337 337 337 337 337 336 337 337 336 333 333 332 331 331 329 329 330 330 331 331 329 329 329
311 312 312 313 315 314 314 314 316 316 319 319 319 321 320 324 332 331 333 335 336 336 336 336 337 337 336 337 335 332 332 332 331 331 330 330 330 330 330 330 330 329 330 330
312 312 313 316 316 315 314 314 315 315 317 320 320 321 323 331 336 335 335 335 336 336 336 336 336 336 337 336 333 331 331 331 330 330 331 331 331 331 331 331 330 329 329 330
312 313 316 317 316 315 315 314 313 315 316 319 321 323 327 329 332 333 335 335 335 336 336 336 336 336 336 334 331 329 330 330 328 330 332 331 331 331 331 330 329 329 329 330
309 310 315 320 317 317 313 314 318 321 319 322 323 326 327 330 331 331 335 335 335 336 336 336 336 336 335 332 329 329 330 329 329 330 333 331 330 330 331 331 330 328 327 328
310 311 316 319 322 319 317 322 323 326 329 328 327 327 329 331 330 329 331 334 335 336 335 335 336 335 334 330 329 329 329 328 329 332 333 332 330 330 331 331 331 327 327 327
310 312 315 317 320 323 321 316 316 321 330 328 328 329 330 329 330 329 330 330 333 335 335 335 335 335 333 329 328 329 328 327 329 332 332 332 330 330 331 330 330 329 329 327
314 315 315 317 321 319 313 316 317 330 329 327 327 328 328 328 328 328 329 330 332 335 334 334 335 335 333 329 328 328 328 327 328 330 332 333 330 329 332 330 330 330 329 330
314 318 319 319 320 320 314 316 325 323 322 323 325 326 328 329 330 330 330 330 332 336 335 335 335 334 333 330 328 328 328 326 328 328 332 332 332 331 331 330 329 330 329 328
317 315 313 311 315 315 312 315 315 317 321 320 321 323 325 326 329 332 331 331 332 332 336 337 335 335 333 330 328 327 328 326 328 327 331 331 331 330 330 330 329 328 329 328
313 313 317 314 310 312 314 314 314 316 319 318 319 320 322 325 327 329 332 333 333 332 330 335 337 335 333 331 328 326 328 325 328 327 330 330 330 331 327 330 328 328 330 329
313 314 314 315 314 313 313 313 314 316 316 318 318 318 320 323 325 326 328 333 335 335 333 334 337 336 334 332 329 327 328 325 327 326 328 330 329 330 326 328 329 330 331 331
312 313 313 314 312 312 311 312 313 315 315 315 317 318 319 322 324 324 326 331 333 335 335 334 338 336 335 334 331 327 329 325 327 327 327 328 328 330 325 331 332 333 330 331

GFSCGP_850_thetae_042.txt.gz
Theta_e
308 306 309 310 312 315 317 319 321 322 322 323 323 323 323 323 324 323 324 325 325 327 328 328 329 329 327 328 327 327 329 330 329 331 336 339 342 342 342 339 337 335 335 333
307 307 308 310 312 312 313 314 316 316 317 320 322 323 323 323 323 324 324 325 325 326 327 327 329 327 327 328 329 329 330 331 331 334 337 340 342 342 342 340 338 337 333 333
310 310 310 310 311 313 313 313 315 316 316 316 316 316 317 318 319 320 321 323 325 327 327 328 328 329 328 328 328 330 331 332 334 338 341 342 341 340 340 341 338 334 333 332
305 306 308 311 309 312 313 314 314 314 314 315 316 316 317 318 319 319 320 321 323 324 324 325 327 328 327 328 331 332 332 333 338 342 342 341 339 340 337 333 333 333 332 333
306 306 307 308 310 312 311 314 315 315 315 314 315 314 316 317 319 318 319 322 323 324 326 326 328 328 328 330 332 333 333 337 339 340 339 337 334 334 335 335 334 334 334 334
306 307 306 306 308 308 309 313 313 314 313 315 315 315 317 316 317 317 320 323 324 324 324 326 327 328 331 334 334 333 333 337 339 338 337 335 337 336 334 334 333 332 332 331
308 307 307 308 307 307 307 307 310 312 315 316 315 315 317 317 318 317 317 320 322 324 325 327 327 331 334 335 335 334 336 338 337 335 336 335 335 333 334 333 332 331 332 329
313 314 313 313 309 307 305 306 310 313 315 316 316 317 317 316 317 318 319 320 322 324 324 328 331 334 336 336 335 335 336 337 337 335 335 334 334 334 333 332 331 330 330 328
313 313 310 309 309 308 309 306 307 310 312 313 316 316 318 318 318 318 318 320 323 324 327 334 336 337 337 337 336 334 335 337 337 335 334 334 333 333 328 328 330 329 328 326
310 310 310 309 309 308 310 311 309 308 313 314 315 317 318 317 318 317 318 318 322 332 336 337 338 338 338 337 335 333 336 336 335 335 333 329 325 329 331 330 330 329 327 325
309 309 310 311 310 307 312 312 310 308 310 314 315 316 316 317 317 318 321 321 331 337 337 338 338 338 337 336 333 335 335 333 333 331 327 328 330 330 330 331 329 328 329 327
311 310 312 309 309 311 312 313 312 309 309 312 315 315 316 315 316 318 320 333 336 337 338 338 338 337 338 335 335 334 333 333 332 329 330 330 328 329 330 330 329 328 327 327
309 308 309 308 311 312 314 316 316 314 308 310 313 315 316 316 317 319 323 335 336 337 337 338 338 338 337 336 336 336 335 333 333 331 330 329 328 330 331 330 329 328 327 329
309 310 311 308 311 312 314 315 314 315 317 312 313 313 315 317 317 317 327 335 336 336 337 338 338 338 337 336 337 336 335 332 332 331 330 329 329 329 330 330 328 328 328 329
312 312 311 311 312 312 314 315 314 314 315 317 318 317 317 317 316 317 327 334 335 336 337 337 337 337 336 336 336 336 334 332 331 330 330 328 329 330 330 330 330 327 329 329
308 312 312 313 312 313 315 316 314 313 314 314 315 317 318 318 328 328 333 335 335 336 336 336 337 336 336 337 336 335 331 332 330 331 330 330 330 330 330 329 329 328 329 330
310 312 312 312 314 316 316 314 314 313 314 317 318 317 318 326 330 331 334 335 335 336 336 336 336 336 336 336 332 331 331 331 330 331 330 331 330 330 330 330 329 329 329 330
308 308 310 312 314 316 315 319 322 323 319 316 316 316 318 326 331 330 333 335 335 335 335 336 336 336 336 336 331 330 331 330 329 330 331 331 330 331 331 330 328 329 329 330
308 308 311 314 319 317 318 318 318 320 323 326 328 327 326 329 330 330 330 334 335 335 336 336 336 336 336 334 330 329 330 329 328 330 331 331 330 330 330 330 330 328 328 327
309 309 312 313 318 319 317 315 314 316 323 325 326 328 327 328 332 329 330 334 334 335 335 335 335 336 336 332 329 328 329 328 327 330 332 331 330 330 330 330 330 327 327 327
314 312 312 313 317 319 313 311 313 326 327 321 323 324 328 330 329 329 331 333 335 335 335 335 336 335 335 331 329 328 329 328 327 329 332 332 329 330 330 330 329 329 328 327
313 316 317 315 319 318 310 312 317 316 317 321 321 322 325 327 329 330 332 332 334 335 335 335 335 335 333 330 328 328 328 327 328 329 331 332 329 329 330 329 329 330 329 329
315 313 312 310 313 310 311 312 312 314 317 317 318 320 326 325 327 329 331 332 334 334 335 335 335 335 331 330 328 327 327 326 328 330 331 333 330 331 330 328 328 329 329 328
312 313 314 311 312 313 311 312 312 313 314 315 316 318 324 323 325 326 328 333 333 335 336 335 335 333 330 329 328 327 326 326 327 329 331 332 331 331 327 329 327 328 329 328
311 311 312 314 312 311 313 311 311 313 313 313 314 316 320 322 323 324 325 331 334 332 332 334 335 333 331 329 328 327 326 325 327 328 330 330 330 330 328 328 326 328 330 330
311 311 311 311 310 310 310 311 312 312 314 314 313 315 321 322 323 324 328 331 334 336 336 334 335 335 332 330 328 326 327 325 326 327 329 330 330 329 328 327 327 329 331 332

GFSCGP_850_thetae_045.txt.gz
Theta_e
307 306 308 310 312 314 314 317 318 319 320 322 322 322 322 322 321 321 322 322 323 324 325 325 325 326 327 327 328 328 327 328 329 329 329 332 332 335 338 340 340 341 342 341
306 308 309 309 310 311 311 312 313 315 316 316 317 320 318 319 320 322 322 322 323 324 324 324 324 326 327 327 328 327 328 328 329 330 331 333 334 338 341 341 341 341 340 337
305 307 309 309 309 310 311 312 313 314 314 314 314 316 316 315 315 317 318 320 321 322 321 323 323 324 324 324 327 328 328 328 329 331 334 337 341 342 341 341 339 336 335 334
304 304 306 308 308 308 309 311 313 313 313 314 315 316 314 315 315 315 316 317 318 320 321 322 322 323 324 325 327 329 329 330 332 334 337 339 341 342 341 340 339 337 335 333
304 305 306 306 307 309 308 309 310 312 313 312 313 312 314 314 315 315 315 316 318 319 320 321 321 324 325 326 329 331 332 333 334 337 339 342 342 341 340 339 334 333 333 332
304 306 305 305 306 306 308 308 310 310 311 312 313 313 313 313 314 314 314 316 318 319 320 322 323 322 325 328 331 333 334 334 337 341 341 340 337 336 334 333 334 333 334 334
306 306 306 306 305 306 306 304 308 310 311 314 313 313 314 314 315 315 313 315 317 318 319 320 321 323 325 329 333 335 334 335 338 339 337 335 334 334 333 333 333 333 332 331
313 312 307 310 306 305 303 304 307 312 314 312 314 315 315 315 315 316 316 316 318 318 320 320 320 325 327 333 335 335 335 336 338 337 336 335 336 335 333 333 332 331 331 329
312 313 310 309 308 307 308 305 305 306 308 310 313 314 315 315 315 315 314 316 317 318 319 320 323 328 332 336 336 335 337 337 335 336 335 335 334 333 332 332 331 329 329 328
309 309 309 310 309 307 307 309 305 304 309 312 312 313 316 315 315 315 314 314 318 321 320 321 328 333 336 337 336 337 337 335 335 335 334 333 333 332 330 329 329 329 328 326
308 308 308 309 309 306 308 311 311 305 306 311 312 313 312 314 315 315 314 316 320 323 326 330 334 336 337 337 336 336 337 337 336 335 334 331 327 327 329 329 330 328 326 326
309 309 311 309 307 308 308 311 310 310 309 309 311 312 313 314 312 313 313 317 327 331 333 336 337 338 337 336 335 336 336 335 335 333 325 326 329 329 329 330 328 327 328 325
310 307 309 307 310 311 311 312 311 313 311 312 310 311 312 311 312 313 313 318 332 335 336 337 338 338 337 335 335 336 335 334 330 325 329 328 328 329 330 330 328 327 327 326
309 310 308 308 309 310 311 312 314 314 313 314 314 312 311 311 313 315 315 323 334 335 336 337 338 338 337 334 335 332 332 331 327 327 330 328 328 329 329 330 329 327 328 328
310 312 310 309 310 310 311 312 312 314 314 315 314 314 313 314 315 316 318 317 333 335 336 337 338 337 336 334 334 333 332 329 330 328 329 328 328 329 329 329 328 328 328 328
307 307 310 310 311 312 312 312 312 313 314 313 314 314 312 313 315 320 329 329 330 335 336 336 337 337 336 335 335 334 331 331 331 330 330 328 329 329 329 330 330 327 328 327
309 310 308 309 310 311 314 315 313 314 313 312 312 313 315 316 317 320 329 329 332 335 336 337 337 336 335 336 335 334 330 331 331 330 330 329 330 329 329 329 329 328 328 328
308 306 309 309 311 312 313 316 315 315 313 312 313 312 313 314 316 321 330 331 334 335 336 336 337 336 335 336 335 333 331 331 330 330 330 330 330 330 329 330 329 328 328 329
306 307 309 312 314 315 314 316 316 317 318 320 323 323 325 326 328 329 330 331 333 335 336 336 336 335 335 335 332 331 331 331 330 329 330 331 330 331 330 330 328 328 328 329
308 308 309 311 314 316 314 312 310 311 317 318 319 321 322 325 330 327 329 332 333 335 335 336 336 335 335 334 330 330 330 330 329 328 330 330 329 330 330 330 330 327 328 328
313 311 311 311 313 315 308 307 309 320 319 314 318 320 319 325 326 328 327 332 333 335 335 336 335 335 335 334 330 329 329 330 328 328 330 330 329 330 330 330 330 327 327 327
312 313 316 313 315 316 308 307 315 313 314 315 316 317 318 323 328 329 330 332 333 334 335 335 335 335 335 333 330 328 328 328 327 329 330 331 329 329 330 330 330 328 328 326
314 312 312 309 312 310 309 307 311 313 314 314 315 315 316 321 326 329 331 331 330 330 334 335 335 335 335 334 330 328 327 328 326 329 331 331 329 328 329 329 329 329 329 328
311 312 314 312 312 309 311 309 310 312 311 312 313 314 315 321 327 329 331 331 332 333 333 335 335 335 335 334 330 328 327 328 326 328 330 331 331 330 330 329 329 328 328 328
310 310 311 312 312 310 312 310 309 310 310 310 313 314 319 321 326 330 330 332 333 334 334 334 335 335 335 333 330 328 327 326 327 328 330 331 332 330 326 327 327 327 329 328
310 310 312 312 310 310 309 310 309 310 310 311 313 314 320 321 322 329 331 333 333 334 335 334 334 335 335 332 330 328 327 326 327 327 329 331 331 330 328 324 325 327 329 330

GFSCGP_850_thetae_048.txt.gz
Theta_e
306 305 308 310 311 313 313 314 316 317 317 320 319 320 320 320 321 320 321 322 322 323 324 324 324 324 325 324 325 327 327 328 328 328 327 328 328 328 330 333 337 339 338 338
305 305 307 309 310 311 311 311 312 313 314 315 315 314 313 315 316 319 320 321 321 322 322 323 323 324 324 323 324 323 324 328 328 327 328 328 328 329 333 337 339 339 340 341
303 306 308 308 309 310 309 310 312 313 313 313 313 315 315 315 314 316 316 317 317 318 318 319 321 322 323 324 323 323 324 326 327 327 328 329 331 334 337 339 340 341 341 341
302 303 306 306 307 308 308 310 312 312 313 313 313 316 314 314 314 314 314 315 315 315 317 320 321 322 322 321 322 323 325 326 328 328 330 332 333 335 337 340 341 340 337 335
303 304 304 305 306 307 307 309 310 311 311 311 312 311 312 312 312 313 313 314 314 315 316 317 317 318 320 320 321 324 326 328 330 330 334 335 337 339 340 340 338 337 336 333
303 304 304 305 306 307 308 307 307 309 309 311 310 311 313 312 312 312 312 313 314 315 316 317 317 319 320 322 322 327 330 332 333 335 337 339 341 341 340 339 338 333 332 332
305 305 305 305 305 305 305 304 307 309 310 310 311 311 312 312 312 312 313 314 315 316 317 317 318 319 320 321 324 330 333 334 336 337 340 342 341 340 339 336 332 332 332 333
309 311 306 306 305 305 302 302 307 311 312 309 311 313 313 312 313 313 314 315 315 316 317 317 319 319 320 322 328 333 336 336 338 339 340 338 336 334 333 332 332 333 332 331
313 312 310 309 307 306 306 303 303 304 306 306 310 311 312 312 313 313 313 314 316 317 319 321 321 320 320 325 331 336 337 337 338 337 334 333 334 334 333 332 332 332 331 329
308 309 309 310 309 307 306 305 305 301 307 310 310 311 313 312 312 312 313 312 315 317 321 324 322 320 324 330 336 337 336 335 336 335 334 334 334 333 332 332 331 330 329 328
308 308 308 308 307 305 307 306 308 303 304 309 311 310 309 312 312 313 311 312 315 323 328 327 325 327 331 335 336 336 337 336 335 335 334 333 332 332 331 328 328 329 328 325
308 308 310 309 306 307 306 308 309 309 309 306 307 307 309 310 309 309 310 314 317 327 332 332 335 334 336 337 337 337 337 335 334 334 333 332 329 326 326 328 329 328 326 326
309 307 309 307 310 309 310 310 307 310 311 312 309 308 309 309 310 310 312 315 320 330 333 336 336 337 338 337 337 336 336 335 335 334 330 323 325 328 329 330 328 327 326 324
309 308 307 306 308 309 309 309 309 311 312 312 312 312 311 312 312 311 313 314 322 325 334 336 337 337 337 337 336 336 336 335 334 326 324 326 328 328 330 330 328 326 326 326
309 311 310 310 309 310 310 310 310 311 311 314 313 312 312 312 312 312 313 314 322 328 333 336 337 337 337 335 335 335 335 333 326 326 328 327 328 329 329 329 328 327 327 327
308 310 308 309 308 308 311 311 311 311 311 311 312 313 311 312 312 312 314 315 326 329 330 335 337 337 336 335 335 335 333 327 323 326 328 328 328 329 329 329 327 327 328 328
310 309 310 307 308 309 308 310 309 310 310 311 311 311 310 311 312 314 315 317 322 330 331 334 337 337 336 334 333 331 331 326 327 328 329 328 329 329 328 329 329 327 327 328
309 307 309 308 305 309 307 314 315 315 311 311 311 310 310 312 313 314 315 316 327 332 332 335 336 337 335 334 333 329 327 327 330 330 330 329 329 329 328 328 328 327 328 328
307 308 309 309 308 310 312 314 315 315 314 314 316 318 319 321 321 323 322 322 330 333 333 335 336 336 335 334 334 326 329 329 330 331 330 329 330 329 328 329 328 328 328 328
307 307 308 310 311 313 312 308 308 310 317 316 317 318 319 319 323 325 325 328 331 333 334 335 336 336 335 335 334 328 330 329 330 330 330 329 330 330 329 329 328 328 329 329
311 310 309 310 312 313 309 309 307 317 316 314 315 316 318 318 320 321 326 327 332 333 334 335 336 336 335 335 334 329 330 330 329 329 329 330 329 330 330 330 330 328 328 327
311 313 314 313 314 315 309 306 310 308 307 312 314 315 316 316 317 323 326 328 331 334 334 335 336 336 334 334 330 328 330 329 329 328 329 329 329 329 330 330 330 328 327 327
311 311 313 310 312 310 310 305 305 306 309 313 312 314 314 316 318 322 327 330 329 333 334 335 335 335 335 333 328 326 328 328 329 328 329 331 329 329 330 329 329 328 328 327
309 310 312 312 311 311 311 310 308 308 309 311 311 313 314 315 319 324 328 331 331 333 333 334 335 335 335 334 331 326 326 328 328 328 329 331 330 328 330 329 329 329 329 328
308 308 311 311 311 310 311 310 310 309 310 311 311 313 314 317 321 324 329 332 331 329 332 333 334 335 335 334 333 330 327 327 328 327 329 331 331 329 329 328 328 328 328 327
308 309 312 312 310 310 310 310 310 310 311 309 312 314 317 320 321 329 331 332 332 331 329 331 333 334 335 335 334 331 328 327 327 327 328 330 331 330 329 324 326 327 328 328

GFSCGP_850_thetae_051.txt.gz
Theta_e
308 307 309 311 313 314 315 316 317 318 319 320 321 323 323 322 322 322 323 323 324 323 323 323 323 322 323 323 324 324 324 323 323 327 328 328 328 328 328 329 330 332 335 338
308 308 308 309 311 313 314 315 317 317 317 319 321 322 322 320 321 322 323 323 323 323 322 322 322 322 323 323 323 323 324 322 323 324 327 327 328 327 328 330 333 335 338 338
308 308 308 308 310 312 313 314 315 317 316 317 317 320 320 320 319 319 319 319 319 319 320 319 320 321 322 322 323 322 321 321 322 325 327 327 327 328 329 332 334 338 339 339
308 308 307 308 309 311 313 313 314 314 316 319 317 320 321 321 320 320 319 318 319 318 317 318 319 319 319 321 321 319 320 321 322 325 326 326 328 329 331 334 338 340 341 341
308 306 306 308 309 310 311 312 314 314 315 316 316 316 318 318 318 318 320 318 317 317 317 317 316 316 316 317 318 320 320 322 323 327 328 329 332 334 336 339 340 340 340 338
306 307 306 307 309 309 311 310 311 312 313 315 316 316 317 318 318 318 318 316 316 316 316 316 315 316 316 317 319 321 321 325 328 330 331 334 335 336 339 340 340 338 337 335
308 307 307 306 306 307 308 311 312 313 313 314 314 315 316 317 316 315 317 316 316 317 317 316 317 317 318 317 318 320 324 329 332 334 336 337 338 339 340 339 339 337 333 332
310 308 308 307 307 307 308 310 311 311 313 313 312 314 315 316 316 316 315 316 316 317 318 319 320 321 319 318 320 323 328 333 336 338 339 340 341 340 339 338 332 331 332 332
313 310 310 309 308 308 307 308 309 309 311 312 313 313 314 314 315 316 316 317 318 319 321 326 325 323 322 320 321 327 333 337 338 339 340 340 339 337 333 332 332 332 332 331
311 311 310 310 310 308 309 309 308 309 310 310 313 313 314 317 317 316 316 316 317 323 328 332 329 323 321 321 326 334 337 338 338 339 338 335 334 333 332 331 331 331 330 329
311 310 310 309 309 309 309 309 309 310 310 312 313 314 316 317 317 316 316 315 316 321 329 333 332 327 326 329 333 338 339 338 338 336 334 334 334 333 332 332 331 329 328 328
310 312 311 309 309 309 310 309 310 311 310 310 311 312 316 314 314 315 315 315 315 319 328 333 334 338 334 337 338 339 339 337 335 334 333 333 332 331 331 329 327 328 328 325
310 310 311 309 312 311 310 310 309 310 313 313 312 311 313 314 315 315 315 315 315 317 324 333 334 337 337 338 338 339 338 336 334 334 333 331 329 324 326 328 329 328 326 326
309 310 310 310 310 310 311 311 311 311 312 312 313 313 313 314 314 315 315 315 315 315 322 333 334 334 337 338 338 338 335 334 334 333 330 322 323 328 329 329 328 327 326 325
310 310 310 309 310 310 310 311 311 311 311 313 312 312 313 314 315 315 314 314 314 314 317 326 335 337 337 338 337 336 335 334 334 329 322 325 328 329 330 329 327 326 326 326
309 310 310 310 308 308 309 309 309 310 310 312 312 312 312 312 312 313 313 313 315 316 318 323 335 336 338 337 337 336 335 334 330 323 327 327 328 329 329 329 328 327 328 327
309 311 310 308 307 308 309 310 310 310 311 312 312 312 312 312 313 313 313 314 316 317 317 326 335 337 338 337 336 336 334 332 326 326 328 328 329 329 329 329 328 327 327 327
308 309 310 309 308 309 308 314 314 315 316 315 316 315 313 312 311 312 314 317 318 318 318 327 335 337 339 337 336 336 333 326 327 329 328 328 329 329 329 329 328 327 327 327
307 308 310 309 309 309 309 312 312 313 313 313 316 314 313 312 312 316 317 316 320 321 319 331 336 337 338 337 336 334 332 328 331 331 330 328 330 329 328 328 328 327 328 328
307 308 309 309 311 313 313 311 309 308 314 314 312 317 317 317 322 318 317 324 324 328 330 334 336 337 338 336 332 333 331 329 331 332 331 329 330 329 328 328 328 328 328 328
313 310 310 311 312 313 311 311 307 314 315 308 309 309 315 319 319 318 320 321 323 327 331 335 336 337 337 333 332 331 330 330 332 332 331 329 330 330 329 329 329 328 328 329
314 314 314 314 314 316 310 310 310 312 308 307 308 314 315 316 318 318 320 321 325 328 333 335 336 337 336 333 333 331 328 330 331 331 330 330 329 330 330 330 330 329 328 328
313 312 313 311 313 311 310 309 309 309 308 308 309 312 313 314 316 319 321 324 328 331 334 335 336 336 335 334 334 331 326 329 330 330 329 330 329 329 330 330 330 329 328 328
310 311 313 312 312 310 309 310 308 310 309 308 310 312 312 315 316 319 322 327 329 332 335 335 335 335 335 334 331 325 327 329 330 329 329 331 329 328 329 330 330 329 328 328
311 311 312 312 311 310 311 310 311 308 309 312 311 312 314 316 317 320 324 328 330 333 334 334 334 335 334 332 328 327 326 329 330 328 329 330 331 329 329 329 329 328 328 327
310 311 312 312 311 310 311 311 311 310 309 310 312 314 316 317 320 322 327 332 333 334 334 334 334 335 333 332 330 326 326 327 330 327 329 330 331 330 330 328 328 328 328 326

GFSCGP_850_thetae_054.txt.gz
Theta_e
310 311 311 311 311 311 314 317 318 319 321 323 324 324 325 325 326 327 327 327 328 327 327 327 327 327 327 324 322 322 323 323 323 323 323 325 328 330 337 341 337 331 332 334
312 311 311 311 310 310 313 315 318 319 319 321 323 324 324 325 326 326 326 326 326 326 326 327 327 326 327 324 322 322 321 322 322 321 322 326 334 342 343 342 332 330 333 336
312 312 311 310 310 310 312 315 317 318 319 320 321 323 324 324 324 324 324 324 324 324 324 324 324 324 325 327 324 323 322 321 320 319 322 324 329 332 340 341 333 333 336 339
312 311 311 310 310 310 310 312 315 317 319 322 321 323 324 324 324 325 324 323 323 323 323 323 322 323 324 325 325 325 319 320 319 320 322 325 336 341 342 342 343 336 339 339
312 310 310 310 310 309 310 311 314 316 318 320 321 322 322 323 324 324 325 323 322 322 321 321 321 321 322 322 323 324 319 318 319 321 324 328 336 343 344 344 340 343 340 340
312 311 310 309 309 310 311 311 314 316 317 319 319 321 321 322 322 323 323 321 320 320 320 320 320 321 320 321 321 324 319 320 321 323 327 331 343 344 345 345 345 345 343 342
313 312 310 309 309 310 311 311 316 318 319 319 318 319 320 321 320 321 322 319 319 320 320 321 321 322 323 323 323 328 323 322 325 330 332 337 337 339 343 342 345 344 342 341
313 314 311 310 310 309 312 312 314 316 316 317 317 318 319 320 320 319 319 319 320 323 323 325 327 328 327 324 327 332 338 340 341 340 339 341 339 344 345 343 342 340 337 337
314 312 310 311 310 310 309 310 312 313 314 316 317 317 318 319 319 320 319 319 321 324 328 331 334 335 331 325 332 338 343 345 346 344 341 341 344 343 342 342 339 338 338 338
312 315 312 311 311 312 310 311 311 313 314 315 316 317 318 319 318 319 319 320 320 322 326 332 337 336 333 332 338 343 345 346 346 344 344 343 342 341 337 333 338 338 337 336
310 312 312 311 312 312 310 310 311 312 312 314 315 317 318 320 320 320 320 319 319 319 323 331 337 335 338 339 342 345 345 345 345 344 343 341 339 337 335 335 335 334 330 332
310 311 313 312 311 310 311 313 313 311 313 313 316 319 319 320 320 320 319 319 318 318 320 330 337 336 340 341 343 345 344 344 343 341 339 339 338 338 337 337 336 331 334 334
311 312 312 311 312 312 310 310 312 313 314 316 314 316 318 318 318 317 318 318 318 317 318 323 335 337 340 342 343 343 342 341 340 339 338 338 338 337 336 335 334 334 334 332
309 312 312 313 311 311 311 312 311 313 314 313 315 315 318 317 317 317 317 317 317 316 317 319 331 337 338 342 342 341 340 339 338 337 336 336 335 333 333 334 335 333 333 332
309 312 311 311 311 310 311 310 311 312 313 313 314 314 315 316 316 316 315 316 315 315 317 318 323 337 339 341 341 340 339 337 337 336 334 332 332 334 335 335 334 333 332 331
310 313 311 311 310 311 310 310 311 311 311 312 312 313 313 313 313 313 313 314 315 316 317 318 321 338 340 340 340 339 337 336 335 332 331 332 333 335 335 334 333 332 331 332
311 312 312 313 310 310 311 311 310 311 311 311 312 313 314 314 315 314 314 313 314 315 317 319 320 337 340 340 339 338 337 336 332 330 331 333 334 334 334 334 333 332 332 332
310 311 311 312 311 312 313 315 314 315 315 315 315 315 316 317 316 314 313 313 314 317 319 320 321 337 340 340 339 338 336 334 330 330 331 333 333 333 333 333 333 333 331 332
309 310 311 312 312 310 310 312 313 314 314 313 314 315 316 316 316 316 314 314 314 317 323 326 324 338 339 340 339 337 335 331 328 331 332 333 333 333 333 334 333 332 331 329
309 307 313 312 314 314 319 313 311 310 315 311 311 314 317 317 320 316 317 318 321 323 324 328 332 338 339 339 339 336 333 328 329 331 332 333 333 333 333 333 333 332 331 330
314 312 312 313 316 314 314 312 309 316 317 312 311 311 313 316 317 318 319 320 320 321 325 329 334 338 339 340 338 335 331 329 330 332 331 333 333 334 334 333 333 332 331 330
315 315 315 316 316 318 312 312 313 314 310 310 310 310 310 311 315 316 319 320 321 324 327 331 336 339 338 339 336 335 330 329 331 331 331 332 334 334 333 333 333 331 330 329
314 314 315 316 314 312 310 311 310 309 310 309 310 310 310 311 314 316 318 321 324 327 331 335 338 339 339 338 336 332 329 331 331 331 331 332 334 334 334 334 332 330 329 330
313 312 314 314 312 311 310 311 310 309 310 310 310 310 311 313 314 316 319 322 326 330 333 337 338 340 340 337 335 332 329 331 331 331 331 331 333 334 333 333 331 331 330 329
313 313 313 314 311 310 310 309 310 312 310 309 310 312 313 315 315 318 321 324 327 332 334 337 339 340 339 337 336 329 330 331 332 331 331 332 332 332 332 332 331 330 328 329
313 313 314 314 310 311 311 311 311 311 310 310 310 311 314 316 318 319 322 326 330 335 335 338 339 339 337 336 332 328 330 331 332 331 331 331 331 333 331 331 329 328 328 327

GFSCGP_850_thetae_057.txt.gz
Theta_e
313 314 314 314 314 314 314 313 314 317 320 321 322 323 325 327 327 328 328 329 330 330 330 329 330 331 331 331 331 330 327 323 323 323 325 333 339 342 344 343 344 346 345 344
313 314 314 314 313 313 313 313 314 314 316 320 321 322 325 325 326 326 327 329 329 329 330 330 330 330 330 330 330 330 329 331 324 323 324 334 339 342 345 345 346 346 345 343
314 314 314 313 313 313 314 313 313 314 315 318 321 322 323 324 325 325 325 327 328 328 329 329 329 329 329 328 328 329 330 327 323 322 328 335 339 345 347 347 348 346 346 345
313 313 313 313 313 313 313 313 312 312 315 318 320 322 323 324 325 326 325 326 326 327 328 328 328 327 327 327 328 328 329 327 321 321 323 334 342 346 346 346 347 347 346 344
314 314 314 313 312 312 312 313 312 312 313 317 319 322 323 323 325 325 326 325 326 326 326 326 326 327 326 326 325 326 326 327 321 324 321 337 341 344 346 346 347 346 347 346
313 313 314 313 313 311 311 311 312 312 313 316 318 321 323 324 324 325 325 325 325 325 325 325 325 324 324 324 324 325 326 325 324 320 320 327 342 344 347 347 349 348 346 346
313 313 313 314 312 312 311 312 313 313 314 316 318 321 323 324 324 324 325 324 324 324 323 323 323 323 323 324 325 324 324 328 337 339 327 336 342 347 347 349 348 347 345 346
314 314 314 313 314 311 311 313 315 317 315 316 318 321 322 322 323 321 322 323 323 322 322 323 324 325 325 326 327 326 327 339 346 344 344 347 350 349 350 349 348 347 345 344
313 313 312 313 313 313 312 312 314 316 315 318 318 319 320 321 321 322 323 321 323 325 327 329 331 332 334 332 328 328 331 342 347 348 349 350 350 349 348 347 343 343 340 342
312 312 312 313 313 313 314 311 314 313 314 316 317 318 321 321 322 322 323 322 322 323 325 329 335 338 338 333 330 335 339 346 348 350 350 350 349 348 347 345 342 340 339 339
310 313 312 313 314 315 313 313 313 314 314 316 318 320 321 321 321 322 322 322 322 322 323 331 338 339 339 334 337 342 346 348 349 348 348 348 347 346 344 341 341 341 339 338
311 313 312 312 313 314 313 314 315 317 315 315 316 317 322 322 323 322 323 321 321 321 321 326 339 337 341 340 343 346 347 347 347 347 347 346 344 342 342 341 340 338 337 336
312 313 314 311 313 313 312 313 315 315 316 320 317 317 322 323 323 322 322 321 320 320 320 323 336 338 343 343 344 346 346 346 346 344 343 342 342 341 340 339 337 336 335 335
310 312 312 314 312 312 314 314 312 314 317 317 315 317 321 321 321 320 319 319 320 319 319 322 328 339 343 343 343 344 344 344 343 342 341 341 341 339 338 336 335 334 335 334
311 315 312 312 311 312 311 311 311 312 313 314 315 315 316 318 319 319 317 317 318 317 319 321 323 340 342 343 342 342 342 342 341 340 340 339 338 336 335 335 335 335 335 333
312 314 313 313 312 311 311 311 311 311 312 312 313 314 315 316 315 316 315 316 317 317 318 320 323 340 340 341 342 341 341 340 339 338 337 335 334 335 335 335 334 334 333 333
312 313 314 315 312 313 312 312 312 311 312 312 312 314 315 314 315 316 316 316 317 317 317 320 322 327 341 340 341 340 340 339 338 335 333 333 334 335 334 334 333 334 334 331
313 313 313 314 313 314 311 313 314 314 314 315 316 316 316 317 316 316 317 318 316 317 318 320 326 325 340 340 340 340 339 337 333 333 332 333 334 335 335 334 333 334 335 334
311 312 314 314 316 313 311 312 314 315 316 315 315 315 316 315 315 318 317 317 317 317 318 323 327 329 340 340 339 339 338 334 332 331 333 333 334 334 334 334 333 334 333 331
313 310 313 313 318 316 317 315 314 313 315 314 314 314 315 315 319 322 322 321 319 321 324 325 329 335 339 340 339 339 336 333 331 332 332 333 333 334 334 334 334 335 334 333
315 312 314 314 317 315 314 312 312 317 317 314 314 314 314 315 317 317 318 321 322 322 322 323 327 332 341 339 339 338 335 331 331 332 332 333 332 333 333 334 335 334 333 333
315 316 317 316 316 316 313 313 315 314 312 311 312 312 312 313 313 315 316 318 319 321 324 326 329 335 340 339 339 338 334 330 331 331 332 334 333 334 335 334 333 332 333 334
316 315 317 318 316 315 313 312 312 311 311 310 311 312 312 312 312 314 315 318 319 322 326 329 333 337 338 338 340 336 332 331 331 331 332 334 333 334 334 335 333 335 334 332
314 313 316 315 315 314 312 312 311 310 310 310 311 311 311 312 312 314 316 318 320 323 327 331 336 339 339 340 338 336 331 331 331 332 332 334 333 334 335 333 333 332 332 332
314 314 315 315 314 312 311 311 312 310 310 311 312 311 311 311 314 315 317 318 321 325 330 334 338 339 340 339 337 334 330 331 331 332 331 331 334 334 334 333 332 332 331 331
315 316 316 315 313 312 312 312 310 311 308 309 310 310 312 312 313 316 318 319 323 326 330 336 337 339 340 338 336 332 330 331 332 331 331 331 331 332 333 332 331 330 328 328

GFSCGP_850_thetae_063.txt.gz
Theta_e
312 310 310 311 312 313 313 313 313 314 314 313 313 313 314 315 315 317 321 324 325 326 327 327 328 330 330 329 333 333 332 333 334 334 333 334 333 327 326 325 328 331 336 342
310 309 311 312 313 313 313 313 313 313 314 313 313 313 314 314 314 315 316 320 323 326 325 326 328 328 330 330 333 333 332 332 332 332 332 332 328 324 323 326 334 337 340 343
310 310 312 312 312 312 313 313 313 313 313 313 313 313 313 314 314 314 315 316 320 325 326 326 327 328 328 330 333 333 332 332 332 331 329 328 326 325 330 335 340 341 344 343
309 309 311 312 312 312 313 314 315 314 312 311 312 312 312 313 313 314 316 316 317 321 327 326 324 326 331 332 333 334 332 332 331 330 329 328 324 322 324 340 342 343 345 344
309 309 312 312 313 314 314 314 314 313 311 308 310 309 311 312 312 313 313 315 318 320 324 326 324 326 327 332 333 332 331 330 329 329 328 327 324 323 326 331 345 345 345 346
310 312 311 314 313 312 314 314 313 312 308 309 309 309 309 310 311 313 313 314 316 320 322 326 325 325 327 333 332 331 330 329 328 327 327 326 324 323 330 338 344 346 346 347
312 311 311 313 312 311 311 314 315 312 309 311 311 313 313 313 313 312 313 314 314 315 318 325 325 324 326 330 331 329 328 328 327 327 326 325 325 326 329 339 347 346 347 347
310 310 310 312 310 310 310 312 314 316 313 312 311 312 311 313 314 315 314 315 313 314 317 323 326 325 325 325 328 327 327 328 328 327 327 326 326 329 330 338 346 345 346 346
310 312 311 311 310 309 309 311 310 313 314 315 313 312 313 313 314 316 317 316 316 316 323 324 326 325 326 326 327 327 327 325 325 325 326 328 330 332 328 339 350 346 346 345
312 312 311 311 311 311 312 311 311 314 314 317 314 314 314 319 318 315 315 316 318 320 325 327 326 326 325 325 328 329 330 326 324 324 328 332 332 329 337 343 351 347 346 344
311 311 312 311 311 312 313 313 314 314 315 317 315 313 318 317 316 315 314 314 317 319 324 325 328 329 332 333 330 331 333 332 327 328 330 331 340 341 348 352 348 347 348 345
312 312 312 311 310 312 312 312 314 316 315 313 315 315 315 314 314 314 313 315 320 322 322 328 331 336 334 332 331 332 335 329 327 330 341 345 344 350 351 348 349 348 346 345
312 311 311 310 309 313 313 312 312 313 314 316 316 314 314 314 313 313 314 316 318 318 319 321 337 338 337 335 336 333 336 331 340 345 344 348 349 350 349 349 343 342 341 340
313 311 312 313 312 311 312 312 312 311 312 314 314 314 316 314 313 313 313 314 315 319 316 319 326 335 338 341 340 338 338 344 343 342 346 349 350 347 347 342 341 340 339 337
312 314 313 313 313 312 312 312 313 312 312 314 315 316 315 315 313 313 314 315 315 316 318 319 321 336 339 342 341 341 344 343 343 345 346 349 347 344 343 341 340 337 333 333
312 314 313 314 313 312 312 312 313 313 313 313 314 316 315 314 313 314 314 315 315 317 317 318 319 325 337 341 342 342 343 344 344 345 345 344 341 341 340 338 336 335 334 334
314 314 315 314 312 312 313 312 313 314 314 313 316 314 315 316 315 315 315 316 320 323 322 320 319 322 327 338 340 341 341 343 345 343 342 341 340 339 338 335 334 334 334 333
314 312 313 314 313 314 312 312 314 314 314 312 315 315 314 314 314 315 317 318 317 318 320 322 319 321 330 332 339 338 341 342 342 341 339 340 339 336 335 335 334 335 334 332
312 313 312 312 312 313 313 316 315 314 313 315 315 314 314 313 312 314 319 316 315 316 318 321 323 324 328 332 339 339 339 341 341 339 338 336 335 335 335 335 333 334 333 331
313 313 313 311 311 310 315 316 313 312 313 314 313 312 312 312 314 312 313 313 313 314 316 319 323 323 328 334 333 339 339 340 338 335 334 335 336 334 333 332 333 332 333 331
315 314 313 312 313 313 315 314 312 315 311 313 312 312 311 311 312 312 311 312 313 314 315 319 321 323 323 333 326 339 339 337 334 333 334 336 336 332 332 331 332 334 333 332
309 313 313 314 316 313 315 313 314 311 312 312 313 312 311 311 311 311 311 313 314 313 315 317 319 325 322 326 331 338 336 334 333 333 334 334 333 331 332 333 333 333 332 330
312 313 315 314 313 314 314 314 313 313 312 312 312 312 310 311 310 310 311 312 313 313 313 316 318 324 322 331 333 338 335 333 333 333 333 334 332 331 332 333 333 333 333 331
313 312 312 313 314 315 313 313 314 313 313 312 311 311 311 310 310 310 310 311 312 312 314 316 318 321 326 334 336 338 335 333 333 334 334 332 330 331 332 333 333 331 331 330
310 311 313 314 314 313 313 314 313 312 312 311 310 309 309 309 309 309 312 312 312 312 314 316 318 322 329 335 338 338 334 334 333 334 333 331 330 332 333 332 332 331 331 331
311 314 315 316 314 313 312 313 312 312 310 310 309 307 307 307 308 309 311 312 312 312 314 317 319 321 332 335 337 338 333 334 334 334 332 330 332 333 333 332 331 331 330 331

GFSCGP_850_thetae_066.txt.gz
Theta_e
310 307 307 308 308 310 311 311 311 312 312 312 312 312 312 313 313 313 314 314 314 315 318 321 323 324 327 328 329 335 335 335 335 334 334 337 335 333 332 332 330 331 334 332
307 308 309 310 310 311 310 310 311 312 313 312 311 312 312 312 312 313 313 313 314 314 315 316 322 324 325 326 328 330 335 334 334 333 332 333 332 332 333 332 328 327 328 331
308 309 310 309 311 312 311 311 313 314 314 313 311 311 311 312 312 312 313 313 313 313 314 316 317 322 324 325 325 327 333 335 334 333 332 333 333 333 332 331 326 325 327 336
308 308 309 311 312 313 312 313 313 313 313 312 310 311 310 310 310 311 312 312 312 313 313 314 315 318 323 324 325 327 329 334 334 332 333 332 331 329 328 326 326 324 332 337
308 308 309 311 313 313 313 311 312 314 313 311 311 307 310 309 310 310 309 310 311 311 312 313 314 318 320 324 325 326 329 332 333 332 333 332 330 330 329 328 324 323 336 342
308 311 311 313 313 312 311 312 311 310 309 310 310 307 309 309 309 309 310 312 313 312 311 312 313 315 317 323 325 324 327 332 333 332 332 332 330 329 327 327 325 324 332 344
310 310 310 312 312 309 308 311 311 312 309 310 309 310 309 310 311 312 313 314 315 316 316 314 313 313 316 319 324 325 326 334 333 332 331 330 329 327 326 325 324 325 334 344
309 309 310 310 310 307 307 308 310 315 314 312 311 312 310 310 315 316 315 314 313 314 316 317 316 315 314 316 322 326 329 334 332 331 329 328 327 327 326 325 325 325 337 346
309 312 310 311 310 310 309 307 309 312 312 310 311 311 310 317 316 315 313 313 313 313 314 317 318 318 318 322 322 326 327 332 331 329 328 328 327 327 326 326 327 327 337 346
310 311 311 310 310 309 310 310 311 311 311 313 313 312 311 317 316 314 313 312 312 313 314 318 320 322 325 324 323 325 328 330 328 327 328 327 325 326 327 329 329 329 341 346
310 309 311 310 310 309 310 311 313 311 313 315 316 312 315 316 315 314 312 313 313 314 317 319 320 327 325 324 323 324 327 329 329 328 325 325 324 327 329 332 332 328 341 347
311 310 311 311 310 309 310 311 311 308 313 313 312 312 313 313 312 312 313 313 313 314 317 319 320 326 336 333 331 332 331 332 330 327 328 326 328 331 336 332 329 341 347 346
311 309 312 309 308 309 311 310 309 310 312 312 314 312 313 314 314 312 314 313 314 316 320 320 318 319 335 335 334 332 332 333 331 330 328 327 327 334 338 340 347 349 347 346
312 310 310 311 311 308 311 311 311 311 315 313 313 314 314 315 315 314 313 314 315 317 318 319 317 320 336 337 333 331 331 335 333 328 327 330 342 342 341 346 350 348 347 345
309 312 311 311 312 313 313 313 311 311 312 314 313 315 314 314 315 314 314 315 316 317 317 317 321 320 327 338 341 336 333 334 331 332 342 344 342 346 348 347 347 346 343 341
309 311 312 313 313 313 314 313 312 311 312 312 312 314 314 314 314 315 315 316 316 318 319 317 318 321 334 329 336 341 337 339 344 344 342 343 347 347 344 344 340 339 338 336
310 311 314 312 313 312 313 311 311 313 313 313 313 314 313 314 314 313 314 315 317 315 315 315 316 319 323 331 329 334 338 341 341 341 342 345 347 344 342 340 339 337 334 333
312 314 313 312 309 312 310 314 314 314 314 311 312 315 314 313 312 311 312 315 313 312 312 313 315 317 327 331 329 331 337 340 340 342 343 345 342 341 339 336 335 332 333 333
309 312 312 312 308 311 312 315 314 313 312 314 314 312 312 311 310 310 311 311 311 311 312 313 314 315 328 331 328 330 338 338 340 342 342 340 338 339 337 334 333 334 333 333
311 311 312 311 313 312 307 314 312 311 312 314 312 311 311 311 311 310 309 309 310 310 311 313 313 315 324 327 327 327 332 339 339 340 340 338 338 336 333 334 333 333 333 331
315 313 313 313 312 312 311 313 311 310 312 313 312 312 311 310 310 311 310 310 310 310 311 312 313 314 316 320 328 326 329 335 338 337 337 336 332 333 334 333 332 333 333 331
308 313 312 312 314 311 314 312 311 309 312 312 311 312 312 312 311 310 310 310 310 310 310 311 312 314 315 320 327 323 327 335 337 335 333 334 335 333 332 332 333 332 332 332
310 310 312 313 309 309 313 313 313 313 313 312 312 312 312 312 310 309 310 310 310 310 310 311 312 312 316 322 332 328 334 333 334 334 335 336 332 330 331 331 332 333 333 331
311 310 310 309 310 311 312 313 313 312 313 313 313 312 311 310 309 310 309 309 310 310 310 311 312 312 317 323 327 330 332 333 333 334 335 334 331 330 332 332 333 333 332 330
307 307 309 310 311 312 313 313 313 312 313 312 312 310 309 309 309 308 307 308 308 309 310 311 311 313 317 322 327 326 332 334 333 333 334 332 330 331 333 333 333 332 330 330
308 309 310 312 312 313 313 312 312 312 312 311 309 309 309 309 308 307 306 307 308 309 311 311 312 314 318 326 327 329 332 335 333 333 332 331 330 332 332 332 331 330 330 330

GFSCGP_850_thetae_069.txt.gz
Theta_e
308 306 307 307 307 309 310 310 309 310 310 310 310 311 312 311 312 311 313 313 314 314 313 313 314 315 315 317 326 326 329 334 338 339 340 339 338 336 335 334 330 329 329 329
306 307 308 308 308 310 310 310 310 311 312 312 311 312 312 311 310 312 312 313 313 313 313 313 313 313 315 315 319 324 326 329 335 338 340 338 335 335 334 332 332 330 331 331
307 308 308 308 310 311 311 311 311 312 312 311 310 311 310 310 310 311 311 311 311 311 312 312 312 312 313 315 316 319 322 325 327 333 340 338 336 334 334 332 332 331 332 329
307 307 308 307 310 312 312 311 312 311 312 312 311 312 310 310 308 309 309 310 310 310 310 311 312 312 312 313 315 317 320 323 325 327 335 338 335 333 332 331 332 332 331 327
307 308 308 309 310 312 311 311 310 311 312 311 312 308 310 310 309 307 307 309 311 312 313 313 313 314 313 312 313 315 316 321 325 327 329 337 334 334 332 332 334 330 328 326
307 308 309 309 311 311 310 309 309 309 307 310 310 308 310 309 308 308 309 313 314 315 315 315 315 313 314 314 313 314 315 320 324 328 329 331 336 335 335 334 331 329 328 325
308 309 309 312 311 308 305 306 306 309 309 310 308 309 309 309 309 311 314 315 315 313 312 313 314 316 314 315 314 314 315 317 322 326 327 331 335 335 335 332 330 327 326 324
309 309 310 310 309 308 307 305 305 310 312 309 309 311 309 309 314 315 314 313 313 312 311 311 312 314 315 317 316 315 315 316 318 325 326 329 334 335 334 331 328 326 325 322
308 311 310 310 310 308 308 307 306 309 309 309 309 309 309 310 315 314 313 313 311 312 312 313 313 313 315 320 320 317 317 318 321 324 327 331 333 335 332 328 327 326 326 325
309 311 310 310 309 309 308 308 309 303 307 311 311 311 311 310 310 314 312 311 312 312 313 313 313 313 318 319 321 322 319 320 322 324 329 334 333 332 329 328 327 327 327 327
309 308 310 310 309 307 307 308 310 306 311 313 314 311 309 312 313 313 311 312 312 312 313 313 315 316 319 319 323 327 322 323 323 324 330 333 332 330 328 327 327 328 328 328
310 308 311 310 309 308 308 308 308 306 310 310 311 312 309 311 311 311 311 312 312 311 312 314 316 318 320 321 322 330 324 324 323 324 327 332 331 329 328 328 327 329 331 329
309 309 312 309 307 307 310 310 309 309 310 312 313 312 310 311 312 313 312 313 312 311 314 317 318 318 322 322 329 335 328 323 323 326 330 331 330 328 328 326 328 333 334 328
311 310 312 312 310 307 311 312 310 309 313 311 312 312 311 311 312 313 313 313 315 311 318 318 317 316 316 324 331 338 336 331 326 325 329 329 327 327 327 328 333 333 331 336
307 308 309 311 312 312 312 313 313 313 312 311 311 311 311 311 312 313 314 314 316 312 318 314 312 314 315 328 328 337 337 335 333 330 329 328 328 327 331 338 340 338 345 347
306 310 312 311 310 311 313 312 312 313 313 312 310 311 310 313 313 314 314 313 314 316 314 313 312 313 319 330 330 332 337 336 335 331 329 328 329 338 340 339 343 349 348 346
306 307 310 311 311 311 312 312 311 311 310 312 313 311 313 313 313 311 311 310 314 313 312 311 311 313 317 329 328 328 332 342 338 333 332 334 340 340 341 345 345 345 346 344
307 310 314 314 308 312 309 313 314 313 312 311 310 311 313 312 311 311 311 311 309 310 310 310 311 312 313 320 326 330 329 336 341 339 339 342 342 343 346 345 343 342 339 337
307 310 313 313 310 309 310 314 314 313 311 311 313 312 311 311 311 311 310 309 310 310 310 310 310 312 312 314 320 331 325 335 336 338 341 342 342 345 342 341 339 337 336 334
307 310 313 311 313 307 307 313 312 310 313 311 311 310 310 310 312 312 311 311 311 309 310 310 310 311 312 315 320 325 327 328 336 336 339 340 341 341 340 338 335 333 332 331
314 313 312 312 313 310 310 312 311 315 310 313 313 312 311 311 311 311 311 311 310 309 310 310 309 310 312 314 321 327 326 323 331 338 338 339 339 339 336 333 332 333 332 332
307 312 311 312 314 312 312 312 312 310 310 312 312 312 312 311 311 311 311 311 309 309 309 309 310 310 311 315 322 326 326 325 330 326 338 338 338 336 333 331 333 332 331 331
307 307 311 311 308 308 311 311 311 311 312 313 312 312 312 311 311 311 311 310 308 309 309 309 309 311 311 315 323 325 324 325 329 332 338 335 332 333 333 331 332 332 332 331
308 307 306 306 307 308 309 310 312 313 312 312 312 312 312 311 311 311 309 308 309 308 307 308 308 311 311 316 322 328 326 324 327 334 333 333 333 334 332 331 332 332 332 332
306 305 305 306 307 309 310 311 311 311 312 312 311 312 311 311 311 309 308 308 308 307 307 307 309 311 312 316 323 327 324 328 332 333 334 334 331 331 331 331 332 332 332 332
305 306 308 309 308 308 308 311 312 311 311 311 310 308 307 307 308 309 308 307 307 307 306 307 309 311 313 316 324 326 327 329 333 334 334 331 330 330 331 331 332 332 332 330

GFSCGP_850_thetae_072.txt.gz
Theta_e
307 306 306 307 306 307 308 309 309 308 309 310 309 310 310 311 311 311 311 312 312 312 312 312 313 312 313 314 316 318 323 328 333 329 332 339 340 336 334 337 337 337 335 333
305 307 307 307 307 307 308 309 308 309 310 310 309 311 310 310 310 311 311 311 311 311 311 310 310 310 311 312 313 315 318 323 325 326 331 333 339 340 338 338 337 336 336 334
306 307 308 307 308 310 309 310 309 311 310 310 309 309 309 308 309 310 311 311 311 311 309 310 311 311 311 311 312 313 315 317 319 323 325 335 337 340 340 339 337 334 334 332
306 307 308 308 309 310 311 309 311 310 309 309 310 311 310 309 309 308 309 311 310 310 310 312 312 312 313 313 311 312 313 315 318 320 323 324 330 332 338 339 337 335 333 335
307 308 307 308 308 310 308 310 310 309 309 310 310 309 308 309 308 307 306 309 309 311 312 313 313 313 312 313 315 312 312 313 316 316 320 324 326 329 333 338 337 337 335 335
305 307 307 307 309 310 309 308 305 305 306 308 307 309 308 307 307 308 307 309 312 314 314 313 312 313 312 312 312 315 313 313 314 316 317 322 325 326 331 334 335 337 336 334
307 309 308 311 310 307 305 304 305 305 307 308 307 308 308 308 309 308 308 312 314 313 312 312 312 312 312 312 312 313 315 313 313 314 316 319 324 327 329 332 335 337 335 332
309 309 308 309 309 309 307 305 305 308 310 306 306 308 307 307 308 311 314 314 313 312 312 312 311 312 312 312 312 313 317 315 314 314 315 317 322 327 329 330 332 336 336 332
308 310 309 309 309 308 308 306 304 306 307 307 307 307 307 308 309 313 313 313 312 312 312 311 312 312 313 312 312 313 319 317 317 314 315 317 319 324 327 328 330 335 337 330
308 310 309 309 309 308 307 306 308 301 306 305 307 309 309 309 309 310 311 311 312 312 312 312 311 314 314 314 314 318 319 319 319 315 315 317 321 323 325 328 331 335 335 329
307 308 309 309 309 308 306 306 308 304 303 307 311 308 307 308 308 309 309 311 311 312 313 312 313 318 318 318 318 319 321 322 322 320 315 318 321 324 325 329 334 336 332 327
308 306 309 309 308 307 305 306 306 306 309 309 309 311 309 308 308 309 310 311 312 312 314 312 313 316 313 315 316 320 326 330 327 322 315 318 322 324 328 333 336 334 329 327
308 308 310 308 306 306 309 308 307 308 308 311 312 310 308 309 310 310 310 311 313 312 315 314 312 313 312 312 314 321 328 334 331 324 319 321 323 325 332 333 334 330 328 327
310 308 309 309 307 305 309 310 309 311 312 311 311 310 309 309 309 309 311 313 313 313 315 313 312 311 311 311 314 319 328 335 335 327 322 322 323 325 331 333 329 328 327 327
306 308 308 310 310 311 311 311 311 312 312 313 312 311 310 309 309 311 313 313 312 311 313 314 311 311 310 311 312 320 327 335 335 328 322 322 324 327 331 330 328 326 327 331
307 308 308 311 311 310 309 309 310 311 311 312 312 312 311 310 311 312 311 311 311 312 311 310 309 309 311 309 311 311 325 335 337 329 324 322 329 330 329 328 326 328 331 334
305 306 309 308 308 309 311 310 310 310 310 311 312 311 309 311 312 311 311 311 311 310 310 309 309 310 310 308 308 313 326 338 340 335 330 327 329 329 328 327 328 332 336 340
305 308 309 311 310 313 309 309 312 312 312 310 310 310 310 311 312 311 311 311 310 310 310 309 309 309 310 309 311 313 326 337 341 337 335 330 329 328 328 333 337 341 348 347
306 308 312 313 310 308 309 310 313 312 312 311 310 310 311 311 310 311 311 311 310 311 310 310 309 309 309 310 312 320 326 328 342 337 337 334 331 333 337 337 343 341 346 344
307 308 310 312 311 308 307 310 311 310 312 310 310 310 310 310 313 313 311 311 311 311 310 309 308 309 309 311 313 323 327 325 334 338 339 338 338 339 340 342 342 342 344 341
311 310 311 312 312 310 309 311 311 313 310 308 311 311 310 311 312 312 312 312 311 311 310 309 308 308 309 311 313 324 325 326 330 335 336 338 337 339 338 342 340 340 337 334
311 312 310 311 312 311 312 311 312 308 309 310 310 311 311 312 311 311 312 311 311 310 308 308 308 308 309 311 314 322 324 326 329 332 336 336 338 339 339 339 337 335 332 333
306 306 305 309 307 308 309 310 309 308 309 311 310 311 312 311 310 311 311 311 311 309 308 308 308 308 308 311 314 323 326 325 326 328 331 336 337 337 337 335 332 331 331 331
306 306 306 305 307 306 306 307 308 310 310 309 310 311 311 310 310 310 310 310 310 308 308 308 307 307 308 311 315 326 327 325 328 326 327 331 337 335 332 331 332 332 332 330
306 304 305 305 305 306 307 308 309 309 309 310 309 308 309 309 307 307 308 308 307 307 308 308 307 307 308 312 316 326 325 325 324 328 324 328 334 332 332 333 332 331 330 330
304 305 307 309 307 307 307 309 310 309 309 307 307 306 305 304 303 303 303 305 307 308 308 307 306 306 309 312 316 325 326 323 326 331 327 331 333 332 331 331 332 331 331 331

GFSCGP_850_thetae_075.txt.gz
Theta_e
309 312 313 311 310 310 311 311 311 312 312 312 313 312 312 312 312 312 312 312 312 312 312 311 311 311 311 312 313 314 325 329 325 325 327 335 335 337 337 331 326 330 332 333
310 310 311 310 309 309 311 311 311 311 312 312 312 312 313 313 313 312 312 312 312 311 311 310 310 310 311 311 312 313 313 315 323 325 318 323 326 331 336 339 337 331 332 334
310 310 309 309 310 311 312 312 311 311 312 311 312 312 312 313 312 312 312 312 311 311 310 310 311 312 312 312 312 312 312 313 313 313 315 317 323 325 333 338 340 337 334 334
310 309 309 309 310 311 311 311 311 311 311 311 311 311 311 312 313 312 312 312 311 309 310 311 312 313 313 313 313 313 312 312 313 313 314 315 318 324 325 329 338 340 337 334
310 310 310 310 310 311 311 311 312 311 311 312 311 312 311 312 312 312 313 312 311 311 313 314 313 312 312 312 312 312 313 313 312 313 313 314 315 319 324 325 326 335 340 334
310 308 309 310 310 312 311 311 311 310 310 311 310 311 311 311 313 312 312 311 312 314 315 314 312 312 312 312 312 312 312 312 313 312 313 314 315 316 321 324 325 327 333 340
310 310 309 311 312 309 310 311 311 311 310 310 311 310 311 312 312 312 311 311 313 315 314 313 313 313 313 312 312 312 312 312 312 313 312 313 314 316 318 323 325 325 329 337
312 312 310 311 311 311 311 312 312 312 310 310 310 310 310 311 310 310 310 313 315 314 313 313 313 313 314 315 315 314 313 313 312 313 313 313 314 315 316 322 324 326 328 333
314 312 311 310 311 311 310 311 309 311 311 311 310 310 310 310 311 312 313 314 313 313 313 313 314 314 314 318 317 317 317 315 314 313 314 314 314 314 316 320 323 326 328 331
312 312 311 311 310 310 311 310 312 313 312 311 309 310 310 310 311 312 312 312 312 312 313 314 314 314 315 316 316 316 316 318 318 317 317 315 314 314 315 318 323 325 328 330
311 312 311 311 311 310 310 311 312 312 311 311 311 311 311 311 311 312 312 313 311 312 314 314 314 314 314 313 313 315 314 316 318 320 320 318 316 315 315 317 321 323 325 327
312 313 313 312 310 310 310 311 311 312 311 312 312 314 311 311 311 313 312 311 311 314 314 313 314 314 313 313 313 315 313 314 319 322 325 325 318 317 316 315 320 323 324 326
312 313 312 310 310 310 311 311 311 311 312 313 314 313 311 312 312 311 311 311 313 313 313 313 315 314 313 312 312 312 313 314 317 323 327 329 324 320 317 315 320 323 326 332
310 312 312 312 310 311 311 311 311 312 314 313 313 313 313 313 313 312 312 312 314 313 313 312 313 311 310 311 311 312 312 313 319 325 328 332 328 322 316 315 321 326 332 336
310 312 312 311 311 311 311 310 310 312 313 314 313 313 313 314 314 313 312 313 313 313 312 312 312 312 310 310 312 313 312 313 316 325 330 333 333 327 318 318 324 332 336 333
310 311 311 311 311 312 312 312 312 312 312 312 313 314 314 313 312 312 313 313 313 313 312 312 312 312 311 310 311 312 311 313 317 325 330 331 332 329 320 322 330 335 333 329
310 311 311 310 309 310 311 311 311 311 312 313 314 313 313 313 313 313 313 313 313 312 312 311 312 311 310 309 310 309 311 313 321 323 334 331 331 332 324 327 333 332 329 328
308 309 310 310 310 312 310 311 312 313 312 312 313 313 313 312 312 313 313 312 313 312 312 312 312 311 310 309 309 309 311 313 322 325 332 332 332 335 328 331 331 329 328 332
307 309 311 312 313 311 311 311 314 313 314 312 313 312 312 311 312 312 312 312 313 312 312 312 312 311 310 309 309 309 310 319 323 333 335 335 337 336 330 331 330 330 333 335
307 307 311 314 315 316 313 312 312 312 314 313 311 311 312 312 314 313 312 312 312 313 312 312 311 310 309 309 308 309 312 321 330 337 341 339 338 333 331 332 331 334 336 339
312 310 311 311 311 312 312 311 312 315 313 311 310 310 311 314 313 312 313 313 312 312 311 311 311 309 309 309 308 311 321 325 328 335 341 341 338 335 334 337 337 341 341 343
309 312 313 313 314 313 312 312 313 312 310 309 310 310 312 311 311 312 312 311 311 310 310 310 309 309 308 309 309 313 322 325 326 331 338 338 341 341 339 339 342 340 343 342
311 311 311 312 312 311 309 309 308 308 309 309 310 310 310 310 310 311 310 310 309 309 309 309 309 308 309 309 309 313 324 326 326 329 334 335 337 340 342 341 340 341 340 333
308 308 309 308 309 309 308 308 308 309 309 310 310 309 309 309 310 309 309 308 307 307 307 308 308 309 309 309 309 313 322 326 327 328 333 334 335 338 339 337 338 338 333 332
307 307 308 309 309 308 308 308 309 309 309 310 309 307 306 306 306 307 306 305 305 305 305 306 307 309 309 309 310 315 322 326 325 327 332 334 334 335 335 335 336 334 333 331
306 306 307 308 306 306 307 308 310 309 308 307 305 305 305 304 305 304 303 303 303 303 304 305 309 309 308 308 312 317 322 325 325 327 330 331 331 334 333 332 332 331 330 330

GFSCGP_850_thetae_078.txt.gz
Theta_e
313 314 315 315 314 313 314 314 314 315 315 314 315 315 316 315 315 315 315 315 315 315 314 315 315 314 312 312 312 312 322 328 331 331 331 336 342 330 336 336 337 328 328 322
313 314 314 313 312 312 313 314 314 314 314 314 314 314 315 315 315 315 315 315 315 315 315 314 314 316 316 311 312 312 312 320 327 329 330 331 327 331 330 327 336 338 331 326
313 313 312 312 312 312 313 314 314 313 313 314 314 315 315 315 315 314 314 315 314 315 314 313 315 317 317 318 313 313 312 312 315 326 330 331 329 328 326 330 329 337 339 336
313 313 312 312 312 313 313 313 312 312 314 314 314 314 315 315 315 315 315 315 315 314 313 315 317 317 316 315 313 313 313 312 313 312 320 328 330 329 329 330 332 345 343 339
313 312 312 312 313 313 313 313 313 313 314 315 314 315 315 315 315 315 315 314 313 314 314 316 316 315 316 315 314 312 312 312 312 312 313 313 317 323 318 329 331 341 345 340
313 313 312 313 313 313 313 313 314 314 315 315 314 315 314 314 315 315 314 312 313 315 315 316 316 316 316 316 317 317 313 312 312 312 313 313 314 318 325 331 332 335 345 341
314 314 313 312 313 314 314 314 315 314 316 315 314 314 314 314 314 314 313 312 312 313 316 316 315 316 316 316 318 319 320 318 312 313 312 314 317 314 315 316 328 335 341 342
315 315 314 313 314 314 315 314 314 314 314 314 314 314 315 314 313 312 312 313 314 315 315 315 315 316 316 317 318 320 320 320 321 314 314 313 315 319 322 321 324 331 337 341
315 315 314 313 313 314 314 314 314 314 314 315 315 314 314 314 313 313 313 314 313 314 313 314 315 316 317 317 318 318 318 318 319 320 318 317 316 314 315 319 322 324 324 339
315 316 314 314 313 313 313 313 314 314 315 316 314 314 314 314 313 313 314 313 313 314 312 313 315 316 317 317 317 316 316 316 318 318 320 321 322 322 316 314 314 316 320 321
314 315 313 314 314 313 314 313 313 314 316 317 315 314 315 314 314 314 314 313 314 313 312 314 315 315 315 316 316 315 315 315 317 318 319 322 323 324 324 316 314 315 316 318
313 314 315 314 313 313 313 313 314 316 315 315 315 315 315 315 314 313 314 313 313 313 313 315 314 314 315 316 314 313 314 315 316 317 319 322 324 326 327 326 315 314 315 316
313 314 315 314 314 313 313 313 313 314 316 316 317 315 315 315 315 314 315 314 313 314 315 315 314 314 315 314 313 312 313 314 316 316 318 320 322 324 329 331 319 316 318 317
312 315 314 315 313 313 314 312 313 314 317 316 314 315 315 315 315 316 315 315 315 315 315 315 315 314 314 314 314 313 312 314 316 316 317 319 321 324 327 331 323 326 332 334
313 315 313 313 312 311 312 312 312 313 315 315 313 314 315 315 316 315 314 314 315 315 315 314 314 314 314 314 314 313 312 313 315 316 316 318 320 323 329 333 332 331 332 334
310 311 311 312 311 310 311 313 313 312 313 313 313 314 314 314 314 315 314 315 314 315 315 314 314 314 314 314 315 312 312 313 314 313 316 317 320 322 327 334 334 333 334 337
309 312 313 313 311 311 313 312 312 313 313 313 314 314 314 315 315 315 314 314 314 314 314 314 314 314 314 314 313 312 311 312 312 313 315 316 319 323 328 335 334 335 336 339
309 310 311 313 311 314 312 312 313 314 315 314 315 315 314 315 314 313 313 313 314 314 314 314 315 314 314 313 313 312 308 310 310 310 311 316 320 324 329 336 334 336 340 343
308 309 311 313 313 312 312 314 314 315 315 314 314 314 315 313 313 313 312 313 313 314 314 314 314 314 313 313 312 309 309 310 309 310 313 318 322 325 333 335 336 342 344 345
310 308 310 313 316 315 314 313 313 313 315 316 315 314 314 313 314 313 313 313 313 313 314 314 313 313 312 312 311 310 310 310 310 315 320 321 323 328 335 336 341 344 343 344
312 311 312 312 315 314 314 313 313 316 315 313 312 312 311 314 314 313 313 312 313 313 313 312 311 311 311 311 310 310 311 311 315 317 321 325 330 333 336 342 344 343 343 343
313 314 314 315 316 315 312 312 314 313 312 312 312 312 311 311 311 311 311 310 311 311 311 310 310 310 310 310 310 311 312 312 315 332 334 335 335 338 339 343 343 343 343 339
314 312 313 313 314 312 311 311 310 310 310 309 310 311 310 310 310 310 309 309 308 309 309 310 309 309 309 310 311 312 312 315 326 331 336 338 337 338 342 342 343 342 340 338
310 309 311 312 312 311 310 310 310 310 310 310 310 310 310 309 309 308 307 307 307 308 309 308 308 308 308 310 312 312 310 319 326 328 333 336 341 339 343 343 341 340 339 339
309 310 310 310 310 307 308 309 308 309 310 310 307 307 307 307 307 306 306 307 306 305 306 306 307 307 308 310 313 312 313 321 326 328 333 336 338 339 341 341 341 341 338 339
306 307 308 308 304 303 304 306 307 309 309 307 307 306 306 304 303 304 304 303 304 306 306 305 306 307 309 312 312 313 316 323 327 328 332 334 335 337 339 338 336 335 333 332

GFSCGP_850_thetae_081.txt.gz
Theta_e
316 317 317 317 318 318 317 317 317 318 318 317 317 317 318 318 317 318 318 318 318 318 318 317 318 317 320 316 319 320 321 325 326 327 328 333 342 344 340 339 341 339 337 335
316 316 316 316 317 316 315 315 316 317 317 317 317 317 317 318 318 317 317 317 317 317 317 317 317 318 321 316 315 318 318 316 324 323 325 327 330 333 336 342 339 342 343 339
316 317 315 315 315 315 315 315 316 317 317 317 316 317 318 318 317 317 316 316 317 317 317 317 317 318 320 320 316 314 317 316 314 324 322 325 326 324 328 330 331 337 341 342
316 316 314 314 314 315 315 316 316 316 316 316 317 318 318 319 318 318 317 317 317 317 317 317 317 318 319 318 318 314 315 313 313 313 320 324 325 322 327 333 331 331 336 337
316 316 315 314 315 315 315 315 316 315 316 316 316 317 317 318 318 318 318 317 317 317 316 316 318 318 318 318 318 317 314 313 313 313 313 315 322 323 324 328 330 332 331 332
316 315 316 315 315 315 315 314 315 316 316 317 317 318 317 317 318 318 318 315 314 315 316 317 318 318 318 318 319 319 317 313 313 313 313 313 313 315 319 325 330 331 332 328
317 317 316 315 315 315 315 316 317 317 317 317 318 317 317 317 317 317 317 316 314 314 315 317 318 317 317 318 319 319 321 322 323 323 320 314 313 313 313 317 322 328 331 328
318 317 317 317 316 315 316 317 319 320 318 317 316 317 318 317 316 315 315 314 315 315 315 317 317 317 317 318 318 319 321 322 322 322 323 323 322 324 323 318 313 315 329 338
319 317 317 316 316 316 316 316 316 317 317 316 317 317 317 317 316 315 314 315 316 316 316 316 315 315 316 317 318 319 320 320 319 320 321 322 323 324 325 323 324 326 321 326
316 318 317 316 316 316 315 316 316 319 319 317 315 315 316 317 316 316 315 315 315 315 315 316 315 314 316 317 318 319 319 318 319 319 319 321 321 324 325 322 317 316 322 331
316 317 317 316 316 316 316 316 316 315 316 319 319 318 317 316 316 316 317 316 315 315 315 315 314 314 315 316 316 317 318 317 317 317 318 320 321 322 324 325 325 322 316 315
316 316 317 316 316 315 316 315 316 319 317 315 315 315 318 317 316 316 316 316 316 316 316 315 315 315 316 316 316 317 317 316 315 316 317 318 319 321 323 326 327 327 326 321
315 317 319 318 316 316 315 315 315 315 316 317 321 319 318 317 317 316 316 316 316 316 316 316 315 316 316 316 316 316 316 316 316 315 315 317 319 320 321 324 326 329 331 328
313 315 316 317 315 316 317 317 316 316 320 317 316 316 316 317 316 317 316 316 316 316 316 316 316 316 316 316 316 316 316 316 316 315 315 318 320 320 320 322 324 327 331 332
314 313 314 314 313 314 315 314 313 313 315 316 316 314 315 316 315 315 316 316 315 316 316 316 316 316 316 316 316 316 317 316 316 315 314 315 317 318 319 321 324 327 330 333
313 316 313 313 312 312 312 313 312 312 313 314 315 316 316 315 313 314 315 316 317 316 315 315 316 316 316 316 316 316 316 316 315 314 313 314 315 316 317 320 322 325 329 335
311 312 314 314 313 313 315 314 314 314 314 314 314 314 316 314 316 316 316 316 315 314 314 315 314 315 316 316 316 317 316 315 315 314 312 313 313 314 316 319 321 324 330 336
311 311 312 315 314 317 313 314 313 315 314 315 316 316 316 317 316 316 316 315 314 314 315 316 316 316 316 316 316 316 316 315 315 313 312 311 312 313 313 314 319 323 329 336
311 312 313 313 313 312 312 314 315 317 317 315 317 317 315 315 315 315 313 313 315 315 315 315 315 314 314 315 316 315 314 313 313 313 310 311 311 310 311 312 317 323 329 336
312 311 314 313 315 316 316 314 314 315 316 318 315 316 316 315 316 315 313 314 313 314 314 313 313 314 314 315 313 313 314 313 313 312 311 311 310 310 312 314 318 326 331 335
315 312 316 315 316 315 316 315 313 316 318 315 314 313 313 315 314 313 313 313 312 313 313 312 312 312 314 313 313 312 311 312 311 311 310 308 309 312 315 317 322 326 334 337
317 315 317 316 317 317 314 314 316 315 313 313 313 312 312 312 312 312 312 312 312 312 312 311 311 311 312 311 312 311 311 310 311 311 309 311 311 314 322 324 327 333 336 341
314 314 316 315 316 314 313 313 312 312 312 312 311 311 311 311 311 310 309 310 309 309 310 310 309 309 309 312 310 309 309 310 313 313 316 319 315 317 320 324 331 336 339 343
312 311 313 314 314 313 311 309 310 311 310 310 310 311 311 310 309 309 308 308 308 308 308 308 308 309 309 309 309 310 310 313 314 320 327 320 319 319 323 332 337 339 341 344
311 311 310 311 311 309 307 306 307 307 307 309 310 310 309 309 307 306 306 306 306 306 306 307 307 308 309 309 310 311 314 314 318 328 333 330 333 336 337 337 338 340 343 342
308 308 310 308 305 304 303 303 303 305 307 308 307 305 305 306 304 304 304 305 305 305 306 306 307 307 308 309 311 314 315 316 325 329 334 336 337 337 338 339 339 339 340 340

GFSCGP_850_thetae_084.txt.gz
Theta_e
316 317 318 318 318 318 319 318 318 318 319 319 318 318 319 318 318 319 320 320 320 320 320 319 319 320 319 321 325 320 318 328 328 329 326 330 329 341 342 341 340 338 338 339
317 317 318 317 317 317 318 318 317 317 317 317 317 318 318 318 319 318 319 319 319 319 319 319 319 319 319 317 315 321 320 319 327 326 324 329 329 328 334 336 343 342 340 340
317 318 318 317 316 317 317 316 316 316 317 317 318 318 318 318 318 318 318 318 318 318 318 319 319 319 321 322 318 315 317 318 316 323 323 324 325 326 325 327 329 334 338 334
317 317 317 317 316 316 315 316 316 316 317 317 317 319 318 319 320 320 319 318 318 317 318 318 319 319 321 321 321 318 315 317 317 315 318 322 322 325 326 324 326 328 330 339
317 317 317 316 316 316 316 316 316 316 316 317 317 317 318 319 319 319 321 318 318 318 318 319 319 318 319 320 319 320 316 312 313 315 316 318 321 323 324 323 326 327 330 338
317 316 317 317 317 316 316 316 316 316 316 317 316 317 318 319 320 320 320 318 318 318 318 318 317 318 319 319 319 319 320 320 313 312 313 313 313 317 320 323 325 327 328 327
318 319 318 317 317 317 316 316 317 317 318 319 318 319 321 321 318 318 319 318 317 315 316 317 318 320 319 319 319 319 319 319 323 323 316 313 313 313 313 314 316 325 327 323
318 318 318 318 318 318 317 317 318 319 321 320 319 319 318 319 319 317 317 317 316 315 315 316 317 319 318 318 319 319 319 320 322 322 323 323 321 318 313 313 313 316 326 325
319 318 318 318 318 317 318 319 317 318 319 321 320 318 318 319 320 319 317 316 315 315 316 316 317 317 317 317 318 319 319 319 321 321 319 320 320 319 317 317 316 319 322 324
316 317 316 317 317 317 317 317 317 318 321 321 317 317 317 319 319 318 316 316 316 316 316 315 317 317 316 315 315 318 319 320 320 320 320 319 319 321 321 320 316 315 314 316
316 317 317 317 317 317 317 319 318 317 318 321 319 317 319 319 318 318 318 316 316 316 316 316 316 316 316 315 315 317 318 319 319 319 318 318 318 318 320 321 321 321 320 316
317 318 318 318 317 317 317 317 318 321 320 320 319 319 318 318 318 318 318 316 316 316 316 317 317 316 316 316 316 316 317 317 317 318 317 316 317 318 320 320 320 322 325 326
317 317 319 317 316 317 318 317 316 318 319 320 322 320 317 319 318 316 317 315 317 317 317 316 316 317 316 316 317 316 316 317 318 317 317 317 316 315 317 320 319 320 324 328
314 315 316 317 314 316 316 317 317 316 319 320 319 317 316 318 318 317 316 315 315 317 316 317 317 316 317 317 317 317 317 317 318 317 317 317 316 315 316 321 322 322 321 322
314 316 316 315 314 313 313 314 314 317 317 319 317 315 316 317 318 318 316 315 316 315 316 316 317 317 317 318 318 318 317 318 317 316 318 318 316 315 314 315 317 319 321 322
315 317 315 314 313 313 312 312 312 312 314 316 314 314 315 316 315 315 315 316 317 317 317 317 317 316 316 317 317 318 317 318 318 317 317 317 316 315 314 316 317 316 318 323
311 311 312 312 311 312 314 315 315 313 315 314 315 317 318 317 317 317 316 317 317 317 317 316 315 316 317 317 317 317 318 317 317 317 318 316 316 315 314 314 314 315 315 318
310 310 312 314 312 315 312 314 315 315 316 316 316 318 317 317 316 316 316 316 317 316 316 316 316 317 317 317 316 315 315 316 318 317 318 316 316 315 314 312 313 313 314 315
312 312 315 315 315 313 312 316 316 316 315 317 317 316 315 315 315 315 315 315 315 314 314 314 315 315 315 315 314 314 315 314 315 317 316 315 315 314 313 312 311 312 313 313
314 314 315 315 315 314 318 315 315 315 320 316 315 315 315 314 315 314 314 313 313 313 314 313 313 313 314 315 314 314 315 315 317 316 315 315 314 314 312 312 311 311 310 311
316 314 313 315 316 314 316 316 315 316 318 315 313 314 314 314 314 313 313 313 313 312 311 311 311 312 312 313 312 311 311 311 311 314 313 314 314 313 312 311 311 311 311 311
316 316 317 317 317 318 314 315 316 315 312 312 313 312 312 312 312 312 312 312 312 311 311 310 310 310 311 311 311 310 310 311 312 311 310 310 310 310 309 309 311 309 309 313
316 315 318 316 317 316 313 312 310 310 310 310 310 309 309 309 309 311 311 311 310 309 308 307 309 310 309 309 309 308 309 310 310 309 308 309 310 309 308 310 310 310 313 315
313 312 313 314 314 312 309 308 308 308 306 306 306 307 308 308 308 308 308 307 307 307 306 307 307 307 307 308 308 308 309 309 308 309 313 314 318 316 310 310 311 313 319 320
313 313 312 311 311 307 307 306 305 304 305 306 305 304 303 303 304 304 304 305 306 305 305 306 306 306 306 306 307 308 309 310 311 314 319 320 316 316 311 310 312 318 324 329
310 310 310 310 306 305 304 303 303 305 305 304 302 303 301 301 301 302 302 302 303 303 304 304 304 305 306 306 308 309 311 312 315 321 328 319 318 316 315 319 321 325 330 334

GFSCGP_850_thetae_087.txt.gz
Theta_e
314 312 313 313 314 314 315 316 316 317 316 314 314 314 315 317 317 317 317 318 318 320 320 320 320 320 319 323 325 327 330 330 327 327 327 327 328 333 335 336 335 332 333 338
313 312 315 316 317 316 315 314 314 315 315 315 313 314 314 315 316 317 318 317 317 319 319 320 320 319 320 321 322 321 318 333 335 328 329 328 327 327 335 334 344 342 339 335
313 315 317 317 316 316 314 314 315 315 315 315 314 314 314 316 317 317 317 317 318 317 319 320 320 319 320 320 319 318 320 320 327 335 333 330 329 327 327 330 331 333 332 334
313 315 316 315 315 315 313 314 315 315 314 313 314 314 314 314 315 316 316 317 317 317 317 320 320 319 319 319 319 318 316 318 319 319 322 329 328 328 326 327 326 326 325 326
314 315 314 315 316 316 314 315 314 315 313 312 313 312 314 314 315 315 316 317 318 318 317 318 320 320 321 321 320 319 318 316 314 315 316 317 316 320 324 325 326 325 325 327
313 315 315 315 316 316 316 314 313 313 311 313 313 313 314 314 316 318 317 318 318 318 319 320 320 319 320 320 320 318 317 315 315 313 313 313 314 314 316 323 324 325 326 325
315 315 316 317 315 315 315 313 313 313 312 314 314 315 315 317 318 317 317 317 318 318 318 318 318 318 319 319 318 318 319 319 318 318 315 314 314 314 313 314 315 322 324 326
317 317 317 318 316 316 316 316 316 318 315 316 316 318 317 317 317 317 317 318 316 315 317 317 317 317 318 319 318 318 319 319 319 319 320 322 321 321 318 317 316 313 314 322
316 316 316 316 316 315 316 316 316 317 318 318 315 316 316 317 317 317 316 317 315 315 315 315 318 318 319 319 319 318 319 318 318 318 320 321 320 319 319 317 317 316 315 317
315 316 316 316 316 315 314 316 315 317 322 321 318 317 315 317 317 317 317 316 316 316 316 316 317 318 318 316 315 317 318 318 318 319 319 318 317 318 318 319 322 321 318 318
315 315 316 317 315 315 315 314 315 318 317 320 318 314 317 318 316 315 315 317 315 315 316 316 316 316 316 316 316 315 315 316 318 319 319 319 319 318 316 315 317 318 319 319
315 315 316 317 315 315 314 316 316 321 321 319 320 319 316 316 316 316 316 316 316 316 315 316 315 315 316 317 316 316 315 317 318 318 319 319 318 317 316 315 314 315 320 320
315 315 316 316 314 313 316 316 316 317 316 318 320 319 317 316 317 315 316 316 316 316 315 316 317 316 316 317 316 315 315 317 317 318 319 318 317 316 316 316 316 314 315 319
316 314 316 318 316 313 315 314 313 316 318 317 318 316 315 315 317 315 316 315 315 316 315 316 315 316 316 316 316 317 317 317 317 317 318 318 317 317 317 317 316 316 314 318
313 315 315 315 316 316 315 313 312 312 313 317 314 316 314 314 315 313 316 315 315 315 315 315 315 315 317 317 317 317 317 317 317 317 318 317 317 317 317 317 317 317 316 313
311 314 314 315 313 311 311 311 311 312 313 313 314 314 314 315 316 315 316 316 317 317 317 316 317 316 316 318 318 318 318 319 318 318 318 317 317 317 317 317 316 315 315 314
307 308 308 309 310 310 311 310 312 314 313 316 316 315 315 316 315 315 316 316 316 317 316 315 314 315 316 316 317 316 316 316 317 317 318 318 318 318 317 316 316 314 314 314
308 308 308 309 310 312 311 314 314 313 315 316 316 317 315 314 315 315 314 314 314 314 314 314 313 313 313 313 314 314 314 315 315 314 314 314 314 317 318 317 316 315 315 314
312 310 308 309 309 312 312 315 315 316 316 315 313 313 314 314 313 313 314 313 312 313 313 313 313 313 313 312 313 313 313 313 314 315 314 313 313 315 317 317 316 316 315 314
312 311 308 308 310 310 316 316 315 315 316 313 312 312 312 312 313 312 312 311 311 312 312 312 312 312 311 311 311 312 312 312 312 313 315 316 316 316 316 316 316 315 315 314
314 312 308 309 308 313 314 314 312 316 315 310 310 310 309 309 309 309 308 308 308 309 311 311 311 311 310 310 309 309 310 310 311 311 311 310 310 311 313 316 316 315 314 313
313 312 313 315 314 310 311 312 313 310 308 307 307 306 306 306 307 307 307 307 308 308 309 310 309 308 308 307 307 308 309 309 309 309 309 309 309 311 312 313 314 315 314 313
312 314 315 312 311 311 308 309 307 305 305 305 305 305 305 305 304 304 303 303 304 305 305 306 305 306 307 306 306 306 307 308 308 308 308 309 309 310 311 311 311 313 313 312
311 312 311 311 312 307 306 307 305 304 304 304 305 305 303 303 303 302 303 302 302 301 303 303 303 304 305 306 306 306 306 307 307 308 308 308 309 309 309 308 310 310 311 311
312 311 308 308 308 306 307 305 304 304 305 304 305 303 302 302 301 301 301 300 300 301 302 302 302 303 303 304 306 308 309 309 309 310 311 311 311 313 313 312 310 310 309 309
309 308 308 308 306 305 304 303 303 304 304 304 304 302 300 301 300 298 298 299 299 300 300 301 302 303 305 307 308 310 310 311 311 311 315 316 315 311 316 315 312 311 310 309

GFSCGP_850_thetae_090.txt.gz
Theta_e
313 310 310 310 310 312 311 311 312 314 315 314 312 311 312 313 315 315 316 316 317 317 317 320 321 322 321 324 324 325 326 328 330 330 329 329 327 329 333 332 331 336 341 340
310 310 311 312 313 314 313 312 312 312 314 314 312 312 312 312 314 316 317 317 317 317 317 318 320 320 320 320 320 320 322 325 329 327 329 329 328 329 331 332 333 337 333 332
310 312 314 314 314 315 313 312 312 313 313 313 313 312 312 313 314 315 316 316 316 316 317 317 318 320 320 320 320 320 322 326 329 331 328 327 327 327 328 330 335 340 338 332
310 311 313 313 313 314 312 313 313 314 313 311 313 313 312 311 312 313 314 316 316 316 316 316 316 319 319 320 321 321 323 322 324 332 331 328 328 329 328 328 329 330 330 332
312 313 312 313 314 314 314 314 313 313 312 310 311 311 312 311 312 312 312 315 317 317 317 317 316 317 321 323 323 323 321 319 319 321 327 333 334 331 330 329 327 327 329 327
312 314 313 313 314 314 314 313 312 311 309 311 310 310 313 312 312 313 315 317 317 317 318 318 316 318 321 320 319 318 318 317 317 315 314 314 316 321 322 325 327 325 326 326
313 313 313 314 313 313 313 311 313 313 313 315 311 311 312 312 314 315 315 317 317 317 317 318 317 321 321 320 319 318 318 317 317 316 316 315 314 313 314 314 314 314 320 325
314 315 315 316 315 313 313 313 314 318 315 316 314 314 314 314 315 316 317 317 316 318 317 320 321 321 320 319 318 318 318 317 317 317 317 317 317 318 318 317 317 315 314 315
314 315 315 316 315 314 314 313 314 316 318 316 317 316 315 315 315 315 315 315 315 317 318 318 319 319 318 317 318 318 318 317 318 317 317 317 317 317 318 317 315 315 315 315
313 314 315 316 316 315 314 315 315 313 322 323 320 318 317 315 315 315 314 313 314 315 315 315 316 317 317 318 318 318 318 317 318 318 318 317 317 317 318 316 315 314 313 316
313 313 315 315 316 315 314 314 317 317 316 322 321 316 314 315 314 314 315 316 316 316 316 316 315 316 315 318 318 317 316 317 318 318 317 318 318 317 317 317 317 316 315 314
314 314 315 315 314 315 314 314 314 314 317 319 318 318 314 315 315 314 314 316 316 316 316 316 316 315 316 317 315 316 315 315 316 315 317 318 318 318 318 318 317 316 316 316
314 314 315 315 313 312 314 315 314 313 313 312 311 314 314 313 314 314 315 315 315 316 316 316 316 316 316 316 317 316 315 315 315 315 316 318 318 318 318 318 317 316 316 316
311 314 314 317 316 314 316 315 314 314 315 313 314 314 314 314 315 314 314 316 315 315 316 315 316 316 316 315 316 316 316 315 315 315 315 318 318 318 319 318 317 316 317 317
311 313 314 313 314 314 314 314 314 313 312 312 311 312 312 313 314 315 315 316 316 315 314 315 315 316 316 315 315 316 316 316 316 316 316 317 317 317 319 318 317 317 317 317
307 309 313 311 311 312 311 309 308 308 309 312 312 313 313 314 315 314 315 314 315 317 316 315 315 316 315 315 317 317 316 317 317 318 318 318 318 318 318 317 317 317 317 317
306 307 307 308 308 309 309 309 310 312 314 314 315 314 314 314 313 313 313 313 313 312 313 313 313 313 313 314 313 314 315 315 315 316 317 317 318 318 318 317 317 317 317 317
305 305 305 306 307 310 308 313 314 315 315 314 313 312 312 312 312 311 311 312 311 311 311 312 312 312 312 312 312 312 312 312 312 312 313 314 314 314 314 315 317 318 317 317
304 305 310 310 305 309 313 316 315 315 316 312 312 311 310 310 309 310 311 310 308 308 308 308 308 308 311 311 311 311 311 311 311 311 311 311 313 313 314 314 314 313 317 317
310 307 306 303 309 309 315 314 312 312 314 309 307 307 306 305 305 305 306 305 306 306 305 306 307 309 309 309 310 310 311 310 310 310 310 311 312 312 313 315 315 314 313 315
310 306 304 307 308 310 312 311 312 315 311 306 304 305 304 304 304 305 305 305 304 304 304 302 303 304 305 308 309 308 308 308 308 308 308 307 308 310 312 313 315 316 316 316
309 314 309 311 315 313 309 309 310 309 306 304 304 303 304 304 304 304 303 302 303 301 301 302 302 303 303 304 304 305 306 306 306 306 306 308 309 309 310 310 310 310 311 314
311 312 310 312 307 308 306 308 306 305 304 303 303 304 304 304 304 303 302 302 301 300 301 301 301 300 302 303 303 303 303 304 305 307 307 307 308 308 308 308 309 309 310 311
308 310 310 308 308 305 306 306 305 304 303 303 304 304 304 303 303 302 300 301 300 299 299 299 300 301 301 302 302 302 303 305 305 307 309 309 309 308 308 308 309 309 310 311
309 309 307 306 305 305 307 306 304 304 303 303 304 303 303 303 300 299 299 299 299 298 299 299 300 300 301 303 305 307 308 308 307 307 309 310 310 309 310 310 310 310 310 310
307 305 301 302 305 305 305 305 304 302 303 303 303 302 302 298 298 298 298 297 298 298 298 299 300 301 302 304 307 311 312 312 311 311 312 311 311 311 312 312 311 310 310 310

GFSCGP_850_thetae_093.txt.gz
Theta_e
311 308 308 309 308 310 310 310 310 311 311 312 311 310 310 312 313 312 315 315 315 316 317 317 318 319 319 321 325 326 326 337 343 342 344 343 340 342 343 343 340 339 339 335
309 308 309 310 310 310 311 311 311 311 311 311 311 311 310 311 312 314 314 315 316 316 316 316 316 318 320 322 324 326 329 330 339 332 333 330 329 333 335 336 338 340 339 335
308 310 311 311 311 312 311 312 312 312 312 311 312 311 311 311 312 313 314 314 314 315 315 316 315 316 320 321 322 324 325 327 331 329 329 329 329 330 332 336 337 336 335 334
309 310 311 311 311 312 311 311 312 312 312 311 311 312 310 310 310 311 313 313 314 314 315 315 316 316 316 318 319 320 321 322 325 328 331 330 330 330 329 331 329 335 334 335
311 311 311 312 312 311 312 312 311 312 311 310 310 308 309 310 310 311 309 313 314 315 317 317 317 318 318 316 317 320 321 322 324 325 330 334 332 328 328 329 328 328 331 333
311 312 311 312 313 312 313 312 311 307 307 310 310 309 311 310 311 310 311 314 315 315 317 317 317 317 317 318 318 322 323 325 324 325 328 332 332 330 328 326 328 328 327 327
313 312 312 313 312 312 313 309 310 311 312 315 311 310 311 310 311 311 310 313 315 316 317 317 318 317 316 317 320 323 322 323 320 317 316 316 315 316 318 322 325 328 329 329
312 314 313 314 312 312 311 310 312 315 314 315 314 315 313 312 312 314 313 315 315 316 318 318 318 318 318 322 324 324 320 317 317 317 317 316 315 315 315 314 312 313 315 315
313 314 314 314 315 314 313 313 311 313 315 315 314 314 314 314 313 313 314 314 312 315 316 319 318 320 321 322 319 319 318 317 317 317 316 316 315 315 315 314 316 315 313 312
313 314 313 314 315 315 314 314 314 313 321 320 317 317 316 314 313 313 313 313 315 314 314 317 317 320 321 320 319 318 318 318 317 317 317 316 315 316 316 315 316 316 314 314
312 311 313 314 315 315 315 316 317 317 317 322 321 316 310 314 313 313 312 313 315 315 315 315 315 316 316 317 319 319 318 318 317 317 317 315 315 316 317 316 316 316 316 316
314 314 315 315 313 314 314 315 316 319 320 319 319 315 312 311 313 313 313 313 313 315 314 315 315 315 316 316 316 317 318 318 318 317 316 316 316 317 318 317 316 316 317 317
312 313 315 315 313 314 315 315 314 314 313 312 315 313 312 310 311 312 312 313 313 315 315 315 314 315 315 315 316 316 316 316 317 318 318 318 317 317 318 318 317 317 317 317
311 313 317 318 316 314 316 315 314 315 316 314 314 313 310 310 310 310 313 314 315 315 316 315 314 315 315 315 315 315 315 315 315 315 315 316 317 318 316 317 318 318 317 317
310 312 311 312 310 312 314 314 312 312 312 312 311 310 309 312 311 313 314 314 314 314 315 315 314 315 315 315 315 315 315 315 317 317 317 316 316 315 317 317 318 318 318 317
307 308 311 310 309 309 309 310 310 309 308 307 310 311 312 312 312 312 311 311 312 311 312 312 312 312 312 312 312 313 314 315 316 316 317 318 317 316 316 318 318 318 319 318
305 306 308 309 307 308 309 308 310 310 313 314 313 314 313 312 310 310 310 310 310 310 310 310 309 309 310 311 311 311 311 312 312 312 313 315 316 316 317 318 318 319 319 319
305 305 305 307 307 310 308 314 314 314 315 314 313 310 308 309 309 307 305 307 309 307 306 306 306 305 306 306 306 306 308 310 311 311 310 311 312 314 314 315 316 316 318 318
305 305 307 308 307 308 311 315 313 313 313 310 309 307 305 305 304 304 304 307 305 305 305 305 304 304 304 305 304 305 307 307 308 309 309 309 310 310 311 311 313 314 314 314
307 306 307 303 311 309 309 312 311 312 314 308 305 303 303 303 304 304 304 304 303 304 304 303 302 303 302 301 302 302 303 304 308 309 309 310 310 310 310 310 310 311 312 314
310 305 308 311 311 309 312 310 309 313 309 305 303 303 303 304 303 303 304 304 303 303 303 302 302 301 300 301 302 303 304 305 306 307 307 308 309 309 309 309 309 309 311 312
307 312 311 311 313 312 309 307 309 306 305 304 303 303 303 303 303 304 303 302 303 303 301 300 301 300 301 301 301 301 301 302 302 303 304 305 305 306 307 307 307 307 309 312
309 310 306 310 307 307 307 305 306 305 304 304 303 303 303 303 303 302 302 302 300 299 299 301 299 299 299 300 300 301 302 302 302 302 303 303 303 304 305 306 307 308 309 310
306 308 309 309 307 306 305 305 305 304 305 304 303 303 303 303 303 302 300 299 298 298 298 298 299 299 299 300 301 302 303 304 304 303 305 306 305 305 306 307 307 307 308 309
305 306 305 306 304 305 305 305 305 304 303 302 302 303 303 303 302 302 299 297 298 298 297 298 298 298 299 300 301 303 305 306 304 306 308 309 310 311 311 311 311 310 309 308
308 306 299 301 303 304 304 304 303 303 303 302 303 303 303 302 302 300 297 296 296 296 297 297 297 298 300 300 301 304 307 307 306 307 309 309 311 311 310 309 308 308 309 310

GFSCGP_850_thetae_096.txt.gz
Theta_e
309 308 307 307 307 309 310 309 309 309 310 311 310 309 309 311 311 312 313 314 315 315 316 316 316 316 317 319 319 325 325 325 330 333 338 341 339 339 341 340 340 333 329 329
308 308 308 308 309 309 309 309 309 310 310 309 309 309 309 308 310 313 314 314 315 315 315 315 315 316 316 317 319 319 325 327 328 336 340 340 341 342 335 340 339 337 338 331
308 309 309 309 310 310 310 310 310 311 311 310 310 310 310 311 311 313 313 314 314 314 314 314 314 315 315 316 316 319 321 327 332 333 339 341 337 338 333 334 332 334 333 337
308 309 309 309 309 308 309 309 311 311 310 310 310 312 309 309 309 309 312 313 314 314 314 315 315 314 315 315 316 316 321 324 331 333 340 337 332 333 330 328 333 331 332 333
310 310 309 310 310 310 310 311 310 311 310 309 310 308 308 308 309 309 309 313 314 314 315 315 317 317 317 317 317 317 317 321 327 334 332 333 330 329 328 331 335 335 334 336
310 311 310 310 311 310 311 312 309 306 306 309 309 309 311 309 309 310 310 312 313 313 313 314 316 317 317 317 316 316 317 317 321 329 336 336 330 330 332 332 331 330 330 329
312 311 310 312 311 311 311 309 309 311 311 315 311 310 310 309 310 309 309 312 315 315 315 315 316 317 317 317 317 317 316 316 319 325 333 336 335 334 334 332 330 331 330 330
311 313 312 312 311 311 309 308 310 314 313 313 312 313 312 310 311 313 314 314 315 315 314 314 316 318 317 317 317 316 315 317 323 327 329 332 333 328 323 319 316 316 315 315
312 313 313 314 314 312 313 312 311 312 312 313 313 312 313 313 313 313 313 313 312 313 315 314 315 319 319 318 318 318 320 324 326 324 318 316 316 316 315 314 313 313 314 313
313 314 313 313 314 314 313 313 315 315 320 319 314 315 315 314 313 312 312 311 312 312 313 315 315 315 319 320 321 323 324 322 318 317 317 316 316 316 315 314 314 314 313 315
312 314 315 313 314 314 314 317 316 316 318 320 320 316 311 312 312 313 310 312 311 312 313 313 315 315 315 318 320 320 318 317 317 317 316 316 316 316 314 314 315 315 315 314
312 314 317 315 314 314 316 316 315 319 320 321 320 316 311 311 312 311 310 310 311 312 313 314 315 315 315 314 315 317 318 319 318 317 316 316 316 316 315 314 315 316 316 316
311 313 315 315 312 314 316 315 315 315 314 315 315 314 309 310 309 309 309 313 313 314 314 315 315 315 315 314 313 314 314 316 318 317 317 317 317 317 317 317 317 317 317 316
311 313 313 314 317 314 315 315 315 315 316 314 315 313 311 309 311 311 312 311 310 312 314 314 313 313 313 313 312 313 314 314 314 315 316 317 317 317 317 317 317 317 318 317
310 313 312 313 311 312 310 309 310 312 313 312 311 310 309 312 311 311 311 310 310 309 311 312 312 313 312 311 311 311 312 312 313 314 316 317 316 315 315 315 316 317 317 317
309 310 310 309 308 308 310 310 310 310 309 309 309 309 311 311 311 309 309 307 306 306 309 309 308 309 311 310 309 308 309 311 311 312 312 313 314 317 317 316 315 315 315 315
305 308 307 308 308 308 309 308 308 309 311 312 313 311 307 307 306 306 306 304 304 304 307 306 305 305 305 305 305 305 305 306 308 309 311 312 312 312 315 317 317 317 316 315
304 304 304 307 307 310 309 313 312 313 313 313 313 310 308 306 304 304 303 304 304 305 304 304 304 303 304 305 305 304 304 305 305 305 306 308 310 311 311 312 313 315 316 317
304 303 304 308 307 308 309 314 313 312 312 311 310 307 304 303 303 303 303 303 303 303 303 303 303 303 303 303 303 303 302 303 304 305 305 306 305 306 309 310 310 311 312 314
305 305 306 306 307 310 308 312 310 310 312 308 305 303 302 302 303 302 302 302 303 303 304 303 302 303 303 302 301 301 301 302 301 302 303 304 304 305 306 308 309 309 309 310
310 306 307 307 307 310 311 310 308 311 307 305 304 303 302 302 301 302 302 303 304 303 302 301 302 302 301 301 300 300 300 301 301 302 302 303 304 305 306 307 308 309 309 310
311 313 310 312 309 309 308 308 309 305 304 304 305 304 303 302 302 303 303 303 303 302 302 301 300 299 299 300 300 300 299 301 301 301 302 303 303 302 302 304 305 306 307 308
309 308 306 306 305 305 306 306 305 305 304 304 304 303 302 302 302 303 303 303 302 302 300 299 298 299 299 298 299 299 300 300 301 301 302 303 304 304 303 303 304 305 306 306
305 307 306 307 307 305 305 305 305 304 304 304 303 302 302 302 303 302 303 301 302 300 298 297 298 298 298 298 298 299 299 300 301 301 302 303 303 305 306 304 304 303 304 305
303 305 304 305 303 305 306 305 304 303 303 303 302 302 303 303 302 303 300 300 300 298 297 297 297 297 297 298 299 300 301 301 301 301 302 303 304 305 306 306 306 306 307 307
305 307 304 301 303 304 304 303 303 303 303 303 302 302 302 302 302 301 299 297 297 296 296 296 296 297 297 298 299 301 302 301 301 302 303 303 304 306 306 306 307 308 311 310

GFSCGP_850_thetae_099.txt.gz
Theta_e
311 314 314 313 313 313 312 313 314 314 315 313 316 316 316 316 315 315 315 316 316 315 315 316 316 316 315 316 318 324 326 327 329 328 329 339 342 342 341 337 330 326 327 328
313 314 314 313 311 312 312 313 314 314 314 314 316 316 316 316 316 315 315 316 316 316 315 314 315 315 315 315 315 317 318 322 329 328 329 338 337 338 340 338 330 330 335 334
314 314 311 311 313 312 313 314 314 314 315 314 314 316 316 316 314 314 314 315 315 314 314 314 314 315 314 314 316 316 316 319 321 327 331 333 341 339 340 336 339 337 334 338
313 313 312 312 313 313 314 314 314 314 315 315 314 316 316 316 316 316 315 316 315 315 315 314 314 315 315 315 314 315 315 316 316 320 330 334 336 339 339 340 336 332 332 335
314 313 312 313 313 312 314 313 314 314 315 315 316 316 316 315 316 317 317 316 316 314 313 313 314 313 314 315 317 317 317 317 316 317 320 329 340 342 340 333 328 330 330 331
314 312 313 314 313 313 314 314 315 313 314 316 316 316 317 317 317 317 316 315 315 316 316 315 316 316 316 316 317 317 317 316 316 316 317 321 329 339 337 334 332 330 333 336
315 315 314 312 314 315 314 315 316 317 317 318 317 317 317 317 317 317 316 316 316 315 315 316 315 315 315 316 317 317 317 317 317 317 317 317 324 337 335 333 337 335 332 331
315 316 314 314 315 316 316 316 317 321 320 319 317 317 318 317 315 316 316 316 314 313 313 314 316 315 316 318 318 318 318 317 317 317 316 316 321 332 336 335 333 332 331 330
316 316 315 315 315 314 316 316 316 317 317 318 318 318 317 317 317 316 316 314 313 312 313 313 314 315 315 315 316 319 320 321 320 318 319 319 324 332 333 331 330 327 318 316
316 317 315 315 315 316 316 316 317 318 320 321 319 319 319 318 317 316 316 313 312 312 312 313 314 314 315 315 315 317 321 323 324 325 326 330 335 331 327 321 316 314 313 313
314 316 316 315 316 317 317 318 318 318 319 322 322 320 318 318 315 314 313 312 313 313 314 314 315 315 315 315 315 314 317 319 318 319 323 322 317 316 315 315 314 314 314 315
313 316 318 317 315 315 316 317 317 323 324 321 322 321 316 315 313 313 313 313 314 313 314 315 315 314 314 314 314 314 314 314 316 318 318 317 317 316 316 315 314 315 315 315
313 316 318 317 315 316 316 316 317 317 316 321 322 320 314 314 314 313 313 313 312 312 313 314 314 314 313 312 313 314 314 314 313 314 317 318 317 317 317 317 317 316 316 316
311 314 315 317 315 316 317 317 315 315 320 318 318 316 314 312 312 313 313 313 311 309 309 310 312 313 312 312 312 312 314 313 312 313 315 315 317 317 316 316 316 317 317 317
311 314 313 312 313 313 311 311 312 312 313 314 312 311 311 311 313 313 312 311 309 308 307 307 310 309 309 309 310 312 312 313 311 311 312 312 313 315 316 315 315 316 317 317
311 311 311 311 310 309 309 309 309 309 310 310 310 311 312 312 311 310 309 308 308 308 307 306 308 307 307 306 306 307 308 311 309 309 310 311 312 312 312 315 316 315 315 315
310 311 310 310 308 309 311 311 310 310 310 310 313 314 314 314 312 310 307 307 306 306 305 305 305 305 305 305 305 305 304 305 305 306 306 308 309 311 313 313 313 316 317 316
309 309 310 310 309 310 312 314 313 313 314 314 315 315 314 311 307 306 306 306 305 305 304 304 304 304 304 305 304 304 304 304 304 305 305 305 305 307 309 310 311 312 313 315
307 308 310 311 311 311 311 314 314 313 313 312 313 312 309 308 307 308 308 306 303 304 304 304 304 304 305 304 303 303 304 304 304 303 303 304 304 305 307 308 309 310 311 312
308 308 310 310 312 314 313 313 311 311 314 310 309 309 309 307 308 308 306 305 303 303 303 303 304 304 303 302 303 303 302 302 303 302 303 303 304 304 305 307 309 310 311 310
309 309 310 310 313 313 312 311 309 314 313 308 307 307 306 307 306 305 304 303 303 303 304 303 303 302 302 302 302 301 300 301 301 302 302 303 304 304 305 306 307 308 310 311
314 313 311 311 312 314 311 310 312 310 307 307 306 306 305 305 304 302 302 303 303 303 303 302 301 302 301 301 300 300 301 300 301 301 302 302 302 303 303 304 305 305 307 308
313 312 312 313 313 310 308 308 307 306 306 305 305 304 304 304 303 303 303 303 302 303 302 300 301 300 299 300 299 300 300 301 301 301 302 302 303 304 304 304 305 306 305 305
309 309 311 310 310 309 307 307 306 306 304 304 304 303 303 303 303 303 303 303 302 301 300 298 299 298 298 298 299 299 299 299 300 300 300 301 301 302 303 303 304 304 305 306
307 307 308 309 309 307 307 307 305 303 303 303 303 303 302 303 302 302 302 302 302 301 298 297 297 297 297 297 298 298 299 299 299 300 300 301 301 302 302 303 303 304 304 305
307 309 311 310 307 306 306 305 304 303 303 303 303 302 302 302 302 302 301 301 300 298 296 296 296 296 297 297 297 298 299 299 299 299 300 300 301 302 303 303 304 305 306 306

GFSCGP_850_thetae_102.txt.gz
Theta_e
315 317 317 317 316 316 315 315 316 317 318 318 319 319 319 319 318 319 318 318 318 318 318 318 319 320 316 316 316 317 320 326 337 348 349 348 347 347 347 346 344 336 329 332
317 316 317 317 316 315 315 316 317 318 318 318 318 319 319 320 319 318 318 318 318 318 318 318 318 318 320 318 315 316 316 318 322 343 345 344 345 345 347 348 347 343 333 330
317 317 315 316 316 316 316 317 317 318 318 318 318 319 319 319 319 318 318 317 318 318 318 318 318 319 319 320 319 315 315 316 317 322 338 345 345 347 346 348 347 339 339 332
317 317 316 316 316 316 317 317 317 317 318 319 319 320 320 320 320 320 319 318 318 318 319 318 318 318 318 319 319 319 315 315 315 316 329 337 342 342 342 344 346 344 337 332
316 316 316 316 316 316 316 317 316 317 318 320 320 321 321 321 320 320 320 319 319 319 319 319 319 319 319 319 320 321 318 317 317 316 316 331 338 337 338 340 342 343 344 334
317 317 316 317 317 316 317 317 318 319 320 321 320 321 321 322 322 322 321 319 319 320 319 319 319 319 319 319 320 323 324 317 317 317 317 319 318 327 333 337 341 344 348 346
318 318 318 317 317 318 317 319 320 322 322 323 322 322 322 321 321 321 320 319 320 318 318 317 318 319 319 320 321 323 324 323 320 317 318 320 332 331 329 329 339 344 345 345
319 319 318 317 318 318 319 320 321 323 324 325 323 324 323 320 319 319 319 319 318 317 316 316 316 317 318 319 319 320 322 325 325 321 319 320 319 330 334 336 338 341 342 342
319 320 317 316 317 318 320 321 320 321 322 323 322 322 322 321 320 319 319 318 317 316 316 316 316 316 317 317 318 319 320 322 326 327 325 322 326 329 333 336 340 341 341 339
319 322 320 320 318 318 318 319 321 321 326 326 323 322 323 321 320 320 319 317 316 316 315 315 315 315 316 316 317 318 319 320 323 324 326 328 330 330 333 335 338 338 335 333
316 318 320 318 318 318 318 320 320 321 324 326 326 323 321 321 320 319 318 316 316 315 315 314 315 315 316 316 316 317 318 319 318 320 323 324 327 330 331 333 335 332 327 320
316 318 321 320 319 318 318 319 319 324 325 325 326 325 320 320 319 317 317 316 315 314 314 314 315 316 316 316 316 316 316 316 317 318 319 322 323 323 323 324 325 323 314 314
316 319 321 319 319 318 318 318 319 319 320 323 326 323 318 317 317 316 314 314 314 314 314 313 313 314 315 316 316 316 316 315 315 315 316 317 321 324 323 323 317 319 318 325
312 317 319 320 319 317 318 317 318 319 321 320 322 321 319 318 315 314 314 315 315 314 313 312 312 312 313 313 312 313 314 314 314 314 313 315 316 318 322 324 321 317 322 323
314 316 316 315 315 314 314 316 317 317 318 320 318 318 317 314 314 314 314 314 314 313 312 312 311 310 311 311 310 310 310 311 312 312 313 312 314 315 317 318 321 317 316 316
313 316 314 314 312 312 312 312 312 313 313 314 315 314 313 314 314 315 315 314 312 311 311 310 310 309 309 308 309 308 309 309 309 309 310 311 312 313 315 317 317 316 316 316
314 313 314 314 312 312 313 313 314 314 313 312 313 314 315 316 316 315 313 311 311 311 310 309 308 308 308 308 308 308 308 308 308 308 308 309 311 311 312 314 317 318 318 315
313 313 313 314 312 313 314 315 315 315 314 314 314 315 315 314 313 312 311 311 311 310 309 308 308 307 307 307 307 307 307 307 307 307 308 308 309 310 310 311 314 316 318 319
311 312 315 315 314 313 313 314 316 316 316 315 315 315 313 312 310 310 310 309 309 309 308 308 307 306 306 306 305 305 304 304 305 306 308 308 308 308 308 309 311 314 315 317
312 310 314 316 315 316 317 315 313 314 316 314 313 312 311 310 311 311 309 308 307 306 306 305 305 305 304 304 304 304 304 304 304 305 305 306 306 307 307 308 309 311 313 315
313 313 314 314 316 315 315 314 312 316 317 312 310 310 309 310 309 308 306 305 305 304 304 305 304 304 304 303 303 303 304 303 304 304 304 304 305 306 307 307 308 309 310 312
313 314 315 314 316 315 313 313 314 314 311 309 309 308 306 306 305 305 305 305 304 304 304 305 304 304 303 302 301 302 303 304 304 303 303 303 302 303 306 307 308 309 310 311
314 313 316 315 315 314 313 312 311 310 309 309 307 306 305 305 304 304 304 304 304 303 304 303 303 303 302 301 301 301 301 303 302 302 302 302 302 303 304 305 305 307 307 309
310 310 312 312 312 312 311 310 310 308 308 306 305 305 304 304 304 304 304 304 304 303 303 302 302 301 299 299 300 300 300 300 300 300 301 301 302 302 303 303 305 306 306 307
308 308 309 310 310 310 310 309 309 308 307 305 305 304 304 303 303 303 303 303 301 300 300 299 299 298 297 297 298 299 300 299 299 299 300 300 300 301 302 302 304 304 305 307
308 310 312 312 309 309 309 308 307 306 305 305 304 303 302 303 302 302 301 300 299 299 298 296 296 296 296 296 296 297 297 297 298 298 298 299 300 300 301 301 302 303 303 304

GFSCGP_850_thetae_105.txt.gz
Theta_e
318 320 320 320 320 319 319 319 319 320 320 319 320 321 321 321 321 321 321 320 321 320 320 320 320 321 322 323 324 326 328 319 348 350 350 351 350 350 350 350 349 350 350 347
320 320 320 320 320 319 319 318 319 320 320 320 321 321 321 322 321 321 321 321 321 320 320 320 320 320 320 322 323 325 326 329 320 338 345 347 347 347 347 348 348 349 349 347
321 321 320 319 319 319 319 319 320 320 320 321 321 321 321 321 321 320 320 320 320 320 320 320 320 320 321 321 322 323 325 327 332 323 336 345 347 346 344 343 346 349 349 348
321 320 320 319 318 318 319 319 319 318 319 320 321 321 323 323 323 323 321 321 321 320 320 320 321 321 321 321 321 321 323 326 324 322 330 332 340 342 340 339 340 343 348 350
320 319 318 318 319 319 318 319 319 319 320 321 321 322 323 324 324 324 323 322 321 321 322 322 321 322 322 321 321 322 323 325 329 329 330 331 332 333 335 338 339 339 344 347
318 318 318 319 320 319 319 319 320 321 322 323 323 324 324 324 325 325 324 323 323 322 322 321 321 321 321 321 322 323 324 327 330 330 331 329 325 334 335 335 337 338 342 344
318 319 319 319 319 319 320 321 322 323 324 324 324 325 326 326 324 324 324 323 323 322 321 320 320 320 320 321 322 323 324 326 328 329 331 331 332 331 330 332 334 334 338 341
321 321 320 320 320 320 321 321 321 324 326 326 325 326 327 326 324 323 321 322 322 321 320 320 319 319 319 320 320 321 322 322 324 327 329 331 331 330 330 330 332 335 332 335
321 322 321 320 320 319 321 322 321 325 326 327 324 325 325 325 325 323 322 321 321 321 320 319 318 318 318 319 319 320 320 322 321 323 327 329 332 332 330 326 328 333 332 333
320 323 321 322 321 322 321 320 322 324 332 329 325 326 326 326 325 324 323 322 321 319 319 319 318 318 318 318 318 319 319 320 320 321 323 325 328 331 333 333 332 331 337 337
319 321 321 320 321 321 321 322 322 322 324 329 329 325 323 324 324 324 323 321 319 318 318 318 318 317 317 317 317 317 318 318 318 320 321 322 325 328 330 333 334 336 338 338
318 322 323 321 320 320 321 321 321 327 327 326 327 329 323 323 323 322 321 319 318 317 317 316 315 315 315 316 317 317 317 318 318 318 318 320 324 326 327 328 331 334 334 335
319 321 324 320 321 321 320 321 321 321 324 326 328 325 321 321 321 319 319 317 316 316 316 316 315 315 314 315 316 316 315 315 317 317 318 318 319 323 327 327 326 328 329 331
315 318 318 322 320 320 321 320 319 320 325 323 323 321 320 319 321 320 317 315 316 316 316 315 315 315 314 314 314 314 314 313 313 314 315 316 318 318 319 323 325 326 325 327
315 318 317 316 316 316 317 317 317 317 318 321 321 320 318 319 319 316 316 316 315 316 315 314 314 313 313 313 312 312 312 312 312 312 313 314 315 317 317 319 318 320 320 324
316 317 317 317 316 315 316 316 315 316 316 316 317 318 317 316 316 316 316 316 316 315 314 313 313 313 312 312 311 311 311 311 311 311 312 312 312 314 316 316 317 316 316 317
315 316 318 319 315 316 316 315 317 315 315 316 316 316 315 316 316 316 315 315 314 313 313 313 313 312 312 311 311 311 310 311 311 311 311 311 311 311 313 315 315 318 317 315
313 314 317 317 315 319 316 317 316 316 316 316 316 316 316 316 315 314 313 312 312 312 312 312 311 311 310 310 308 309 309 309 308 308 308 310 310 310 311 313 314 315 317 319
314 314 316 318 317 317 316 316 317 317 317 316 317 316 315 313 312 312 312 312 311 311 310 309 309 308 308 308 307 306 307 307 306 307 307 307 308 308 311 311 312 313 314 317
315 314 316 316 318 318 320 316 315 315 317 316 314 315 314 313 314 314 310 309 309 308 306 307 307 306 306 306 306 306 306 305 304 305 305 307 307 308 309 310 311 312 312 314
317 316 315 317 318 317 317 316 314 317 318 314 313 313 312 313 311 309 308 307 306 307 307 306 305 305 305 305 305 305 305 304 304 304 305 306 306 306 306 308 309 310 311 312
317 316 317 316 319 318 315 315 316 315 313 312 312 311 310 309 308 308 307 306 306 306 305 306 305 306 305 305 304 305 304 304 303 303 304 304 305 305 306 306 306 308 310 311
315 315 318 316 318 315 314 315 312 311 311 311 311 309 308 308 307 307 306 306 305 305 304 303 303 302 302 302 303 303 303 302 302 303 303 303 303 305 305 305 305 305 307 309
313 313 314 313 314 313 313 312 311 310 310 310 309 308 308 307 306 305 304 304 304 304 302 300 300 299 300 300 300 300 299 299 300 301 302 302 302 303 304 304 304 304 305 307
310 310 311 311 311 312 312 311 310 310 309 309 307 307 306 305 304 305 304 304 303 301 300 298 297 297 297 297 297 297 298 298 298 299 300 300 300 300 301 302 303 304 304 306
310 311 313 314 312 312 311 310 310 309 308 307 307 306 305 305 304 304 303 302 301 300 298 296 295 295 295 294 295 295 296 296 296 297 298 299 299 299 300 301 302 303 304 305

GFSCGP_850_thetae_108.txt.gz
Theta_e
318 319 318 319 320 320 320 320 320 321 322 321 321 321 321 321 321 321 321 322 322 322 321 321 321 321 322 323 323 324 326 321 350 351 350 353 351 356 351 350 353 350 348 347
319 320 320 321 321 321 321 320 320 320 321 321 321 321 321 322 323 322 322 322 322 322 321 321 321 321 321 322 321 323 324 326 325 336 352 353 353 349 353 351 350 351 348 348
320 321 321 321 320 320 320 320 320 320 320 321 321 321 322 322 322 321 322 322 322 322 322 322 322 321 321 321 323 323 322 323 325 331 327 342 342 346 351 351 348 348 348 347
321 321 321 321 320 319 320 320 320 320 320 319 321 322 324 324 324 324 323 322 322 321 321 321 321 322 323 322 322 322 322 323 323 326 329 326 334 343 343 346 348 349 345 346
320 321 321 321 320 320 320 320 319 319 320 320 320 321 321 322 323 324 325 324 323 322 322 323 323 323 323 323 323 322 323 323 322 325 328 332 333 330 333 342 344 340 343 346
319 319 319 320 320 320 320 319 320 320 319 322 320 322 322 324 326 327 327 325 323 323 324 323 322 322 322 322 323 323 324 325 327 329 330 331 329 330 333 336 336 340 339 344
319 319 319 319 319 320 320 320 321 322 323 324 323 324 326 327 327 326 325 325 324 324 323 322 322 321 321 321 321 322 323 323 323 325 328 329 331 331 331 324 331 337 339 340
321 322 320 321 320 320 320 321 321 323 325 323 325 327 326 327 326 326 326 324 324 323 322 322 321 321 320 320 320 321 321 321 322 323 323 326 329 329 330 331 330 324 326 329
322 322 321 322 322 322 320 320 321 324 326 327 325 325 325 327 327 326 325 323 323 323 322 321 321 320 319 319 319 320 320 320 321 322 321 321 325 327 328 328 328 328 325 324
321 323 321 321 321 322 322 322 323 325 333 328 325 326 326 326 326 326 325 323 322 322 321 320 320 320 319 319 319 319 319 320 320 320 320 322 322 323 327 328 331 330 330 327
321 322 322 321 321 321 322 323 324 325 324 328 327 325 325 326 326 326 325 323 322 321 320 320 319 318 318 317 316 317 318 319 319 318 319 319 319 321 324 327 328 327 329 331
320 322 324 321 319 320 321 322 323 328 327 326 328 329 325 324 323 323 323 322 321 320 318 318 318 317 316 315 316 316 317 317 317 317 318 319 319 318 320 324 326 327 327 330
321 321 322 318 317 322 322 322 323 324 325 327 329 325 322 323 321 321 321 321 320 318 317 317 317 317 316 316 316 315 315 316 315 315 315 315 317 317 318 319 323 327 327 327
316 318 318 320 318 319 319 320 320 321 322 324 324 322 321 321 322 321 321 319 318 317 317 317 316 316 316 315 315 315 314 314 314 314 313 313 314 315 316 318 318 319 324 326
315 317 318 317 316 316 316 317 317 318 319 322 320 318 319 320 320 318 318 318 317 317 318 317 316 315 314 314 314 314 314 313 313 312 312 313 313 313 313 314 317 317 318 320
315 318 317 318 316 316 317 317 317 317 317 317 317 317 318 317 317 317 318 318 316 316 316 315 315 314 314 314 314 314 313 313 313 312 312 312 313 313 312 312 313 315 317 317
317 318 316 317 316 318 319 317 317 317 318 318 317 317 317 317 317 317 316 315 314 314 313 314 313 313 313 312 311 311 311 311 311 311 311 311 311 311 311 312 312 313 315 317
315 315 315 316 316 318 316 318 319 318 316 318 319 317 317 316 315 314 313 313 313 312 312 311 311 310 309 309 309 309 308 309 309 309 309 309 309 309 308 309 310 311 312 315
315 316 318 317 317 317 316 318 318 318 317 318 318 317 316 315 313 313 313 312 311 310 309 308 308 308 308 307 307 307 306 306 307 307 307 307 307 306 307 307 309 309 311 313
317 317 315 317 318 318 320 318 316 314 316 317 316 316 315 313 314 314 312 310 310 309 308 308 308 307 307 307 307 306 307 306 306 307 306 306 305 306 306 306 308 309 311 313
318 318 316 315 316 315 317 317 316 318 319 315 314 313 313 314 313 311 310 310 309 308 307 307 307 307 306 305 305 305 305 306 306 306 306 305 305 304 304 306 307 308 308 310
319 319 317 317 317 318 315 316 318 316 314 313 312 312 312 311 310 310 309 308 307 306 306 306 306 306 304 302 300 303 302 301 304 303 304 304 302 303 304 306 306 305 306 307
317 317 317 317 318 315 314 315 314 313 313 312 312 311 310 309 309 308 307 306 306 306 306 306 304 302 301 299 299 298 301 301 301 301 301 301 301 302 303 304 305 306 306 307
314 314 316 314 314 314 313 313 313 312 311 311 311 309 309 309 308 307 306 306 305 305 304 304 302 300 298 296 296 296 297 297 298 298 299 299 301 302 303 303 304 305 306 305
312 311 312 312 312 314 313 312 311 311 311 310 309 309 308 308 307 306 305 304 304 304 303 301 298 296 295 294 294 294 294 295 296 296 297 298 299 300 302 302 302 303 304 305
310 312 313 313 312 312 312 311 310 310 310 308 308 308 308 307 306 304 304 304 304 302 300 297 295 295 293 293 293 293 293 294 294 295 296 296 297 298 299 301 301 301 302 303

GFSCGP_850_thetae_111.txt.gz
Theta_e
318 314 313 314 314 315 316 317 317 317 318 318 316 317 317 319 319 319 321 321 321 321 321 321 321 320 320 322 322 323 323 322 322 341 348 348 349 348 348 350 349 348 348 345
316 315 316 318 318 318 317 316 316 318 319 318 316 317 318 318 319 320 321 321 321 321 321 321 321 321 321 321 322 322 321 321 320 322 332 346 347 346 346 345 349 348 347 347
315 317 319 320 319 319 318 318 318 319 319 318 317 317 318 320 320 321 321 321 321 321 322 322 321 321 321 321 322 323 323 322 321 321 321 321 337 348 347 348 346 346 345 344
317 318 319 319 320 319 317 318 318 319 318 317 318 317 316 319 319 319 320 321 321 321 321 321 323 324 324 323 322 322 322 324 323 322 324 323 321 324 338 341 344 345 347 343
318 319 318 318 320 320 318 319 318 318 316 317 317 315 316 319 319 319 318 321 321 321 321 322 323 323 323 323 322 322 322 322 325 327 327 327 328 327 326 330 337 340 338 341
317 318 318 318 319 319 319 318 317 317 316 316 316 317 316 318 319 320 324 324 322 322 323 323 322 322 322 322 322 322 323 323 324 326 328 328 329 329 328 323 328 332 336 336
317 318 318 319 317 317 318 317 317 317 317 317 317 319 317 321 323 325 324 323 323 323 322 322 321 321 321 321 321 322 322 322 322 322 322 324 324 326 328 329 327 322 324 329
319 321 321 321 321 321 320 319 318 321 321 322 322 323 322 322 325 324 324 323 323 322 321 321 321 320 320 320 320 320 320 321 321 321 321 322 322 322 326 327 328 324 320 321
321 322 321 321 321 322 322 320 321 322 323 322 322 322 321 323 324 324 324 323 322 321 321 321 320 320 319 319 319 319 319 319 320 319 320 320 321 321 321 323 328 330 328 322
320 321 320 321 320 320 321 321 324 324 329 327 323 323 325 326 325 324 323 322 322 321 320 320 319 319 319 319 317 317 317 319 320 319 319 319 318 319 321 322 322 326 329 328
321 322 322 320 320 320 319 319 322 322 323 328 323 321 324 324 322 322 321 321 322 321 320 320 319 318 317 317 317 316 316 316 318 319 318 318 319 319 318 318 317 318 324 327
319 320 321 320 317 317 317 318 322 325 327 324 325 324 321 321 320 320 320 319 320 321 319 318 317 317 317 317 317 316 315 315 316 316 316 316 316 315 317 318 317 316 315 321
317 318 318 316 314 319 321 319 320 320 322 325 327 323 321 321 321 320 319 319 321 320 320 318 317 317 317 317 316 316 315 315 315 315 315 315 314 314 314 313 314 314 315 316
315 316 316 314 315 315 316 316 316 320 320 321 322 321 319 319 321 318 319 319 320 318 317 317 317 317 316 315 315 315 315 314 314 314 314 313 313 313 313 313 313 313 313 314
313 314 315 315 316 316 315 315 314 314 317 319 318 319 318 317 316 318 318 318 318 317 317 316 316 316 315 314 314 314 314 314 314 313 313 313 312 312 312 312 312 312 312 312
315 314 316 316 315 315 315 316 317 317 317 316 315 316 315 316 316 316 316 316 316 313 313 312 312 312 311 311 311 310 310 310 311 312 312 311 311 312 312 312 313 313 313 313
314 315 316 315 314 314 314 315 316 318 318 318 318 318 315 315 314 315 314 313 312 311 311 311 310 310 309 308 308 308 308 308 309 308 309 309 310 310 310 310 310 310 311 311
315 314 314 315 313 315 313 315 318 318 318 318 318 317 317 316 314 313 313 311 311 310 310 310 309 309 308 308 308 308 307 307 307 306 306 306 307 307 308 308 308 308 308 308
313 313 316 313 311 314 314 318 319 318 318 317 316 315 314 313 312 312 312 310 310 310 310 309 308 308 308 307 307 307 307 307 307 306 307 307 307 307 306 307 306 306 306 306
315 314 315 312 315 315 317 318 316 316 315 315 314 313 312 312 312 311 310 309 310 309 307 306 306 305 307 307 307 306 306 305 304 303 304 306 306 306 307 306 305 305 305 305
317 316 316 316 316 314 317 316 315 319 317 314 314 312 312 311 310 310 309 309 307 307 306 306 306 307 306 306 305 303 302 301 300 302 303 303 304 307 307 306 306 305 304 304
316 317 315 315 315 316 315 315 317 315 314 313 312 311 311 309 309 309 308 308 307 306 306 305 305 304 304 303 301 300 299 298 298 298 300 301 303 303 303 305 305 304 304 306
315 315 317 316 316 315 314 315 314 314 313 311 311 310 309 309 309 308 308 307 306 305 304 304 304 303 301 300 297 298 296 295 295 296 297 298 300 301 302 302 302 302 303 306
313 313 315 314 313 313 314 313 312 312 311 310 310 308 309 308 308 308 307 305 304 304 304 303 302 300 298 296 295 294 294 294 294 294 294 295 296 297 298 299 301 302 303 305
311 312 311 311 312 313 312 311 311 311 311 311 308 308 308 308 308 307 305 304 304 304 302 300 299 296 295 294 293 293 293 293 293 293 294 294 295 296 298 299 300 301 303 304
309 311 311 311 310 311 312 312 310 310 310 308 308 308 308 307 306 305 304 304 303 301 299 298 295 294 293 292 293 293 292 292 292 293 293 294 294 295 296 297 297 299 301 303

GFSCGP_850_thetae_114.txt.gz
Theta_e
316 313 313 313 313 313 314 314 314 315 315 316 314 314 314 315 316 315 319 320 319 320 320 320 320 320 321 321 323 324 329 328 326 326 338 345 347 345 346 348 346 348 347 345
314 313 313 314 314 315 315 314 314 314 316 315 316 316 316 316 316 318 319 320 320 320 320 321 320 321 320 321 322 323 324 323 321 321 320 330 338 343 345 345 344 343 344 345
313 314 315 316 316 317 316 315 315 316 317 317 317 315 315 315 318 319 319 320 320 320 321 320 320 320 321 321 322 323 322 322 321 321 320 320 321 327 335 343 345 344 344 344
313 315 315 316 317 317 317 317 317 317 316 314 316 314 314 314 314 316 319 319 320 320 320 321 320 320 321 323 323 323 322 322 322 321 321 321 321 320 319 319 320 324 332 336
315 317 317 317 317 317 316 316 317 317 316 314 314 313 313 314 315 314 315 319 323 324 321 321 321 322 323 324 323 322 322 322 322 323 322 324 327 327 326 325 323 322 324 326
316 317 317 317 317 317 317 317 315 313 312 314 314 313 313 314 315 315 317 322 323 321 319 322 323 322 322 322 322 322 322 324 325 326 326 325 325 326 326 325 325 324 323 323
316 316 316 317 318 318 316 313 314 315 314 316 318 320 314 316 323 322 321 320 321 321 322 322 322 322 321 321 321 321 322 322 322 322 322 322 321 320 322 323 323 323 321 321
317 320 320 320 320 321 320 316 314 319 318 318 320 320 320 322 323 322 321 319 321 321 320 320 320 320 320 320 320 320 320 319 319 319 319 319 318 318 320 320 321 320 321 324
317 321 320 320 320 319 321 321 318 319 320 320 319 319 318 323 322 322 321 320 319 320 320 320 319 319 319 319 319 319 319 319 319 319 318 318 318 318 318 318 318 317 320 319
320 320 319 320 318 318 319 319 321 318 320 322 321 321 321 324 323 322 322 322 320 319 319 319 319 318 318 318 317 317 316 316 316 316 317 319 319 319 318 318 316 317 317 317
318 318 319 318 319 318 315 316 319 319 324 326 323 319 320 320 320 320 320 321 323 323 323 320 317 317 317 317 317 317 317 316 315 316 319 318 318 318 318 318 317 317 316 316
317 317 319 319 316 315 315 318 320 321 324 325 325 323 318 318 317 319 319 319 319 320 321 321 320 319 319 319 319 317 317 316 315 315 317 317 316 316 316 316 316 316 315 314
316 315 315 312 311 313 317 318 318 319 317 321 325 322 319 318 316 317 318 317 318 320 319 319 318 317 316 316 316 315 315 315 315 315 315 315 314 314 314 314 314 314 314 313
314 313 313 312 311 313 315 315 314 318 318 318 319 318 316 316 317 319 318 317 318 318 316 315 315 315 315 315 314 314 314 314 314 314 314 313 313 313 312 312 312 312 312 312
310 311 313 313 314 315 314 315 314 313 313 316 315 315 314 314 315 315 316 316 314 313 313 312 312 312 312 313 313 312 312 312 312 311 311 311 311 311 312 312 313 312 312 311
310 311 314 315 315 314 315 314 313 314 315 314 314 315 314 315 314 314 312 311 311 310 310 310 310 310 310 310 309 308 307 307 306 307 307 307 307 307 308 309 310 311 311 312
311 311 311 313 313 312 313 312 312 314 317 317 318 317 314 314 313 311 311 310 310 310 310 310 310 309 308 308 308 307 308 308 307 307 307 307 306 306 306 307 307 307 308 310
311 311 313 313 310 314 311 314 317 319 318 317 317 317 315 314 313 312 311 310 309 310 309 308 307 307 307 306 305 306 306 306 306 307 306 306 306 306 306 306 306 307 307 306
311 311 313 311 308 311 312 318 317 316 317 316 316 315 313 312 312 311 311 309 309 309 308 307 307 306 305 305 306 306 307 307 306 306 305 304 304 304 303 304 306 307 306 306
312 313 314 313 314 314 316 317 315 315 314 315 314 312 310 310 310 308 309 309 308 308 307 306 306 305 305 305 305 304 303 303 302 301 301 301 300 301 303 304 305 306 306 306
316 315 316 315 315 313 314 315 315 314 313 313 313 311 310 309 308 309 308 308 308 307 306 305 304 304 304 304 303 303 301 300 299 298 299 298 298 298 300 300 302 303 306 306
314 315 314 314 316 316 313 314 315 312 314 313 311 311 310 308 308 308 308 307 307 306 305 304 303 304 303 301 301 300 298 297 296 296 296 295 295 296 298 300 302 303 303 305
309 311 315 313 315 313 313 313 314 313 312 312 310 310 308 308 308 307 307 307 306 305 304 304 303 301 299 299 298 296 296 295 294 294 294 294 294 295 296 297 299 302 302 303
310 313 314 312 313 313 312 312 312 311 311 311 310 308 308 308 307 307 306 305 304 304 304 303 300 298 298 296 295 294 294 293 293 293 293 293 294 294 294 295 296 297 299 300
306 309 309 309 310 310 312 311 312 310 310 310 308 308 307 307 306 305 306 305 304 303 302 299 297 297 295 294 294 293 293 293 292 292 292 293 293 293 294 295 296 297 299 300
306 305 307 307 310 309 310 310 309 309 309 308 307 307 306 305 305 305 304 304 303 301 298 297 295 294 294 293 293 295 294 292 292 292 292 292 293 293 294 294 295 296 297 299

GFSCGP_850_thetae_117.txt.gz
Theta_e
315 313 313 314 313 313 314 313 314 314 314 315 313 313 314 315 316 313 315 317 318 319 320 320 319 320 320 320 324 326 333 337 342 340 337 337 337 336 345 343 343 344 344 343
312 313 313 313 313 314 314 314 313 313 313 312 313 314 313 315 315 315 315 317 319 319 320 320 320 320 320 320 321 322 324 330 329 331 332 335 335 338 336 340 344 343 341 338
312 314 314 314 314 315 314 314 313 314 315 314 315 313 314 315 316 317 318 318 318 318 319 319 320 320 320 320 321 322 322 323 328 325 322 321 321 322 327 332 336 335 337 337
312 313 314 314 315 314 314 314 316 315 315 313 314 313 312 313 313 314 316 318 319 319 319 320 321 320 319 320 321 324 328 335 325 321 320 320 320 320 320 320 321 322 322 322
314 316 316 315 315 315 314 315 315 315 314 313 313 311 311 312 314 313 315 320 322 322 322 323 323 321 319 320 323 329 330 324 322 322 322 322 321 322 323 323 324 325 325 324
314 316 316 315 316 317 317 315 311 310 310 313 313 313 311 313 315 318 319 319 319 320 320 320 320 319 320 322 323 323 323 325 327 326 326 325 324 324 323 320 319 320 321 321
315 316 315 316 316 317 314 311 312 313 313 314 316 316 314 317 322 321 319 318 319 321 322 324 324 325 325 326 325 325 325 325 325 324 322 322 321 319 318 317 318 320 319 318
315 319 319 319 319 319 318 313 313 316 315 315 317 318 318 321 320 318 318 318 318 318 319 321 321 321 320 321 321 321 320 320 319 319 319 319 319 318 317 317 318 318 318 317
317 320 319 319 319 319 320 319 315 317 317 319 317 317 318 320 320 321 321 320 319 318 318 318 319 320 320 319 319 319 319 319 319 319 318 318 318 317 317 318 318 318 317 316
318 319 319 319 318 316 317 317 320 317 321 320 318 319 318 322 321 320 319 320 322 321 321 322 318 317 317 318 318 317 317 317 317 316 316 315 317 319 319 319 318 318 317 316
317 316 318 317 317 317 315 315 316 315 317 318 321 319 316 319 319 318 317 318 319 320 321 322 321 322 321 318 317 317 316 316 316 315 315 315 317 317 317 318 317 317 316 316
316 315 318 318 314 314 314 317 315 313 318 322 325 321 317 316 315 315 315 316 316 316 317 320 320 320 322 321 318 318 318 317 316 315 315 316 317 317 317 317 316 316 316 315
314 313 313 309 310 312 315 317 316 314 313 318 317 318 316 314 314 314 315 316 317 316 318 319 318 318 317 317 316 315 315 315 315 314 315 315 315 316 315 315 314 314 315 314
314 312 311 310 308 311 314 314 314 313 314 313 316 316 314 313 313 313 314 316 316 315 314 313 313 313 312 312 312 312 313 312 312 312 312 312 312 312 313 312 312 312 312 312
309 311 313 312 312 314 314 314 313 312 312 313 314 313 312 310 310 313 313 313 311 310 310 310 310 310 310 310 309 309 309 308 307 307 307 307 306 306 307 307 307 306 307 309
307 310 313 315 314 313 314 313 313 312 312 312 312 312 311 314 311 310 310 310 310 310 310 310 310 310 309 308 308 308 308 307 305 305 306 306 306 306 306 306 306 306 306 306
310 309 309 312 312 311 311 311 310 310 312 313 315 313 314 314 312 312 310 310 309 309 309 309 308 308 308 307 307 306 304 303 304 305 305 306 306 306 306 306 306 306 306 306
308 307 306 310 309 313 310 310 315 316 317 316 316 315 314 313 312 311 311 309 309 309 308 308 308 307 306 305 304 304 304 304 304 303 303 303 303 303 302 302 303 303 304 304
308 309 313 310 307 310 311 317 316 315 314 315 315 314 314 311 310 311 311 309 309 308 308 308 307 306 305 305 304 303 303 302 301 301 302 302 301 301 300 301 301 301 302 304
309 311 313 313 314 314 310 316 315 314 314 314 314 313 311 309 309 307 310 308 308 308 307 306 306 305 305 304 303 303 301 300 301 301 300 300 299 299 300 299 299 301 302 304
309 310 314 315 315 313 311 313 315 313 309 313 313 313 312 308 308 308 308 308 307 307 306 305 305 304 304 304 302 300 299 300 300 298 297 297 296 296 296 296 296 297 299 300
311 314 314 314 316 316 313 313 314 310 313 313 313 312 310 309 308 308 307 307 307 306 306 305 304 304 303 301 299 299 298 297 296 296 296 296 296 295 295 295 295 296 297 300
310 308 306 308 308 311 312 313 312 312 313 311 311 311 309 308 308 307 307 306 306 305 304 304 304 302 300 299 298 297 296 296 295 295 295 295 295 294 294 294 294 295 296 299
308 311 310 312 310 311 311 310 312 311 311 310 310 309 308 307 307 306 306 305 304 304 304 303 300 298 298 297 296 295 295 294 293 293 293 293 293 294 294 294 294 294 295 297
305 305 307 307 307 310 310 311 311 311 310 310 309 307 307 306 305 305 304 303 304 303 302 299 297 296 296 295 294 294 294 293 292 292 293 293 293 293 293 293 294 294 295 296
303 303 303 304 306 308 309 310 310 310 309 308 307 306 305 304 304 303 303 303 302 300 298 296 295 294 294 293 293 295 294 292 292 294 295 295 293 294 293 293 293 294 295 295

GFSCGP_850_thetae_120.txt.gz
Theta_e
311 311 312 313 313 313 313 313 314 313 313 314 312 312 312 314 315 315 317 316 315 318 319 319 319 319 319 319 320 320 324 326 331 341 345 345 343 339 338 337 344 342 343 343
311 312 312 313 313 313 313 314 313 312 312 312 313 313 312 312 314 315 316 317 316 317 319 319 319 319 319 319 320 320 324 326 327 335 340 343 336 338 338 342 342 342 342 344
312 314 313 313 313 314 313 313 313 313 313 313 314 313 313 314 314 316 315 316 319 318 319 319 319 319 319 319 319 320 321 324 328 333 340 343 342 342 339 339 343 341 339 332
312 312 313 314 314 313 314 313 314 315 314 314 312 313 312 313 312 312 318 321 322 322 322 321 319 319 319 320 319 321 321 323 331 342 344 344 341 341 341 343 335 324 322 322
312 314 314 314 313 313 314 314 314 314 312 312 312 311 311 311 314 314 317 318 320 320 321 321 321 321 322 322 320 320 325 329 338 344 342 328 332 335 328 322 323 323 322 320
313 315 315 315 316 315 315 313 310 308 309 312 312 311 311 312 315 319 317 316 319 321 322 322 321 320 321 320 318 321 330 337 342 330 323 323 322 323 324 322 319 317 317 317
314 315 314 315 315 317 313 310 312 313 313 314 313 315 312 314 319 318 315 316 317 320 322 323 325 326 325 323 326 330 333 331 326 325 325 324 322 320 319 318 317 316 316 316
314 315 317 318 317 317 317 311 311 315 313 313 315 317 315 320 317 318 318 319 319 318 318 320 321 321 321 321 322 322 322 321 321 320 319 319 319 318 318 317 317 316 315 315
316 320 318 318 317 317 319 318 312 314 315 319 316 315 318 319 319 319 319 320 321 321 321 321 318 319 320 320 319 319 319 319 319 318 318 317 317 317 316 316 317 317 317 318
318 320 318 319 317 315 317 316 319 315 319 321 316 318 316 321 319 316 314 315 316 317 317 319 321 321 319 317 317 318 319 317 317 317 316 316 315 316 317 318 317 317 318 317
315 315 318 316 316 316 314 314 314 314 314 316 319 317 313 318 317 316 312 314 314 315 316 316 318 321 321 321 321 321 321 321 318 319 319 318 316 315 317 319 319 318 317 317
315 314 317 317 311 312 313 316 312 313 317 317 321 319 317 314 315 314 313 313 314 315 316 316 317 319 319 319 319 318 316 317 317 314 314 315 315 317 318 319 318 318 318 318
313 311 312 309 310 311 314 316 313 311 310 318 317 315 315 313 312 312 312 313 315 316 316 316 315 315 314 312 311 311 311 312 312 311 311 311 312 312 313 313 314 314 314 314
313 310 311 310 306 311 314 314 313 310 314 311 312 314 314 313 312 311 313 313 312 311 311 310 310 310 310 310 310 310 311 310 310 310 309 309 309 308 308 307 307 308 309 310
308 311 312 312 312 312 312 312 312 311 310 312 312 313 311 310 309 311 312 311 310 310 310 310 310 309 309 309 309 308 308 307 306 306 304 304 303 303 303 303 304 304 304 305
306 310 312 314 312 312 313 312 311 311 311 310 311 312 310 310 310 309 309 310 310 309 309 309 309 309 308 308 308 307 305 305 304 303 302 302 302 302 302 302 302 303 304 305
308 309 309 312 311 310 310 309 309 309 309 309 311 309 313 313 312 311 310 310 310 309 309 309 309 309 308 307 306 305 305 304 303 302 302 302 301 301 302 303 304 304 303 303
307 307 305 309 309 313 309 308 312 311 313 314 315 314 313 312 312 311 311 311 310 309 309 309 308 308 307 306 305 305 304 303 303 302 301 301 302 303 302 302 301 301 301 300
306 305 306 307 307 309 311 315 315 314 313 314 314 314 314 312 309 310 310 310 309 309 308 308 307 306 306 305 305 304 303 303 301 300 301 302 301 301 300 300 299 299 301 301
309 308 306 310 309 313 310 315 315 312 312 311 314 312 311 309 308 306 310 309 308 308 307 307 306 305 305 304 304 303 302 300 300 300 300 300 299 297 297 298 298 297 297 297
308 308 308 312 313 313 311 312 314 312 310 312 313 312 312 307 308 310 308 308 307 307 306 306 305 304 303 303 302 300 299 299 299 298 297 297 296 296 296 295 295 296 296 296
311 314 314 314 316 313 312 313 314 309 311 312 312 312 311 310 310 308 308 307 306 306 305 304 303 303 303 301 298 298 298 298 296 296 297 296 296 295 295 295 296 295 294 295
309 307 306 307 307 308 312 312 311 311 311 312 311 310 310 309 308 307 307 306 305 304 303 303 302 301 300 298 297 296 296 295 295 296 296 296 296 296 296 295 295 295 294 294
307 308 309 310 308 310 311 311 310 310 311 311 310 310 309 307 307 306 305 304 303 303 302 301 300 298 297 297 296 294 294 295 294 294 294 295 295 296 296 296 295 294 294 294
304 304 305 306 305 307 309 309 310 310 311 310 309 308 307 305 305 304 303 303 303 301 300 298 296 296 295 295 295 294 294 293 293 293 293 295 296 296 297 296 295 294 294 294
302 302 302 302 304 306 306 309 309 310 308 308 306 306 305 304 303 303 303 302 301 299 297 296 295 294 293 293 293 293 293 292 291 292 294 296 297 299 299 299 302 300 298 297

GFSCGP_850_thetae_123.txt.gz
Theta_e
310 313 315 316 316 315 316 316 316 316 316 317 317 318 319 317 317 319 319 317 317 316 317 317 317 318 318 319 318 319 319 320 322 324 332 345 345 337 341 342 342 338 343 341
312 315 316 316 315 316 316 317 317 316 315 316 318 318 318 319 318 318 317 317 318 319 319 318 318 319 319 319 318 318 319 320 321 324 331 343 344 340 342 344 342 341 342 343
315 316 315 315 315 317 316 317 317 317 316 316 317 318 318 318 316 316 317 320 321 321 321 320 319 319 319 319 318 319 319 320 322 325 330 340 344 342 344 344 341 342 344 343
316 314 315 316 316 316 317 316 317 317 318 318 315 318 318 318 319 317 322 321 320 320 321 322 322 321 319 319 319 319 319 321 323 328 331 338 344 343 342 342 339 339 338 327
315 315 315 316 316 316 317 316 317 317 318 317 316 318 319 315 318 322 321 320 321 321 323 323 322 322 321 321 320 320 320 321 324 332 342 343 343 341 340 340 338 326 324 323
316 315 317 317 316 316 316 316 315 315 316 319 319 319 319 318 320 324 320 319 319 320 322 325 325 325 323 321 321 319 319 327 335 341 341 336 332 332 330 325 323 320 318 317
316 317 316 316 319 319 316 318 318 319 319 319 316 317 319 318 321 320 320 319 319 319 320 321 322 326 328 327 328 331 333 333 330 327 326 326 324 322 320 319 318 317 317 316
317 317 319 319 318 319 320 319 319 318 318 318 318 320 322 321 319 319 320 321 322 322 321 320 318 320 321 321 322 324 325 324 323 321 320 319 319 318 318 317 317 317 316 316
319 320 319 319 319 320 320 320 317 320 320 321 320 320 323 322 322 320 318 317 318 319 319 320 321 318 318 318 317 318 319 318 318 317 317 317 317 316 316 316 316 317 317 317
319 322 320 319 318 318 321 319 324 323 325 323 322 322 321 325 323 319 318 316 316 316 317 318 318 320 321 318 318 318 319 320 320 319 318 319 319 318 317 317 316 317 317 319
319 320 321 319 319 321 321 322 321 322 323 324 322 321 320 325 322 320 318 315 315 315 316 317 316 318 320 320 319 319 319 318 318 318 318 318 318 319 318 316 316 317 319 319
318 320 322 319 315 315 316 319 322 326 324 325 325 325 321 322 319 317 315 314 315 316 316 315 315 315 315 315 314 314 313 312 312 312 311 312 312 312 313 313 315 316 316 318
319 320 320 318 317 316 318 318 318 319 320 325 325 321 320 319 320 317 315 314 314 315 314 312 312 311 311 310 310 310 310 310 310 310 310 310 310 311 311 311 311 311 311 312
316 316 320 322 314 318 318 317 317 318 321 318 320 318 317 318 319 317 314 314 313 312 311 311 311 310 310 310 310 310 310 309 309 308 307 307 307 306 306 306 306 305 305 305
317 319 316 314 314 315 314 314 315 316 316 316 315 314 314 314 315 314 313 313 312 311 311 311 310 310 310 309 309 308 308 307 306 306 305 305 304 304 303 303 302 302 302 302
313 317 315 316 314 314 315 314 314 314 314 314 314 315 314 314 313 313 313 312 312 311 311 310 310 309 309 308 308 307 306 305 305 304 304 303 303 303 302 302 301 302 302 303
317 318 318 316 314 313 313 313 313 313 313 314 315 315 315 316 315 314 313 312 312 312 310 310 309 309 308 307 307 306 305 305 304 304 304 303 303 303 302 303 304 304 305 305
316 317 316 314 314 315 312 312 312 314 314 314 314 315 317 316 315 313 313 312 312 311 310 309 309 308 308 307 306 305 305 304 303 303 303 302 302 302 303 303 304 303 303 301
313 316 317 317 315 314 313 317 317 317 317 317 318 318 316 315 312 314 312 311 311 310 309 308 308 307 306 305 304 303 303 303 302 301 301 301 301 302 302 301 300 300 299 299
312 314 316 313 317 316 314 316 316 315 316 316 316 316 315 313 316 315 311 310 309 309 308 307 306 305 305 304 303 302 302 301 301 300 300 300 300 299 298 299 299 298 297 297
315 315 317 315 317 316 314 314 315 316 316 314 314 314 314 315 314 311 310 309 308 307 307 305 305 304 303 303 301 301 300 299 299 298 298 298 297 298 297 296 297 296 296 296
315 316 316 316 315 315 313 314 316 315 313 313 313 313 312 311 310 310 309 308 307 306 305 304 303 303 302 301 299 298 298 298 297 296 296 296 297 297 295 296 297 297 295 295
317 316 317 316 315 313 313 314 312 312 311 311 312 312 311 310 309 308 307 306 305 305 304 303 302 301 300 298 297 297 297 295 295 294 296 296 296 296 297 296 297 297 296 295
312 311 315 314 313 312 312 311 311 311 311 312 311 310 309 308 307 306 306 305 304 304 302 301 300 299 298 297 296 295 294 294 293 294 294 294 296 297 298 298 297 297 298 297
309 311 313 313 310 308 308 309 309 310 310 309 308 307 306 305 305 304 304 303 303 302 300 299 297 297 296 295 293 292 292 293 293 292 293 295 296 298 300 301 301 301 302 298
306 308 310 309 307 308 309 309 309 310 308 307 306 305 304 303 303 303 303 302 301 299 298 297 296 295 294 293 292 293 292 292 291 293 294 296 297 299 300 301 306 306 305 303